MPMG - Transparência

Contra-cheque - Remuneração de todos os servidores ativos - Pré Resolução CNMP 200/2019

Período: 2015 - Setembro

Ordem Matrícula Nome Cargo Efetivo Situação Unidade Administrativa Rendimentos Descontos Rendimento Líquido Total Indenizações Outras Remunerações Retroativas/Temporárias Data de Referência
Remuneração Básica Remuneração Eventual ou Temporária Total de Rendimentos Brutos Obrigatórios/Legais Total de Descontos
Remuneração do Cargo Efetivo Outras Verbas Remuneratórias Função de Confiança ou Cargo em Comissão Gratificação Natalina Férias Abono de Permanência Contribuição Previdenciária Imposto de Renda Retenção por Teto Constitucional
1 498900 ABDON MARCIO BARBOSA DA SILVA OFICIAL DO MP ATIVO ABRE CAMPO - COMARCA; ABRE CAMPO-PJ-02PJ 3.557,16 213,43 0,00 0,00 0,00 0,00 3.770,59 414,76 66,23 0,00 480,99 3.289,60 726,01 0,00 30/09/2015
2 177800 ADALBERTO MENEZES FARIA SAMORA OFICIAL DO MP ATIVO BELO HORIZONTE - COMARCA; CGMP-DIVIS DE APOIO FISC ORIENTACAO FUNCIONAL 10.243,18 3.072,95 0,00 0,00 0,00 0,00 13.316,13 1.464,77 2.285,49 0,00 3.750,26 9.565,87 961,01 0,00 30/09/2015
3 306400 ADALBERTO MOREIRA GONCALVES ANALISTA DO MP ATIVO BELO HORIZONTE - COMARCA; BH-24PJ JUIZO REGIONAL DO BARREIRO 10.576,63 2.115,33 0,00 0,00 0,00 0,00 12.691,96 1.396,12 2.237,00 0,00 3.633,12 9.058,84 1.229,54 46,16 30/09/2015
4 179300 ADENISE AUXILIADORA SOUZA SAD OFICIAL DO MP ATIVO BARBACENA - COMARCA; BARBACENA-PJ-06PJ 9.920,24 2.976,07 0,00 0,00 0,00 0,00 12.896,31 1.418,59 2.182,74 0,00 3.601,33 9.294,98 726,01 0,00 30/09/2015
5 77700 ADIL EXPEDITO DE OLIVEIRA JUNIOR ASSESSOR ATIVO BELO HORIZONTE - COMARCA; ASSESSORIA PSICOSSOCIAL 0,00 6.761,44 8.451,80 0,00 0,00 1.673,46 16.886,70 1.673,46 3.314,28 0,00 4.987,74 11.898,96 726,01 0,00 30/09/2015
6 272200 ADILSON BATISTA ORNELAS OFICIAL DO MP ATIVO LAVRAS - COMARCA; LAVRAS-PJ-SECRETARIA 4.175,17 835,03 0,00 0,00 0,00 0,00 5.010,20 551,12 239,19 0,00 790,31 4.219,89 726,01 0,00 30/09/2015
7 380100 ADILSON GONCALVES DE MELO JUNIOR ANALISTA DO MP ATIVO ARAXÁ - COMARCA; ARAXA-PJ-05PJ 7.677,29 767,73 0,00 0,00 0,00 0,00 8.445,02 928,95 1.093,28 0,00 2.022,23 6.422,79 961,01 0,00 30/09/2015
8 148800 ADILSON JANUARIO OFICIAL DO MP ATIVO BELO HORIZONTE - COMARCA; BH-22PJ PES COM DEF E IDOSOS-SECRETARIA 11.276,58 5.638,29 0,00 0,00 0,00 0,00 16.914,87 1.860,64 3.166,28 0,00 5.026,92 11.887,95 726,01 0,00 30/09/2015
9 322601 ADMILSON SILVEIRA ANALISTA DO MP ATIVO SAO JOAO DO PARAISO COMARCA; SAO JOAO DO PARAISO-PJ-UNPJ 5.139,92 0,00 0,00 0,00 0,00 0,00 5.139,92 565,39 393,14 0,00 958,53 4.181,39 726,01 0,00 30/09/2015
10 333700 ADRIANA ABRITTA TEIXEIRA OFICIAL DO MP ATIVO BELO HORIZONTE - COMARCA; DIRET DE PESSOAL DO MINISTERIO PUBLICO - DPMP 6.432,09 1.286,42 0,00 0,00 0,00 0,00 7.718,51 849,04 1.019,74 0,00 1.868,78 5.849,73 726,01 0,00 30/09/2015
11 468500 ADRIANA APARECIDA FIRMINO ANALISTA DO MP ATIVO CARATINGA - COMARCA; CARATINGA-PJ-04PJ 7.200,74 432,04 0,00 0,00 0,00 0,00 7.632,78 839,61 946,62 0,00 1.786,23 5.846,55 961,01 0,00 30/09/2015
12 326100 ADRIANA AUGUSTA AMARAL BELO OFICIAL DO MP ATIVO BARBACENA - COMARCA; BARBACENA-PJ-08PJ 6.432,09 1.286,42 0,00 0,00 0,00 0,00 7.718,51 849,04 915,47 0,00 1.764,51 5.954,00 961,01 0,00 30/09/2015
13 605700 ADRIANA COSTA LIRA OFICIAL DO MP ATIVO BELO HORIZONTE - COMARCA; DIRET DE FORMACAO, APERFEIC. E POS-GRADUACAO 3.445,03 0,00 0,00 0,00 0,00 0,00 3.445,03 378,95 105,11 0,00 484,06 2.960,97 726,01 0,00 30/09/2015
14 541100 ADRIANA CRISTINA DE OLIVEIRA OFICIAL DO MP ATIVO GUAPÉ - COMARCA; GUAPE-PJ-UNPJ 3.445,03 0,00 0,00 0,00 0,00 0,00 3.445,03 378,95 76,67 0,00 455,62 2.989,41 961,01 0,00 30/09/2015
15 254800 ADRIANA DAS GRACAS FERNANDES ANALISTA DO MP ATIVO UBERABA - COMARCA; UBERABA-PJ-07PJ 11.643,70 5.821,85 0,00 0,00 0,00 0,00 17.465,55 1.921,21 3.353,20 0,00 5.274,41 12.191,14 726,01 0,00 30/09/2015
16 246900 ADRIANA DE ALMEIDA ANTONINI ASSESSOR ATIVO BELO HORIZONTE - COMARCA; EXTINTA - SECRETARIA ADMINISTRATIVA 0,00 500,12 2.500,62 0,00 0,00 0,00 3.000,74 409,94 142,72 0,00 552,66 2.448,08 726,01 0,00 30/09/2015
17 217400 ADRIANA DE CARVALHO CATAO BRAGA ASSESSOR ATIVO BELO HORIZONTE - COMARCA; EXTINTA - DIRETORIA DE CONTRATOS E CONVÊNIOS 0,00 1.992,45 6.641,51 0,00 0,00 0,00 8.633,96 513,01 1.563,55 0,00 2.076,56 6.557,40 726,01 0,00 30/09/2015
18 434600 ADRIANA FERREIRA DA SILVA ANALISTA DO MP ATIVO BELO HORIZONTE - COMARCA; BH-14PJ DEFESA CONSUMIDOR-GAB 112PJ 8.451,80 845,18 0,00 0,00 0,00 0,00 9.296,98 1.022,67 1.406,08 0,00 2.428,75 6.868,23 726,01 0,00 30/09/2015
19 499800 ADRIANA FERREIRA TIAGO OFICIAL DO MP ATIVO SALINAS - COMARCA; SALINAS-PJ-02PJ 4.241,01 254,46 0,00 0,00 0,00 0,00 4.495,47 494,50 264,09 0,00 758,59 3.736,88 726,01 0,00 30/09/2015
20 543400 ADRIANA GUIMARAES NUNES DE PAULA ANALISTA DO MP ATIVO PATROCÍNIO - COMARCA; PATROCINIO-PJ-01PJ 5.842,66 0,00 0,00 0,00 0,00 0,00 5.842,66 642,69 560,63 0,00 1.203,32 4.639,34 726,01 0,00 30/09/2015
21 471500 ADRIANA HORTA DE CARVALHO RODRIGUES DE SOUSA ANALISTA DO MP ATIVO BELO HORIZONTE - COMARCA; GRUPO ESP PROM PROC JUST DEF PROB ADM PAT PUB 7.200,74 432,04 0,00 0,00 0,00 0,00 7.632,78 839,61 946,62 0,00 1.786,23 5.846,55 1.196,01 0,00 30/09/2015
22 86400 ADRIANA MOREIRA CALDEIRA BRANT OFICIAL DO MP ATIVO BELO HORIZONTE - COMARCA; EXTINTA-TUTELA DAS FUNDACOES-21 PJ- GABINETE 9.920,24 4.960,12 0,00 0,00 0,00 0,00 14.880,36 1.636,84 2.720,47 0,00 4.357,31 10.523,05 726,01 0,00 30/09/2015
23 480700 ADRIANA MOREIRA DE AVELLAR CEZILIO OFICIAL DO MP ATIVO BELO HORIZONTE - COMARCA; EXTINTA - DIVISAO DE MATERIAL DE CONSUMO 3.916,07 234,96 0,00 0,00 0,00 0,00 4.151,03 456,61 142,49 0,00 599,10 3.551,93 961,01 0,00 30/09/2015
24 326000 ADRIANA PEREIRA CARNEIRO RESENDE OFICIAL DO MP ATIVO BELO HORIZONTE - COMARCA; CAO-DIREITOS HUMANOS E APOIO COMUNITARIO 6.032,93 1.206,59 0,00 0,00 0,00 0,00 7.239,52 796,35 798,24 0,00 1.594,59 5.644,93 726,01 0,00 30/09/2015
25 502200 ADRIANA PETRUCCI DAVINA OFICIAL DO MP ATIVO PATROCÍNIO - COMARCA; PATROCINIO-PJ-01PJ 4.241,01 254,46 0,00 0,00 0,00 0,00 4.495,47 494,50 264,09 0,00 758,59 3.736,88 726,01 0,00 30/09/2015
26 201900 ADRIANA REIS PIMENTA OFICIAL DO MP ATIVO TEÓFILO OTONI - COMARCA; TEOFILO OTONI-PJ-03PJ 9.920,24 2.976,07 0,00 0,00 0,00 0,00 12.896,31 1.418,59 2.287,01 0,00 3.705,60 9.190,71 726,01 0,00 30/09/2015
27 278700 ADRIANA RODRIGUES PINTO COELHO AMARAL ANALISTA DO MP ATIVO BELO HORIZONTE - COMARCA; ASSESS TECNICA DA CORREGEDORIA-GERAL DO MP 10.576,63 2.115,33 0,00 0,00 0,00 0,00 12.691,96 1.396,12 2.132,72 0,00 3.528,84 9.163,12 1.229,54 46,16 30/09/2015
28 468000 ADRIANA SANTOS DE SANTANA MOREIRA ANALISTA DO MP ATIVO ARAÇUAÍ - COMARCA; ARACUAI-PJ-01PJ 7.200,74 2.160,22 0,00 0,00 0,00 0,00 9.360,96 1.029,71 1.317,46 0,00 2.347,17 7.013,79 961,01 0,00 30/09/2015
29 194700 ADRIANA TSUKIDE OFICIAL DO MP ATIVO UBERABA - COMARCA; COORD REG BACIAS PARANAIBA BAIXO RIO GRANDE 9.920,24 2.976,07 0,00 0,00 0,00 0,00 12.896,31 1.418,59 2.234,88 0,00 3.653,47 9.242,84 726,01 0,00 30/09/2015
30 206400 ADRIANE MENDES DE SOUZA ANALISTA DO MP ATIVO BELO HORIZONTE - COMARCA; BH-23PJ CIVEL-FISC AC POL PUB II 13.097,56 6.548,78 0,00 0,00 0,00 0,00 19.646,34 2.161,10 3.886,94 0,00 6.048,04 13.598,30 726,01 0,00 30/09/2015
31 465500 ADRIANO CASSIANO MATOS ANALISTA DO MP ATIVO ARAXÁ - COMARCA; ARAXA-PJ-02PJ 6.641,51 398,49 0,00 0,00 0,00 0,00 7.040,00 774,40 853,68 0,00 1.628,08 5.411,92 726,01 0,00 30/09/2015
32 500500 ADRIANO DE ALMEIDA SILVA OFICIAL DO MP ATIVO UBERABA - COMARCA; UBERABA-PJ-12PJ 4.241,01 254,46 0,00 0,00 0,00 0,00 4.495,47 494,50 264,09 0,00 758,59 3.736,88 726,01 0,00 30/09/2015
33 187200 ADRIANO DE FREITAS MARON OFICIAL DO MP ATIVO PONTE NOVA - COMARCA; PONTE NOVA-PJ-03PJ 7.200,74 5.760,59 0,00 0,00 0,00 0,00 12.961,33 1.425,75 2.302,92 0,00 3.728,67 9.232,66 726,01 0,00 30/09/2015
34 477900 ADRIANO FERREIRA DE ALMEIDA OFICIAL DO MP ATIVO MONTES CLAROS - COMARCA; MONTES CLAROS-PJ-04PJ 5.139,92 308,40 0,00 0,00 0,00 0,00 5.448,32 599,32 369,58 0,00 968,90 4.479,42 726,01 0,00 30/09/2015
35 269101 ADRIANO PEREIRA SILVA ANALISTA DO MP ATIVO UBERABA - COMARCA; UBERABA-PJ-02PJ 7.200,74 432,04 0,00 0,00 0,00 0,00 7.632,78 839,61 894,49 0,00 1.734,10 5.898,68 1.141,18 0,00 30/09/2015
36 414200 ADRIANO RODRIGUES FERNANDES ANALISTA DO MP ATIVO CARANDAÍ - COMARCA; CARANDAI-PJ-UNPJ 6.857,79 685,78 0,00 0,00 0,00 0,00 7.543,57 829,79 820,52 0,00 1.650,31 5.893,26 726,01 0,00 30/09/2015
37 536700 ADRIELLE COSTA MARIA OFICIAL DO MP ATIVO SERRO - COMARCA; SERRO-PJ-SECRETARIA 3.445,03 0,00 0,00 0,00 0,00 0,00 3.445,03 378,95 105,11 0,00 484,06 2.960,97 726,01 0,00 30/09/2015
38 514300 ADRIENE DAMASCENO BRAGA ANALISTA DO MP ATIVO ALFENAS - COMARCA; ALFENAS-PJ-03PJ 6.641,51 398,49 0,00 0,00 0,00 0,00 7.040,00 774,40 853,68 0,00 1.628,08 5.411,92 726,01 0,00 30/09/2015
39 254600 ADRIENE DOMINGUES COSTA ANALISTA DO MP ATIVO BELO HORIZONTE - COMARCA; PROC. JUSTICA DIR. DIFUSOS E COLETIVOS-SEC 9.920,24 1.984,05 0,00 0,00 0,00 0,00 11.904,29 1.309,47 2.044,22 0,00 3.353,69 8.550,60 0,00 0,00 30/09/2015
40 252001 ADRIENE GOMES BARRETO ANALISTA DO MP ATIVO BELO HORIZONTE - COMARCA; BH-19PJ SAUDE-SECRETARIA 150PJ 8.727,00 2.618,10 0,00 0,00 0,00 0,00 11.345,10 1.247,96 1.907,35 0,00 3.155,31 8.189,79 726,01 0,00 30/09/2015
41 118100 AGENOR ALCIR RODRIGUES DA SILVA OFICIAL DO MP ATIVO SÃO JOÃO NEPOMUCENO - COMARCA; SAO JOAO NEPOMUCENO-PJ-01PJ 11.643,70 8.150,59 0,00 0,00 0,00 0,00 19.794,29 2.177,37 3.975,29 0,00 6.152,66 13.641,63 726,01 0,00 30/09/2015
42 302500 AGENOR JOSE DA SILVA JUNIOR ANALISTA DO MP ATIVO JUIZ DE FORA - COMARCA; JUIZ DE FORA-PJ-07PJ 10.576,63 2.115,33 0,00 0,00 0,00 0,00 12.691,96 1.396,12 2.132,72 0,00 3.528,84 9.163,12 726,01 0,00 30/09/2015
43 357500 AILSON WAGNER DE ALENCAR SILVA OFICIAL DO MP ATIVO BELO HORIZONTE - COMARCA; DIRETORIA DO COLEGIO E DA CAMARA DE PJ 6.229,29 1.868,79 0,00 0,00 0,00 0,00 8.098,08 890,79 956,23 0,00 1.847,02 6.251,06 726,01 0,00 30/09/2015
44 366400 AILTON ALEXSSANDRO ALVES OFICIAL DO MP ATIVO PARÁ DE MINAS - COMARCA; PARA DE MINAS-PJ-05PJ 5.842,66 1.752,80 0,00 0,00 0,00 0,00 7.595,46 835,50 989,63 0,00 1.825,13 5.770,33 726,01 0,00 30/09/2015
45 318900 AILTON DE CASTRO RIBEIRO JUNIOR OFICIAL DO MP ATIVO POUSO ALEGRE - COMARCA; POUSO ALEGRE-PJ-03PJ 6.432,09 2.461,24 0,00 0,00 0,00 0,00 8.893,33 849,04 1.186,41 0,00 2.035,45 6.857,88 726,01 0,00 30/09/2015
46 464400 ALAN MONTEIRO GASPAR ANALISTA DO MP ATIVO SETE LAGOAS - COMARCA; SETE LAGOAS-PJ-03PJ 7.200,74 432,04 0,00 0,00 0,00 0,00 7.632,78 839,61 998,76 0,00 1.838,37 5.794,41 726,01 0,00 30/09/2015
47 492000 ALANA DE CASTRO FREITAS OFICIAL DO MP ATIVO BOM SUCESSO - COMARCA; BOM SUCESSO-PJ-UNPJ 3.916,07 234,96 0,00 0,00 0,00 0,00 4.151,03 456,61 199,36 0,00 655,97 3.495,06 726,01 0,00 30/09/2015
48 306700 ALANA MARCIA DE OLIVEIRA OFICIAL DO MP ATIVO BELO HORIZONTE - COMARCA; DIRETORIA DE ADMINISTRACAO FINANCEIRA 6.641,51 1.328,30 0,00 0,00 0,00 0,00 7.969,81 876,68 1.081,25 0,00 1.957,93 6.011,88 726,01 0,00 30/09/2015
49 324500 ALANMAR COUTINHO COSTA OFICIAL DO MP ATIVO LEOPOLDINA - COMARCA; LEOPOLDINA-PJ-02PJ 5.842,66 1.168,53 0,00 0,00 0,00 0,00 7.011,19 771,23 477,78 0,00 1.249,01 5.762,18 726,01 0,00 30/09/2015
50 508200 ALBERTO DA SILVA VIEIRA ASSESSOR ATIVO BELO HORIZONTE - COMARCA; ASSESS ESPECIAL DO PGJ ATUACAO JUNTO A PGJAA 0,00 0,00 9.304,45 0,00 0,00 0,00 9.304,45 513,01 1.643,66 0,00 2.156,67 7.147,78 726,01 0,00 30/09/2015
51 407300 ALBERTO LUIZ SOARES DE OLIVEIRA ANALISTA DO MP ATIVO BELO HORIZONTE - COMARCA; SUPERINTENDÊNCIA DE ENGENHARIA E ARQUITETURA 8.451,80 845,18 0,00 0,00 0,00 0,00 9.296,98 1.022,67 1.406,08 0,00 2.428,75 6.868,23 726,01 0,00 30/09/2015
52 118200 ALBERTO PEREIRA DA COSTA OFICIAL DO MP ATIVO DORES DO INDAIÁ - COMARCA; DORES DO INDAIA-PJ-UNPJ 10.576,63 8.461,30 0,00 0,00 0,00 0,00 19.037,93 2.094,17 3.685,90 0,00 5.780,07 13.257,86 726,01 0,00 30/09/2015
53 282400 ALCILENE MARISE DE ARAUJO ANALISTA DO MP ATIVO BELO HORIZONTE - COMARCA; BH-23PJ INF-FISC MED SOC FEC 10.576,63 2.115,33 0,00 0,00 0,00 0,00 12.691,96 1.396,12 2.132,72 0,00 3.528,84 9.163,12 726,01 0,00 30/09/2015
54 112600 ALCIONE DA MOTA JARDIM OFICIAL DO MP ATIVO BELO HORIZONTE - COMARCA; CAO-CRIANCAS E ADOLESCENTES 8.451,80 4.225,90 0,00 0,00 0,00 0,00 12.677,70 1.394,55 2.181,37 0,00 3.575,92 9.101,78 726,01 0,00 30/09/2015
55 396400 ALCIONE DE FREITAS E SILVA ANALISTA DO MP ATIVO BELO HORIZONTE - COMARCA; DIRET DE PESSOAL DO MINISTERIO PUBLICO - DPMP 8.727,00 2.618,10 0,00 0,00 0,00 0,00 11.345,10 1.247,96 1.907,35 0,00 3.155,31 8.189,79 726,01 0,00 30/09/2015
56 161600 ALCIONE NERY SOUZA ASSESSOR ATIVO BELO HORIZONTE - COMARCA; GRUPO ESPECIAL DE DEFESA DA FAUNA 0,00 2.656,60 6.641,51 0,00 0,00 0,00 9.298,11 513,01 1.746,20 0,00 2.259,21 7.038,90 726,01 0,00 30/09/2015
57 376000 ALDA GOMES LANA OFICIAL DO MP ATIVO BELO HORIZONTE - COMARCA; BH-18PJ VIOLENCIA DOMESTICA-SECRETARIA 6.032,93 603,29 0,00 0,00 0,00 0,00 6.636,22 729,98 650,58 0,00 1.380,56 5.255,66 726,01 0,00 30/09/2015
58 148000 ALDA MARTINS SIMOES OFICIAL DO MP ATIVO BELO HORIZONTE - COMARCA; BH-23PJ CIVEL- FISC ENT AB POL 10.576,63 4.230,65 0,00 0,00 0,00 0,00 14.807,28 1.628,80 2.754,72 0,00 4.383,52 10.423,76 961,01 0,00 30/09/2015
59 318400 ALDO CREPALDI JUNIOR OFICIAL DO MP ATIVO BELO HORIZONTE - COMARCA; EXTINTA - DIVISAO DE MATERIAL DE CONSUMO 6.032,93 1.206,59 0,00 0,00 0,00 0,00 7.239,52 796,35 850,37 0,00 1.646,72 5.592,80 961,01 0,00 30/09/2015
60 604500 ALENIZE APARECIDA RODRIGUES HENRIQUE OFICIAL DO MP ATIVO RIO NOVO - COMARCA; RIO NOVO-PJ-UNPJ 3.129,28 0,00 0,00 0,00 0,00 0,00 3.129,28 344,22 66,08 0,00 410,30 2.718,98 726,01 0,00 30/09/2015
61 197900 ALESSA DE SOUSA E SILVA OFICIAL DO MP ATIVO OLIVEIRA - COMARCA; OLIVEIRA-PJ-02PJ 10.243,18 3.072,95 0,00 0,00 0,00 0,00 13.316,13 1.464,77 2.285,49 0,00 3.750,26 9.565,87 846,01 0,00 30/09/2015
62 428500 ALESSANDRA ALVES DINIZ OFICIAL DO MP ATIVO BELO HORIZONTE - COMARCA; CENTRAL DE APOIO TECNICO-SECRETARIA 4.379,06 1.751,62 0,00 0,00 0,00 0,00 6.130,68 674,37 631,13 0,00 1.305,50 4.825,18 726,01 0,00 30/09/2015
63 286801 ALESSANDRA BOTELHO JUNQUEIRA DE MENEZES ANALISTA DO MP ATIVO PASSOS - COMARCA; PASSOS-PJ-05PJ 8.727,00 2.618,10 0,00 0,00 0,00 0,00 11.345,10 1.247,96 1.750,94 0,00 2.998,90 8.346,20 1.196,01 0,00 30/09/2015
64 307000 ALESSANDRA CRISTINA SANTOS MENDES ANALISTA DO MP ATIVO BELO HORIZONTE - COMARCA; BH-18PJ VIOLENCIA DOMESTICA 8.185,27 1.637,05 0,00 0,00 0,00 0,00 9.822,32 1.080,46 1.482,51 0,00 2.562,97 7.259,35 726,01 0,00 30/09/2015
65 264400 ALESSANDRA DE SOUZA SANTOS ANALISTA DO MP ATIVO BELO HORIZONTE - COMARCA; CGMP-DIVISAO DE APOIO ADMINISTRATIVO 11.643,70 3.493,11 0,00 0,00 0,00 0,00 15.136,81 1.665,05 2.835,37 0,00 4.500,42 10.636,39 726,01 0,00 30/09/2015
66 441500 ALESSANDRA DRUMMOND DE FIGUEIREDO ROSSI ANALISTA DO MP ATIVO BELO HORIZONTE - COMARCA; DIRETORIA DE PROJETOS DE EDIFICACOES 6.857,79 685,78 0,00 0,00 0,00 0,00 7.543,57 829,79 976,93 0,00 1.806,72 5.736,85 726,01 0,00 30/09/2015
67 524000 ALESSANDRA LUCIOLI DE BARROS GUERRA ANALISTA DO MP ATIVO BELO HORIZONTE - COMARCA; BH-19PJ SAUDE--SECRETARIA 6.641,51 398,49 0,00 0,00 0,00 0,00 7.040,00 774,40 697,27 0,00 1.471,67 5.568,33 726,01 0,00 30/09/2015
68 479900 ALESSANDRA MARA ANDRADE DE FARIA OFICIAL DO MP ATIVO UBERABA - COMARCA; UBERABA-PJ-09PJ 5.139,92 308,40 0,00 0,00 0,00 0,00 5.448,32 599,32 464,12 0,00 1.063,44 4.384,88 726,01 0,00 30/09/2015
69 226700 ALESSANDRA MARA VASCONCELOS REZENDE OFICIAL DO MP ATIVO CONSELHEIRO LAFAIETE - COMARCA; CONSELHEIRO LAFAIETE-PJ-07PJ 6.973,67 1.394,73 0,00 0,00 0,00 0,00 8.368,40 920,52 1.178,81 0,00 2.099,33 6.269,07 726,01 0,00 30/09/2015
70 112100 ALESSANDRA MARCIA FERREIRA OFICIAL DO MP ATIVO BELO HORIZONTE - COMARCA; BELO HORIZONTE- SECRETARIA DAS PROMOTORIAS 8.185,27 4.092,64 0,00 0,00 0,00 0,00 12.277,91 1.350,57 2.083,52 0,00 3.434,09 8.843,82 726,01 0,00 30/09/2015
71 196500 ALESSANDRA MARIA RIBEIRO LUCIANO OFICIAL DO MP ATIVO RIO PARANAÍBA - COMARCA; RIO PARANAIBA-PJ-UNPJ 9.920,24 2.976,07 0,00 0,00 0,00 0,00 12.896,31 1.418,59 2.234,88 0,00 3.653,47 9.242,84 961,01 0,00 30/09/2015
72 91400 ALESSANDRA MENDES VASCONCELOS DE SOUZA OFICIAL DO MP ATIVO BELO HORIZONTE - COMARCA; BH-23PJ INF-FISC MED SOC AB 13.097,56 6.548,78 0,00 0,00 0,00 0,00 19.646,34 2.161,10 3.939,08 0,00 6.100,18 13.546,16 726,01 0,00 30/09/2015
73 384900 ALESSANDRA RODRIGUES ANALISTA DO MP ATIVO VISCONDE DO RIO BRANCO - COMARCA; VISCONDE DO RIO BRANCO-PJ-03PJ 8.727,00 872,70 0,00 0,00 0,00 0,00 9.599,70 1.055,97 1.323,75 0,00 2.379,72 7.219,98 961,01 0,00 30/09/2015
74 390000 ALESSANDRA SPADANO MASSARA VASCONCELOS OFICIAL DO MP ATIVO BETIM - COMARCA; BETIM-PJ-10PJ 5.480,05 548,01 0,00 0,00 0,00 0,00 6.028,06 663,09 606,01 0,00 1.269,10 4.758,96 726,01 0,00 30/09/2015
75 426500 ALESSANDRO CAMPOS DE PAIVA COORDENADOR/ANALISTA ATIVO BELO HORIZONTE - COMARCA; DIRETORIA DE PUBLICIDADE INSTITUCIONAL 0,00 1.092,10 10.921,00 0,00 0,00 0,00 12.013,10 1.022,67 2.153,01 0,00 3.175,68 8.837,42 726,01 0,00 30/09/2015
76 623400 ALESSANDRO DE OLIVEIRA REZENDE ANALISTA DO MP ATIVO BELO HORIZONTE - COMARCA; DIVISAO DE MEMORIA INSTITUCIONAL 5.139,92 0,00 0,00 0,00 0,00 0,00 5.139,92 565,39 393,14 0,00 958,53 4.181,39 726,01 0,00 30/09/2015
77 420600 ALESSANDRO SILVA OFICIAL DO MP ATIVO VISCONDE DO RIO BRANCO - COMARCA; VISCONDE DO RIO BRANCO-PJ-02PJ 5.139,92 1.027,98 0,00 0,00 0,00 0,00 6.167,90 678,47 326,22 0,00 1.004,69 5.163,21 726,01 0,00 30/09/2015
78 375301 ALETHEIA PATRICIA ASSIS MORAIS MOREIRA ANALISTA DO MP ATIVO ITABIRA - COMARCA; ITABIRA-PJ-02PJ 6.432,09 0,00 0,00 0,00 0,00 0,00 6.432,09 707,53 704,89 0,00 1.412,42 5.019,67 726,01 0,00 30/09/2015
79 382300 ALEX CARVALHO LIMA ANALISTA DO MP ATIVO UBERLÂNDIA - COMARCA; UBERLANDIA-PJ-14PJ 8.727,00 872,70 0,00 0,00 0,00 0,00 9.599,70 1.055,97 1.350,15 0,00 2.406,12 7.193,58 726,01 0,00 30/09/2015
80 195201 ALEX DE CASTRO PEREIRA ANALISTA DO MP ATIVO UBERABA - COMARCA; UBERABA-PJ-09PJ 10.576,63 3.172,99 0,00 0,00 0,00 0,00 13.749,62 1.512,46 2.443,72 0,00 3.956,18 9.793,44 726,01 0,00 30/09/2015
81 358900 ALEX DE PAULA LANZA ASSESSOR ATIVO BELO HORIZONTE - COMARCA; DIRETORIA DE IMPRENSA 0,00 0,00 6.641,51 0,00 0,00 0,00 6.641,51 513,01 1.015,63 0,00 1.528,64 5.112,87 726,01 0,00 30/09/2015
82 178400 ALEX RODRIGO SALDANHA GUIMARAES OFICIAL DO MP ATIVO BELO HORIZONTE - COMARCA; DIRETORIA DE SISTEMAS DE INFORMACAO 4.977,82 1.493,35 0,00 0,00 0,00 0,00 6.471,17 711,83 714,46 0,00 1.426,29 5.044,88 726,01 0,00 30/09/2015
83 289200 ALEX SANDRO PEREIRA DE MATOS OFICIAL DO MP ATIVO BELO HORIZONTE - COMARCA; PROCON-MG-SECRETARIA DE FISCALIZACOES 4.977,82 2.170,38 0,00 0,00 0,00 0,00 7.148,20 657,07 915,70 0,00 1.572,77 5.575,43 726,01 0,00 30/09/2015
84 413500 ALEX VILELA OLIVEIRA ANALISTA DO MP ATIVO GOVERNADOR VALADARES - COMARCA; COORD REG PJ DEF EDU DIR CRIANCA ADOL RIODOCE 8.727,00 872,70 0,00 0,00 0,00 0,00 9.599,70 1.055,97 1.480,17 0,00 2.536,14 7.063,56 726,01 0,00 30/09/2015
85 264300 ALEXANDRA FATIMA SARAIVA SOARES ANALISTA DO MP ATIVO BELO HORIZONTE - COMARCA; CENTRAL DE APOIO TECN-SETOR DE MEIO AMBIENTE 11.643,70 2.328,74 0,00 0,00 0,00 0,00 13.972,44 1.536,97 2.550,39 0,00 4.087,36 9.885,08 726,01 0,00 30/09/2015
86 488000 ALEXANDRA LARA PAIS DE CARVALHO ANALISTA DO MP ATIVO GUANHÃES - COMARCA; GUANHAES-PJ-SECRETARIA 6.641,51 398,49 0,00 0,00 0,00 0,00 7.040,00 774,40 697,27 0,00 1.471,67 5.568,33 1.196,01 0,00 30/09/2015
87 256300 ALEXANDRA SANTOS GOMES OFICIAL DO MP ATIVO BELO HORIZONTE - COMARCA; EXTINTA - DIVISÃO DE COMPRAS 6.432,09 1.286,42 0,00 0,00 0,00 0,00 7.718,51 849,04 1.019,74 0,00 1.868,78 5.849,73 726,01 0,00 30/09/2015
88 403300 ALEXANDRE AUGUSTO RODRIGUES ANALISTA DO MP ATIVO ÁGUAS FORMOSAS - COMARCA; AGUAS FORMOSAS-PJ-UNPJ 7.435,23 743,52 0,00 0,00 0,00 0,00 8.178,75 899,66 1.132,39 0,00 2.032,05 6.146,70 726,01 0,00 30/09/2015
89 640900 ALEXANDRE BARBOSA MASCARENHAS ANALISTA DO MP ATIVO BETIM - COMARCA; BETIM-PJ-01PJ 4.668,87 0,00 0,00 0,00 0,00 0,00 4.668,87 513,58 183,18 0,00 696,76 3.972,11 1.149,01 0,00 30/09/2015
90 311700 ALEXANDRE BARCELOS RESENDE OFICIAL DO MP ATIVO BELO HORIZONTE - COMARCA; BH-07PJ 03 TRIBUNAL DO JURI-GAB 109PJ 5.139,92 513,99 0,00 0,00 0,00 0,00 5.653,91 621,93 514,43 0,00 1.136,36 4.517,55 726,01 0,00 30/09/2015
91 285600 ALEXANDRE CAMPOS DE OLIVEIRA OFICIAL DO MP ATIVO UBERABA - COMARCA; COORD REG BACIAS PARANAIBA BAIXO RIO GRANDE 6.973,67 1.394,73 0,00 0,00 0,00 0,00 8.368,40 920,52 1.022,40 0,00 1.942,92 6.425,48 1.196,01 0,00 30/09/2015
92 509200 ALEXANDRE CAPUANO DE REZENDE ANALISTA DO MP ATIVO BELO HORIZONTE - COMARCA; GABINETE DE PROCURADOR DE JUSTIÇA - SALA 514 6.641,51 398,49 0,00 0,00 0,00 0,00 7.040,00 774,40 801,54 0,00 1.575,94 5.464,06 726,01 0,00 30/09/2015
93 229400 ALEXANDRE CARLOS BOTREL DIRETOR/OFICIAL ATIVO BELO HORIZONTE - COMARCA; SUPERINTENDENCIA DOS ORGAOS COLEGIADOS 0,00 2.831,04 14.155,19 0,00 0,00 0,00 16.986,23 1.151,96 3.485,06 0,00 4.637,02 12.349,21 726,01 0,00 30/09/2015
94 411900 ALEXANDRE CARVALHO SANTOS RIBEIRO ANALISTA DO MP ATIVO SÃO JOÃO DEL REI - COMARCA; SAO JOAO DEL REI-PJ-02PJ 8.451,80 845,18 0,00 0,00 0,00 0,00 9.296,98 1.022,67 1.406,08 0,00 2.428,75 6.868,23 961,01 0,00 30/09/2015
95 641600 ALEXANDRE DA SILVA ASSUNCAO OFICIAL DO MP ATIVO BELO HORIZONTE - COMARCA; BH-17PJ PATRIMONIO PUBLICO-SECRETARIA 3.030,62 0,00 0,00 0,00 0,00 0,00 3.030,62 333,37 59,49 0,00 392,86 2.637,76 726,01 0,00 30/09/2015
96 201200 ALEXANDRE DE ALENCAR CORDEIRO OFICIAL DO MP ATIVO ÁGUAS FORMOSAS - COMARCA; AGUAS FORMOSAS-PJ-UNPJ 4.977,82 1.991,13 0,00 0,00 0,00 0,00 6.968,95 766,58 836,29 0,00 1.602,87 5.366,08 726,01 0,00 30/09/2015
97 288200 ALEXANDRE DE VASCONCELOS COSTA KER ANALISTA DO MP ATIVO BELO HORIZONTE - COMARCA; BH-03PJ EMPRESARIAL-SECRETARIA 10.576,63 2.115,33 0,00 0,00 0,00 0,00 12.691,96 1.396,12 2.184,86 0,00 3.580,98 9.110,98 726,01 0,00 30/09/2015
98 445000 ALEXANDRE DIOGENES OLIVEIRA ANALISTA DO MP ATIVO SALINAS - COMARCA; SALINAS-PJ-02PJ 7.435,23 743,52 0,00 0,00 0,00 0,00 8.178,75 899,66 1.132,39 0,00 2.032,05 6.146,70 726,01 0,00 30/09/2015
99 463400 ALEXANDRE LEAL WINKELSTROTER ANALISTA DO MP ATIVO TEÓFILO OTONI - COMARCA; TEOFILO OTONI-PJ-04PJ 6.641,51 398,49 0,00 0,00 0,00 0,00 7.040,00 774,40 801,54 0,00 1.575,94 5.464,06 726,01 0,00 30/09/2015
100 615700 ALEXANDRE LUIZ DE CASTRO MACIEL ANALISTA DO MP ATIVO IBIRITÉ - COMARCA; IBIRITE-PJ-02PJ 5.307,28 0,00 0,00 0,00 0,00 0,00 5.307,28 583,80 429,60 0,00 1.013,40 4.293,88 726,01 0,00 30/09/2015
101 356900 ALEXANDRE MOISES MENDONCA E ARAUJO OFICIAL DO MP ATIVO UBERABA - COMARCA; UBERABA-PJ-13PJ 4.977,82 497,78 0,00 0,00 1.825,20 0,00 7.300,80 602,32 972,72 0,00 1.575,04 5.725,76 726,01 0,00 30/09/2015
102 633300 ALEXANDRE NONATO MARTINS OFICIAL DO MP ATIVO IGARAPÉ - COMARCA; IGARAPE-PJ-02PJ 3.030,62 0,00 0,00 0,00 0,00 0,00 3.030,62 333,37 45,27 0,00 378,64 2.651,98 726,01 0,00 30/09/2015
103 469900 ALEXANDRE PEREIRA GUEDES ANALISTA DO MP ATIVO CATAGUASES - COMARCA; CATAGUASES-PJ-03PJ 7.200,74 432,04 0,00 0,00 0,00 0,00 7.632,78 839,61 998,76 0,00 1.838,37 5.794,41 726,01 0,00 30/09/2015
104 208700 ALEXANDRE RESENDE FRAGA ANALISTA DO MP ATIVO BELO HORIZONTE - COMARCA; BH-19PJ SAUDE 13.616,17 4.084,85 0,00 0,00 0,00 0,00 17.701,02 1.947,11 3.306,55 0,00 5.253,66 12.447,36 1.196,01 0,00 30/09/2015
105 216401 ALEXANDRE RIBEIRO DE LIMA MAIORINO ANALISTA DO MP ATIVO UBERABA - COMARCA; UBERABA-PJ-03PJ 10.576,63 3.172,99 0,00 0,00 0,00 0,00 13.749,62 1.512,46 2.443,72 0,00 3.956,18 9.793,44 726,01 0,00 30/09/2015
106 475100 ALEXANDRE TEOTONIO COSTA ANALISTA DO MP ATIVO ARAGUARI - COMARCA; ARAGUARI-PJ-01PJ 7.200,74 432,04 0,00 0,00 0,00 0,00 7.632,78 839,61 894,49 0,00 1.734,10 5.898,68 961,01 0,00 30/09/2015
107 339000 ALEXANDRE VITOR CARDOSO OFICIAL DO MP ATIVO BELO HORIZONTE - COMARCA; BH-18PJ DIREITOS HUMANOS-SECRETARIA 4.977,82 497,78 0,00 0,00 0,00 0,00 5.475,60 602,32 332,38 0,00 934,70 4.540,90 726,01 0,00 30/09/2015
108 623100 ALEXSANDER BATISTA AGUIAR ANALISTA DO MP ATIVO BELO HORIZONTE - COMARCA; DIRETORIA DE SUPORTE E MANUTENCAO 5.139,92 0,00 0,00 0,00 0,00 0,00 5.139,92 565,39 307,82 0,00 873,21 4.266,71 726,01 0,00 30/09/2015
109 513300 ALFSON MIRANDA BRAGA ANALISTA DO MP ATIVO BELO HORIZONTE - COMARCA; BH-12PJ JUIZO CRIMINAL-GAB 092PJ 6.641,51 398,49 0,00 0,00 0,00 0,00 7.040,00 774,40 853,68 0,00 1.628,08 5.411,92 726,01 0,00 30/09/2015
110 618400 ALICE MAGALHAES MACEDO DE CARVALHO ANALISTA DO MP ATIVO AÇUCENA - COMARCA; ACUCENA-PJ-UNPJ 5.307,28 0,00 0,00 0,00 0,00 0,00 5.307,28 583,80 429,60 0,00 1.013,40 4.293,88 726,01 0,00 30/09/2015
111 471000 ALICE TITONELI MOREIRA ANALISTA DO MP ATIVO MIRADOURO - COMARCA; MIRADOURO-PJ-UNPJ 7.200,74 432,04 0,00 0,00 0,00 0,00 7.632,78 839,61 946,62 0,00 1.786,23 5.846,55 961,01 0,00 30/09/2015
112 622400 ALINE BALBINO PORTUGAL ANALISTA DO MP ATIVO TRÊS PONTAS - COMARCA; TRES PONTAS-PJ-03PJ 5.139,92 0,00 0,00 0,00 0,00 0,00 5.139,92 565,39 393,14 0,00 958,53 4.181,39 726,01 0,00 30/09/2015
113 373000 ALINE BOTELHO RESENDE OFICIAL DO MP ATIVO PASSA QUATRO - COMARCA; PASSA QUATRO-PJ-SECRETARIA 5.842,66 584,27 0,00 0,00 0,00 0,00 6.426,93 706,96 703,63 0,00 1.410,59 5.016,34 726,01 0,00 30/09/2015
114 407700 ALINE CRISTINA RODRIGUES PEREIRA ANALISTA DO MP ATIVO BELO HORIZONTE - COMARCA; DIRETORIA DE PROJETOS DE EDIFICACOES 6.857,79 685,78 0,00 0,00 0,00 0,00 7.543,57 829,79 976,93 0,00 1.806,72 5.736,85 961,01 0,00 30/09/2015
115 193100 ALINE CRISTINA SENA OLIVEIRA OFICIAL DO MP ATIVO UBERLÂNDIA - COMARCA; UBERLANDIA-PJ-03PJ 9.011,08 3.878,14 0,00 0,00 0,00 0,00 12.889,22 1.288,58 2.268,68 0,00 3.557,26 9.331,96 726,01 0,00 30/09/2015
116 554200 ALINE CRISTINA SILVA SOUZA OFICIAL DO MP ATIVO TIROS - COMARCA; TIROS-PJ-UNPJ 3.792,57 0,00 0,00 0,00 0,00 0,00 3.792,57 417,18 151,51 0,00 568,69 3.223,88 726,01 0,00 30/09/2015
117 505500 ALINE DA CUNHA MARREIROS OLIVEIRA ANALISTA DO MP ATIVO CARANGOLA - COMARCA; CARANGOLA-PJ-03PJ 6.641,51 398,49 0,00 0,00 0,00 0,00 7.040,00 774,40 801,54 0,00 1.575,94 5.464,06 726,01 0,00 30/09/2015
118 433500 ALINE DE MELO QUEIROZ OFICIAL DO MP ATIVO BELO HORIZONTE - COMARCA; EXTINTO-PROCON ESTADUAL-RELACOES INSTITUCIONA 5.307,28 1.705,55 0,00 0,00 0,00 0,00 7.012,83 642,18 882,57 0,00 1.524,75 5.488,08 726,01 0,00 30/09/2015
119 542700 ALINE DE SOUSA ALBINO ANALISTA DO MP ATIVO CARMO DO PARANAÍBA - COMARCA; CARMO DO PARANAIBA-PJ-01PJ 5.842,66 0,00 0,00 0,00 0,00 0,00 5.842,66 642,69 560,63 0,00 1.203,32 4.639,34 726,01 0,00 30/09/2015
120 330000 ALINE DIORIO MAYRINK OFICIAL DO MP ATIVO BELO HORIZONTE - COMARCA; BH-07PJ TRIBUNAL DO JURI 5.307,28 530,73 0,00 0,00 0,00 0,00 5.838,01 642,18 559,49 0,00 1.201,67 4.636,34 726,01 0,00 30/09/2015
121 499000 ALINE FERREIRA LOPES NEIVA ANALISTA DO MP ATIVO TEÓFILO OTONI - COMARCA; COORD. DE DEF. DO PAT. PUBLICO-JEQUIT./MUCURI 6.641,51 398,49 0,00 0,00 0,00 0,00 7.040,00 774,40 801,54 0,00 1.575,94 5.464,06 726,01 0,00 30/09/2015
122 405300 ALINE LAIA CARDOZO ANALISTA DO MP ATIVO BELO HORIZONTE - COMARCA; EXTINTA - DIRETORIA DE CONTRATOS E CONVÊNIOS 8.727,00 872,70 0,00 0,00 0,00 0,00 9.599,70 1.055,97 1.480,17 0,00 2.536,14 7.063,56 726,01 0,00 30/09/2015
123 278200 ALINE MARCIA FARIA BARBOSA OFICIAL DO MP ATIVO BARBACENA - COMARCA; BARBACENA-PJ-SECRETARIA 4.977,82 995,56 0,00 0,00 0,00 0,00 5.973,38 657,07 436,21 0,00 1.093,28 4.880,10 961,01 0,00 30/09/2015
124 389000 ALINE NERI NOBRE ANALISTA DO MP ATIVO MONTES CLAROS - COMARCA; COORD REG PJ DEF EDUC DIR CRIANCA ADOL NORTE 9.011,08 1.802,22 0,00 0,00 0,00 0,00 10.813,30 1.189,46 1.777,20 0,00 2.966,66 7.846,64 726,01 0,00 30/09/2015
125 294600 ALINE PATRICIA SILVA VIEIRA OFICIAL DO MP ATIVO UBERLÂNDIA - COMARCA; UBERLANDIA-PJ-03PJ 6.973,67 2.569,55 0,00 0,00 0,00 0,00 9.543,22 920,52 1.397,61 0,00 2.318,13 7.225,09 1.196,01 0,00 30/09/2015
126 420000 ALINE RODRIGUES CAMOROPIN ANALISTA DO MP ATIVO SABARÁ - COMARCA; SABARA-PJ-02PJ 8.451,80 845,18 0,00 0,00 0,00 0,00 9.296,98 1.022,67 1.406,08 0,00 2.428,75 6.868,23 726,01 0,00 30/09/2015
127 408300 ALINE SILVA ARAUJO DE PAULA ANALISTA DO MP ATIVO SÃO SEBASTIÃO DO PARAÍSO - COMARCA; SAO SEBASTIAO DO PARAISO-PJ-02PJ 8.727,00 872,70 0,00 0,00 0,00 0,00 9.599,70 1.055,97 1.480,17 0,00 2.536,14 7.063,56 726,01 0,00 30/09/2015
128 425400 ALINE TRINDADE DE FREITAS CAMPOS OFICIAL DO MP ATIVO BELO HORIZONTE - COMARCA; BH-14PJ DEFESA CONSUMIDOR-SECRETARIA 5.480,05 548,01 0,00 0,00 0,00 0,00 6.028,06 663,09 606,01 0,00 1.269,10 4.758,96 726,01 0,00 30/09/2015
129 517200 ALISSOM PEREIRA DA SILVA ANALISTA DO MP ATIVO BORDA DA MATA - COMARCA; BORDA DA MATA-PJ-UNPJ 6.641,51 398,49 0,00 0,00 0,00 0,00 7.040,00 774,40 853,68 0,00 1.628,08 5.411,92 726,01 0,00 30/09/2015
130 442400 ALISSON LABRE ANALISTA DO MP ATIVO VARGINHA - COMARCA; VARGINHA-PJ-02PJ 7.435,23 743,52 0,00 0,00 0,00 0,00 8.178,75 899,66 1.132,39 0,00 2.032,05 6.146,70 726,01 0,00 30/09/2015
131 349000 ALLEC RODRIGUES VIEIRA ASSESSOR/OFICIAL ATIVO BELO HORIZONTE - COMARCA; COORD DE INCLUSAO E MOBILIZACAO SOCIAIS 0,00 930,45 9.304,45 0,00 0,00 0,00 10.234,90 1.125,84 1.635,63 0,00 2.761,47 7.473,43 726,01 0,00 30/09/2015
132 297300 ALLYSON SALIBA MONTEIRO LAIZO ANALISTA DO MP ATIVO CONSELHEIRO LAFAIETE - COMARCA; CONSELHEIRO LAFAIETE-PJ-03PJ 11.276,58 2.255,32 0,00 0,00 0,00 0,00 13.531,90 1.488,51 2.442,57 0,00 3.931,08 9.600,82 726,01 0,00 30/09/2015
133 303700 ALMIR LOPES LOURES ANALISTA DO MP ATIVO BELO HORIZONTE - COMARCA; CENTRAL DE APOIO TECN-SETOR DE MEIO AMBIENTE 11.643,70 2.328,74 0,00 0,00 0,00 0,00 13.972,44 1.536,97 2.446,12 0,00 3.983,09 9.989,35 726,01 0,00 30/09/2015
134 515900 ALTAIR NEVES JUNIOR OFICIAL DO MP ATIVO BELO HORIZONTE - COMARCA; BH-03PJ EMPRESARIAL-SECRETARIA 4.241,01 254,46 0,00 0,00 0,00 0,00 4.495,47 494,50 264,09 0,00 758,59 3.736,88 726,01 0,00 30/09/2015
135 233300 ALVARINDO BATISTA COORDENADOR/ANALISTA ATIVO BELO HORIZONTE - COMARCA; DIVISAO DE MULTIMIDIA 13.097,56 4.540,99 0,00 0,00 5.879,52 0,00 23.518,07 1.728,88 5.356,12 0,00 7.085,00 16.433,07 726,01 848,92 30/09/2015
136 274100 ALYSSON CARVALHO VIDAL DE LACERDA OFICIAL DO MP ATIVO MANHUAÇU - COMARCA; MANHUACU-PJ-01PJ 7.200,74 1.440,15 0,00 0,00 0,00 0,00 8.640,89 950,50 1.245,50 0,00 2.196,00 6.444,89 726,01 0,00 30/09/2015
137 621000 AMANDA BASTOS ALVES ANALISTA DO MP ATIVO BELO HORIZONTE - COMARCA; BH-18PJ VIOLENCIA DOMESTICA-SECRETARIA 4.668,87 0,00 0,00 0,00 0,00 0,00 4.668,87 513,58 298,81 0,00 812,39 3.856,48 726,01 0,00 30/09/2015
138 521700 AMANDA CRISTINA AGUIAR MACHADO OFICIAL DO MP ATIVO CONGONHAS - COMARCA; CONGONHAS-PJ-01PJ 3.557,16 213,43 0,00 0,00 0,00 0,00 3.770,59 414,76 120,14 0,00 534,90 3.235,69 726,01 0,00 30/09/2015
139 613400 AMANDA DE ASSIS IUNES SANTOS ANALISTA DO MP ATIVO CONSELHEIRO LAFAIETE - COMARCA; CONSELHEIRO LAFAIETE-PJ-08PJ 4.820,91 0,00 0,00 0,00 0,00 0,00 4.820,91 530,30 329,26 0,00 859,56 3.961,35 961,01 0,00 30/09/2015
140 520800 AMANDA DE SOUZA MACHADO ANALISTA DO MP ATIVO BAEPENDI - COMARCA; BAEPENDI-PJ-UNPJ 6.641,51 398,49 0,00 0,00 0,00 0,00 7.040,00 774,40 749,41 0,00 1.523,81 5.516,19 961,01 0,00 30/09/2015
141 543100 AMANDA VIEIRA FREITAS BRESSANE ANALISTA DO MP ATIVO PARAGUAÇU - COMARCA; PARAGUACU-PJ-UNPJ 5.307,28 0,00 0,00 0,00 0,00 0,00 5.307,28 583,80 429,60 0,00 1.013,40 4.293,88 726,01 0,00 30/09/2015
142 434400 AMARILIS ASSIS SIMAO CURCIO ANALISTA DO MP ATIVO MANHUAÇU - COMARCA; MANHUACU-PJ-SECRETARIA 8.185,27 818,53 0,00 0,00 0,00 0,00 9.003,80 990,42 1.334,32 0,00 2.324,74 6.679,06 961,01 0,00 30/09/2015
143 273700 AMBROLINA CARNEIRO DE VASCONCELOS OFICIAL DO MP ATIVO FRUTAL - COMARCA; FRUTAL-PJ-01PJ 6.973,67 3.486,84 0,00 0,00 0,00 0,00 10.460,51 1.150,66 1.638,71 0,00 2.789,37 7.671,14 726,01 0,00 30/09/2015
144 58000 AMELIA GUARIZE DE CASTRO OFICIAL DO MP ATIVO JUIZ DE FORA - COMARCA; JUIZ DE FORA-PJ-SECRETARIA 5.480,05 4.932,06 0,00 0,00 0,00 1.145,33 11.557,44 1.145,33 1.993,97 0,00 3.139,30 8.418,14 726,01 0,00 30/09/2015
145 324301 AMERICA SUELI FERREIRA DA SILVA ANALISTA DO MP ATIVO MONTE CARMELO - COMARCA; MONTE CARMELO-PJ-02PJ 7.200,74 432,04 0,00 0,00 0,00 0,00 7.632,78 839,61 946,62 0,00 1.786,23 5.846,55 961,01 0,00 30/09/2015
146 273300 AMUJACY DE BRITO ASSIZ OFICIAL DO MP ATIVO BELO HORIZONTE - COMARCA; BH-12PJ JUIZO CRIMINAL-SECRETARIA 7.200,74 1.440,15 0,00 0,00 0,00 0,00 8.640,89 950,50 1.036,95 0,00 1.987,45 6.653,44 726,01 0,00 30/09/2015
147 482200 ANA ALICE LOPES ACHTSCHIN ANALISTA DO MP ATIVO BELO HORIZONTE - COMARCA; PROC JUST RECURSOS ESP E EXTRAORD CRIMINAIS 7.200,74 432,04 0,00 0,00 0,00 0,00 7.632,78 839,61 998,76 0,00 1.838,37 5.794,41 726,01 0,00 30/09/2015
148 490400 ANA AMELIA PAULINO GARCIA OFICIAL DO MP ATIVO CONTAGEM - COMARCA; CONTAGEM-PJ-13PJ 4.668,87 280,13 0,00 0,00 0,00 0,00 4.949,00 544,39 354,91 0,00 899,30 4.049,70 726,01 0,00 30/09/2015
149 279100 ANA CAROLINA ARAUJO PEREIRA ANALISTA DO MP ATIVO BELO HORIZONTE - COMARCA; DIRETORIA DE PROJETOS DE EDIFICACOES 11.276,58 2.255,32 0,00 0,00 0,00 0,00 13.531,90 1.488,51 2.390,44 0,00 3.878,95 9.652,95 961,01 0,00 30/09/2015
150 359400 ANA CAROLINA DE ABREU FARIA ASSESSOR ATIVO BELO HORIZONTE - COMARCA; DIVISAO DE CONTROLE IMOBILIARIO 0,00 0,00 6.641,51 0,00 0,00 0,00 6.641,51 513,01 1.015,63 0,00 1.528,64 5.112,87 726,01 0,00 30/09/2015
151 408500 ANA CAROLINA DE CASTRO CARVALHO ANALISTA DO MP ATIVO BARBACENA - COMARCA; BARBACENA-PJ-SECRETARIA 8.727,00 872,70 0,00 0,00 0,00 0,00 9.599,70 1.055,97 1.480,17 0,00 2.536,14 7.063,56 726,01 0,00 30/09/2015
152 420200 ANA CAROLINA FERNANDES SILVA ANALISTA DO MP ATIVO BELO HORIZONTE - COMARCA; GABINETE DE PROCURADOR DE JUSTIÇA - SALA 708 8.185,27 818,53 0,00 0,00 0,00 0,00 9.003,80 990,42 1.334,32 0,00 2.324,74 6.679,06 726,01 0,00 30/09/2015
153 522100 ANA CAROLINA FERNANDINO VIDAL PEREIRA SANTOS OFICIAL DO MP ATIVO BELO HORIZONTE - COMARCA; EXTINTA - SECRETARIA ADMINISTRATIVA 4.241,01 254,46 0,00 0,00 0,00 0,00 4.495,47 494,50 264,09 0,00 758,59 3.736,88 726,01 0,00 30/09/2015
154 502400 ANA CAROLINA GONCALVES FERNANDES ANALISTA DO MP ATIVO GRAO MOGOL - COMARCA; GRAO MOGOL-PJ-UNPJ 6.641,51 398,49 0,00 0,00 0,00 0,00 7.040,00 774,40 853,68 0,00 1.628,08 5.411,92 726,01 0,00 30/09/2015
155 529900 ANA CAROLINA GONCALVES PECANHA CHEQUER ANALISTA DO MP ATIVO MANHUAÇU - COMARCA; MANHUACU-PJ-04PJ 5.842,66 0,00 0,00 0,00 0,00 0,00 5.842,66 642,69 560,63 0,00 1.203,32 4.639,34 726,01 0,00 30/09/2015
156 431900 ANA CAROLINA MOTTA GUATIMOSIM ANALISTA DO MP ATIVO BELO HORIZONTE - COMARCA; GABINETE DE PROCURADOR DE JUSTIÇA - SALA 1006 8.185,27 818,53 0,00 0,00 0,00 0,00 9.003,80 990,42 1.334,32 0,00 2.324,74 6.679,06 726,01 0,00 30/09/2015
157 539400 ANA CAROLINA REIS MACEDO ANALISTA DO MP ATIVO UBERABA - COMARCA; COORD REG PJ DEF EDUC DIR CRIANCA ADOL TRIANG 5.842,66 0,00 0,00 0,00 0,00 0,00 5.842,66 642,69 560,63 0,00 1.203,32 4.639,34 726,01 0,00 30/09/2015
158 490600 ANA CAROLINA XAVIER GODOY ANALISTA DO MP ATIVO BELO HORIZONTE - COMARCA; BH-18PJ VIOLENCIA DOMESTICA 7.200,74 432,04 0,00 0,00 0,00 0,00 7.632,78 839,61 998,76 0,00 1.838,37 5.794,41 726,01 0,00 30/09/2015
159 600300 ANA CAROLINE PEREIRA DINIZ ANALISTA DO MP ATIVO BELO HORIZONTE - COMARCA; COMB CRIMES PRAT POR AG POL MUN-SECRETARIA 5.307,28 0,00 0,00 0,00 0,00 0,00 5.307,28 583,80 429,60 0,00 1.013,40 4.293,88 961,01 0,00 30/09/2015
160 615800 ANA CAROLINE PEREIRA OLIVEIRA OFICIAL DO MP ATIVO ALFENAS - COMARCA; ALFENAS-PJ-06PJ 3.445,03 0,00 0,00 0,00 0,00 0,00 3.445,03 378,95 105,11 0,00 484,06 2.960,97 726,01 0,00 30/09/2015
161 324800 ANA CECILIA MENDES DA SILVA OFICIAL DO MP ATIVO OURO FINO - COMARCA; OURO FINO-PJ-01PJ 6.432,09 1.286,42 0,00 0,00 0,00 0,00 7.718,51 849,04 967,61 0,00 1.816,65 5.901,86 961,01 0,00 30/09/2015
162 441300 ANA CLAUDIA ALKIMIM MIRANDA BOMTEMPO ANALISTA DO MP ATIVO MONTES CLAROS - COMARCA; MONTES CLAROS-PJ-11PJ 7.435,23 743,52 0,00 0,00 0,00 0,00 8.178,75 899,66 1.028,12 0,00 1.927,78 6.250,97 961,01 0,00 30/09/2015
163 604900 ANA CLAUDIA OLIVEIRA DE MIRANDA OFICIAL DO MP ATIVO PONTE NOVA - COMARCA; PONTE NOVA-PJ-04PJ 3.030,62 0,00 0,00 0,00 0,00 0,00 3.030,62 333,37 45,27 0,00 378,64 2.651,98 726,01 0,00 30/09/2015
164 379300 ANA CRISTINA ALVES FLAVIO ANALISTA DO MP ATIVO SÃO GOTARDO - COMARCA; SAO GOTARDO-PJ-01PJ 8.727,00 872,70 0,00 0,00 0,00 0,00 9.599,70 1.055,97 1.375,89 0,00 2.431,86 7.167,84 961,01 0,00 30/09/2015
165 461200 ANA CRISTINA ALVES PASCHOAL ANALISTA DO MP ATIVO SANTA LUZIA - COMARCA; SANTA LUZIA-PJ-03PJ 7.200,74 432,04 0,00 0,00 0,00 0,00 7.632,78 839,61 998,76 0,00 1.838,37 5.794,41 726,01 0,00 30/09/2015
166 514100 ANA CRISTINA ARAUJO ASSUNCAO ANALISTA DO MP ATIVO BELO HORIZONTE - COMARCA; ASSESS JUR DO CONS SUPERIOR DO MINISTERIO PUB 6.641,51 398,49 0,00 0,00 0,00 0,00 7.040,00 774,40 801,54 0,00 1.575,94 5.464,06 961,01 0,00 30/09/2015
167 113400 ANA CRISTINA BRAGA ALBUQUERQUE ANALISTA DO MP ATIVO BELO HORIZONTE - COMARCA; ASSESS ESP ADM E FINANCEIRA DO PGJ ADJ ADM 24.459,17 12.229,59 0,00 0,00 0,00 0,00 36.688,76 3.351,82 6.588,44 6.217,65 16.157,91 20.530,85 726,01 0,00 30/09/2015
168 233800 ANA CRISTINA BRAGA SOARES RIOS OFICIAL DO MP ATIVO CONTAGEM - COMARCA; CONTAGEM-PJ-SECRETARIA 7.200,74 1.440,15 0,00 0,00 0,00 0,00 8.640,89 950,50 1.245,50 0,00 2.196,00 6.444,89 726,01 0,00 30/09/2015
169 186400 ANA CRISTINA DE AZEVEDO LOPES OFICIAL DO MP ATIVO UBÁ - COMARCA; UBA-PJ-01PJ 9.920,24 2.976,07 0,00 0,00 0,00 0,00 12.896,31 1.418,59 2.234,88 0,00 3.653,47 9.242,84 726,01 0,00 30/09/2015
170 465100 ANA CRISTINA DE OLIVEIRA GUIMARAES ANALISTA DO MP ATIVO BRASÓPOLIS - COMARCA; BRASOPOLIS-PJ-UNPJ 7.200,74 432,04 0,00 0,00 0,00 0,00 7.632,78 839,61 998,76 0,00 1.838,37 5.794,41 726,01 0,00 30/09/2015
171 500600 ANA CRISTINA LATADO SUDARIO ANALISTA DO MP ATIVO UBERLÂNDIA - COMARCA; UBERLANDIA-PJ-09PJ 6.641,51 398,49 0,00 0,00 0,00 0,00 7.040,00 774,40 853,68 0,00 1.628,08 5.411,92 726,01 0,00 30/09/2015
172 331400 ANA CRISTINA RIBEIRO ALVES OFICIAL DO MP ATIVO BAMBUÍ - COMARCA; BAMBUI-PJ-UNPJ 6.229,29 1.245,86 0,00 0,00 0,00 0,00 7.475,15 822,27 960,18 0,00 1.782,45 5.692,70 726,01 0,00 30/09/2015
173 249300 ANA ELOINA MARTINS DO PINHO OFICIAL DO MP ATIVO BETIM - COMARCA; BETIM-PJ-08PJ 7.677,29 2.303,19 0,00 0,00 0,00 0,00 9.980,48 1.097,85 1.521,23 0,00 2.619,08 7.361,40 726,01 0,00 30/09/2015
174 257400 ANA FLAVIA CAMBRAIA ANALISTA DO MP ATIVO BELO HORIZONTE - COMARCA; BH-19PJ SAUDE-SECRETARIA 150PJ 11.643,70 2.328,74 0,00 0,00 0,00 0,00 13.972,44 1.536,97 2.498,26 0,00 4.035,23 9.937,21 726,01 0,00 30/09/2015
175 248201 ANA FLAVIA DE MORAIS SOUZA ANALISTA DO MP ATIVO DIVINÓPOLIS - COMARCA; DIVINOPOLIS-PJ-01PJ 7.200,74 1.440,15 0,00 0,00 0,00 0,00 8.640,89 950,50 1.193,36 0,00 2.143,86 6.497,03 961,01 0,00 30/09/2015
176 621100 ANA FLAVIA DINIZ TEODORO OFICIAL DO MP ATIVO SANTA LUZIA - COMARCA; SANTA LUZIA-PJ-06PJ 3.030,62 0,00 0,00 0,00 0,00 0,00 3.030,62 333,37 59,49 0,00 392,86 2.637,76 726,01 0,00 30/09/2015
177 238600 ANA FLAVIA FRANCO OFICIAL DO MP ATIVO BELO HORIZONTE - COMARCA; DIRETORIA DE PESSOAL ADMINISTRATIVO - DPAD 8.451,80 1.690,36 0,00 0,00 0,00 0,00 10.142,16 1.115,64 1.612,93 0,00 2.728,57 7.413,59 726,01 0,00 30/09/2015
178 402900 ANA FLAVIA PORTES DE CARVALHO ANALISTA DO MP ATIVO BELO HORIZONTE - COMARCA; DIRET DE PLANOS PROJETOS E PROGRAMAS INST 8.727,00 872,70 0,00 0,00 0,00 0,00 9.599,70 1.055,97 1.428,03 0,00 2.484,00 7.115,70 961,01 0,00 30/09/2015
179 382700 ANA KARENINA SALDANHA GONTIJO ANALISTA DO MP ATIVO BELO HORIZONTE - COMARCA; ASSESS TECNICO-JUR JUNTO AS PROC. DE JUST 7.677,29 767,73 0,00 0,00 0,00 0,00 8.445,02 928,95 1.197,56 0,00 2.126,51 6.318,51 961,01 0,00 30/09/2015
180 620500 ANA KARINE DE ANDRADE OLIVEIRA ANALISTA DO MP ATIVO RIBEIRÃO DAS NEVES - COMARCA; RIBEIRAO DAS NEVES-PJ-10PJ 4.668,87 0,00 0,00 0,00 0,00 0,00 4.668,87 513,58 298,81 0,00 812,39 3.856,48 726,01 0,00 30/09/2015
181 220000 ANA LUCIA AMORIM OFICIAL DO MP ATIVO MARTINHO CAMPOS - COMARCA; MARTINHO CAMPOS-PJ-SECRETARIA 8.451,80 4.225,90 0,00 0,00 0,00 0,00 12.677,70 1.394,55 2.233,51 0,00 3.628,06 9.049,64 726,01 0,00 30/09/2015
182 462200 ANA LUCIA ANDRADE TOMICH OTTONI ANALISTA DO MP ATIVO TEÓFILO OTONI - COMARCA; TEOFILO OTONI-PJ-06PJ 7.200,74 432,04 0,00 0,00 0,00 0,00 7.632,78 839,61 894,49 0,00 1.734,10 5.898,68 726,01 0,00 30/09/2015
183 504100 ANA LUCIA CATAO DE CARVALHO OFICIAL DO MP ATIVO BELO HORIZONTE - COMARCA; BH-09PJ AUDITORIA MILITAR 4.241,01 254,46 0,00 0,00 0,00 0,00 4.495,47 494,50 221,43 0,00 715,93 3.779,54 1.196,01 0,00 30/09/2015
184 274700 ANA LUCIA DE ALENCAR BRAGATO OFICIAL DO MP ATIVO UBERABA - COMARCA; UBERABA-PJ-07PJ 6.973,67 1.394,73 0,00 0,00 0,00 0,00 8.368,40 920,52 1.126,67 0,00 2.047,19 6.321,21 726,01 0,00 30/09/2015
185 509400 ANA LUCIA DORNELAS MALLOSTO ANALISTA DO MP ATIVO JUIZ DE FORA - COMARCA; JUIZ DE FORA-PJ-18PJ 6.032,93 361,98 0,00 0,00 0,00 0,00 6.394,91 703,44 643,66 0,00 1.347,10 5.047,81 726,01 0,00 30/09/2015
186 524600 ANA LUCIA DOS SANTOS FERNANDES COELHO ASSESSOR ATIVO BELO HORIZONTE - COMARCA; COORD ESTADUAL DE DEFESA DA EDUCACAO 0,00 0,00 3.975,17 0,00 0,00 0,00 3.975,17 513,01 306,21 0,00 819,22 3.155,95 726,01 0,00 30/09/2015
187 302600 ANA LUCIA LOPES SANTOS OFICIAL DO MP ATIVO BELO HORIZONTE - COMARCA; PROCON-MG-SECRETARIA DE FISCALIZACOES 6.432,09 2.461,24 0,00 0,00 0,00 0,00 8.893,33 849,04 1.290,68 0,00 2.139,72 6.753,61 726,01 0,00 30/09/2015
188 493400 ANA LUISA NOGUEIRA MOREIRA ANALISTA DO MP ATIVO BELO HORIZONTE - COMARCA; TRIBUNAL DO JURI-07 PJ-02 TRIBUNAL 7.200,74 432,04 0,00 0,00 0,00 0,00 7.632,78 839,61 998,76 0,00 1.838,37 5.794,41 726,01 0,00 30/09/2015
189 389300 ANA LUISA REUTER LIMA ANALISTA DO MP ATIVO BELO HORIZONTE - COMARCA; DIRETORIA DE SISTEMAS DE INFORMACAO 7.200,74 720,07 0,00 0,00 0,00 0,00 7.920,81 871,29 1.069,26 0,00 1.940,55 5.980,26 726,01 0,00 30/09/2015
190 480600 ANA LUIZA FERNANDES FRAGA E GRECO OFICIAL DO MP ATIVO SANTO ANTÔNIO DO MONTE - COMARCA; SANTO ANTONIO DO MONTE-PJ-UNPJ 4.241,01 254,46 0,00 0,00 0,00 0,00 4.495,47 494,50 264,09 0,00 758,59 3.736,88 726,01 0,00 30/09/2015
191 517800 ANA LUIZA MAGALHAES CIRINO PIOTO DE MELO OFICIAL DO MP ATIVO BELO HORIZONTE - COMARCA; DIVISAO DE MANUTENCAO PREDIAL 3.557,16 213,43 0,00 0,00 0,00 0,00 3.770,59 414,76 148,57 0,00 563,33 3.207,26 726,01 0,00 30/09/2015
192 481400 ANA MARCIA CANDIDA FERREIRA OFICIAL DO MP ATIVO BRUMADINHO - COMARCA; BRUMADINHO-PJ-01PJ 3.916,07 234,96 0,00 0,00 0,00 0,00 4.151,03 456,61 199,36 0,00 655,97 3.495,06 726,01 0,00 30/09/2015
193 556400 ANA MARIA OLIVEIRA SOUZA OFICIAL DO MP ATIVO ITAPECERICA - COMARCA; ITAPECERICA-PJ-UNPJ 3.445,03 0,00 0,00 0,00 0,00 0,00 3.445,03 378,95 105,11 0,00 484,06 2.960,97 726,01 0,00 30/09/2015
194 409600 ANA OLIVIA FARIA ROSENBURG ANALISTA DO MP ATIVO BELO HORIZONTE - COMARCA; DIRETORIA DO COLEGIO E DA CAMARA DE PJ 8.727,00 1.745,40 0,00 0,00 0,00 0,00 10.472,40 1.151,96 1.693,76 0,00 2.845,72 7.626,68 726,01 0,00 30/09/2015
195 461500 ANA PAULA ALVES CARVALHO ANALISTA DO MP ATIVO UBERLÂNDIA - COMARCA; UBERLANDIA-PJ-08PJ 7.200,74 432,04 0,00 0,00 0,00 0,00 7.632,78 839,61 998,76 0,00 1.838,37 5.794,41 726,01 0,00 30/09/2015
196 523200 ANA PAULA ALVES DA SILVA OFICIAL DO MP ATIVO GOVERNADOR VALADARES - COMARCA; GOVERNADOR VALADARES-PJ-10PJ 4.241,01 254,46 0,00 0,00 0,00 0,00 4.495,47 494,50 264,09 0,00 758,59 3.736,88 726,01 0,00 30/09/2015
197 381200 ANA PAULA BARROS PEREIRA ANALISTA DO MP ATIVO BELO HORIZONTE - COMARCA; PROC JUST RECURSOS ESP E EXTRAORD CRIMINAIS 8.727,00 872,70 0,00 0,00 0,00 0,00 9.599,70 1.055,97 1.480,17 0,00 2.536,14 7.063,56 726,01 0,00 30/09/2015
198 227200 ANA PAULA DA SILVA CAMPOLINA ANALISTA DO MP ATIVO BELO HORIZONTE - COMARCA; SUPERINTENDENCIA DE FINANCAS 13.097,56 5.239,02 0,00 0,00 0,00 0,00 18.336,58 2.017,02 3.618,52 0,00 5.635,54 12.701,04 726,01 0,00 30/09/2015
199 84200 ANA PAULA DE SOUZA ROCHA OFICIAL DO MP ATIVO BELO HORIZONTE - COMARCA; ASSESS ESP ADM E FINANCEIRA DO PGJ ADJ ADM 22.988,40 11.494,20 0,00 0,00 0,00 0,00 34.482,60 3.351,82 6.484,17 4.011,49 13.847,48 20.635,12 726,01 0,00 30/09/2015
200 278500 ANA PAULA DIAS CAPANEMA COORDENADOR/OFICIAL ATIVO BELO HORIZONTE - COMARCA; EXTINTA - DIRETORIA DE MATERIAL E PATRIMONIO 0,00 2.184,20 10.921,00 0,00 0,00 0,00 13.105,20 920,52 2.481,43 0,00 3.401,95 9.703,25 726,01 0,00 30/09/2015
201 327300 ANA PAULA GARCIA MAXIMO OFICIAL DO MP ATIVO UNAÍ - COMARCA; UNAI-PJ-01PJ 6.432,09 1.929,63 0,00 0,00 0,00 0,00 8.361,72 919,79 1.020,76 0,00 1.940,55 6.421,17 726,01 0,00 30/09/2015
202 270000 ANA PAULA GOULART CRUZ DE MAGALHAES ANALISTA DO MP ATIVO BELO HORIZONTE - COMARCA; COMB CRIMES PRAT POR AG POL MUN-ASSESSORIA 9.011,08 1.802,22 0,00 0,00 0,00 0,00 10.813,30 1.189,46 1.777,20 0,00 2.966,66 7.846,64 726,01 0,00 30/09/2015
203 262100 ANA PAULA KOMATSUZAKI ABIJAUDI ANALISTA DO MP ATIVO BELO HORIZONTE - COMARCA; BH-17PJ PATRIMONIO PUBLICO-SECRETARIA 11.643,70 3.493,11 0,00 0,00 0,00 0,00 15.136,81 1.665,05 2.731,10 0,00 4.396,15 10.740,66 961,01 0,00 30/09/2015
204 278900 ANA PAULA MOREIRA GURGEL ANALISTA DO MP ATIVO BELO HORIZONTE - COMARCA; SUPERINTENDENCIA DE RECURSOS HUMANOS 11.643,70 3.493,11 0,00 0,00 0,00 0,00 15.136,81 1.665,05 2.835,37 0,00 4.500,42 10.636,39 726,01 0,00 30/09/2015
205 425701 ANA PAULA ROCHA ASSESSOR/ANALISTA ATIVO BELO HORIZONTE - COMARCA; SUPERINTENDENCIA DE COMUNICACAO INTEGRADA 0,00 0,00 6.641,51 0,00 0,00 0,00 6.641,51 565,39 801,57 0,00 1.366,96 5.274,55 726,01 0,00 30/09/2015
206 395601 ANA PAULA SALGE OLIVEIRA ANALISTA DO MP ATIVO UBERABA - COMARCA; COORD REG PP TRIANGULO MINEIRO UBERABA 6.641,51 1.328,30 0,00 0,00 0,00 0,00 7.969,81 876,68 1.081,25 0,00 1.957,93 6.011,88 726,01 0,00 30/09/2015
207 473200 ANA PAULA SCOTTON BRASIL ANALISTA DO MP ATIVO JUIZ DE FORA - COMARCA; JUIZ DE FORA-PJ-09PJ 7.200,74 432,04 0,00 0,00 0,00 0,00 7.632,78 839,61 998,76 0,00 1.838,37 5.794,41 726,01 0,00 30/09/2015
208 633600 ANA PAULA SILVA FERNANDES OFICIAL DO MP ATIVO CATAGUASES - COMARCA; CATAGUASES-PJ-SECRETARIA 3.030,62 0,00 0,00 0,00 0,00 0,00 3.030,62 333,37 59,49 0,00 392,86 2.637,76 726,01 0,00 30/09/2015
209 470900 ANA PAULA VALADARES ANALISTA DO MP ATIVO PITANGUI - COMARCA; PITANGUI-PJ-01PJ 7.200,74 432,04 0,00 0,00 0,00 0,00 7.632,78 839,61 894,49 0,00 1.734,10 5.898,68 726,01 0,00 30/09/2015
210 447000 ANA PAULA VALENTIM DE ARAUJO ANALISTA DO MP ATIVO BELO HORIZONTE - COMARCA; COMB CRIMES PRAT POR AG POL MUN-SECRETARIA 7.435,23 743,52 0,00 0,00 0,00 0,00 8.178,75 899,66 1.132,39 0,00 2.032,05 6.146,70 726,01 0,00 30/09/2015
211 604200 ANA PAULA VIANA E SILVA OFICIAL DO MP ATIVO BELO HORIZONTE - COMARCA; BH-17PJ PATRIMONIO PUBLICO-SECRETARIA 3.445,03 0,00 0,00 0,00 0,00 0,00 3.445,03 378,95 105,11 0,00 484,06 2.960,97 961,01 0,00 30/09/2015
212 505400 ANA PAULA VIEIRA SOUTO OFICIAL DO MP ATIVO ALMENARA - COMARCA; COORD. PAT. PUBLICO-MUCURI/JEQUIT - ALMENARA 3.557,16 711,43 0,00 0,00 0,00 0,00 4.268,59 469,54 186,62 0,00 656,16 3.612,43 726,01 0,00 30/09/2015
213 280200 ANA RACHEL BRANDAO LADEIRA ROLAND COORDENADOR/ANALISTA ATIVO BELO HORIZONTE - COMARCA; ASSESSORIA JURIDICO-ADMINISTRATIVA 0,00 2.831,04 14.155,19 0,00 0,00 0,00 16.986,23 1.396,12 3.417,92 0,00 4.814,04 12.172,19 726,01 0,00 30/09/2015
214 601200 ANA REGINA RIBEIRO ANALISTA DO MP ATIVO BELO HORIZONTE - COMARCA; EXTINTA - DIVISAO DE SERVICOS GERAIS 4.820,91 0,00 0,00 0,00 0,00 0,00 4.820,91 530,30 329,26 0,00 859,56 3.961,35 726,01 0,00 30/09/2015
215 384700 ANA RODRIGUES PEREIRA MARRA ANALISTA DO MP ATIVO COROMANDEL - COMARCA; COROMANDEL-PJ-SECRETARIA 6.973,67 697,37 0,00 0,00 0,00 0,00 7.671,04 843,81 955,99 0,00 1.799,80 5.871,24 726,01 0,00 30/09/2015
216 232700 ANA SILVIA SEMBLANO NAKAMURA ASSESSOR/OFICIAL ATIVO BELO HORIZONTE - COMARCA; CENT DE APOIO TEC-SETOR DEF,IDOSO E INFANC 0,00 1.690,36 8.451,80 0,00 0,00 0,00 10.142,16 981,45 1.649,84 0,00 2.631,29 7.510,87 726,01 0,00 30/09/2015
217 326700 ANA TERCIA DE FATIMA COSTA OFICIAL DO MP ATIVO NOVA SERRANA - COMARCA; NOVA SERRANA-PJ-01PJ 6.432,09 1.286,42 0,00 0,00 0,00 849,04 8.567,55 849,04 1.201,09 0,00 2.050,13 6.517,42 726,01 0,00 30/09/2015
218 602100 ANACLETO FRANCISCO MARCIER PIMENTA OFICIAL DO MP ATIVO SÃO JOÃO DEL REI - COMARCA; SAO JOAO DEL REI-PJ-01PJ 3.129,28 0,00 0,00 0,00 0,00 0,00 3.129,28 344,22 23,42 0,00 367,64 2.761,64 961,01 0,00 30/09/2015
219 310400 ANADEJE DO CARMO DINIZ ARAUJO OFICIAL DO MP ATIVO BELO HORIZONTE - COMARCA; CENT DE ATENDIMENTO E ORIENTACAO DE PESSOAL 6.432,09 1.286,42 0,00 0,00 0,00 0,00 7.718,51 849,04 1.019,74 0,00 1.868,78 5.849,73 726,01 0,00 30/09/2015
220 337000 ANAILDES MARIA MENDES OFICIAL DO MP ATIVO JANAÚBA - COMARCA; JANAUBA-PJ-02PJ 5.307,28 2.236,28 0,00 0,00 0,00 0,00 7.543,56 700,56 1.012,47 0,00 1.713,03 5.830,53 961,01 0,00 30/09/2015
221 192900 ANATALIA CERQUEIRA LIMA PERES OFICIAL DO MP ATIVO UBERABA - COMARCA; COORD REG SAUDE MACROR SANIT TRIANGULO SUL 8.451,80 2.535,54 0,00 0,00 0,00 0,00 10.987,34 1.208,61 1.819,79 0,00 3.028,40 7.958,94 726,01 0,00 30/09/2015
222 377400 ANDEIRSON DA MATTA BARBOSA ANALISTA DO MP ATIVO POUSO ALEGRE - COMARCA; POUSO ALEGRE-PJ-01PJ 7.677,29 767,73 0,00 0,00 0,00 0,00 8.445,02 928,95 1.197,56 0,00 2.126,51 6.318,51 726,01 0,00 30/09/2015
223 317400 ANDERSON DA SILVA BICALHO OFICIAL DO MP ATIVO CONTAGEM - COMARCA; COORD REG DEF ORDEM ECONOMICA TRIB CONTAGEM 5.842,66 584,27 0,00 0,00 0,00 0,00 6.426,93 706,96 547,22 0,00 1.254,18 5.172,75 961,01 0,00 30/09/2015
224 506900 ANDERSON DE SOUZA DAMIANI ANALISTA DO MP ATIVO BELO HORIZONTE - COMARCA; DIRETORIA DE PAGAMENTO DE PESSOAL-DPAG 6.032,93 1.206,59 0,00 0,00 2.413,17 0,00 9.652,69 796,35 1.461,86 0,00 2.258,21 7.394,48 961,01 0,00 30/09/2015
225 410000 ANDERSON DE SOUZA NETO ASSESSOR ATIVO BELO HORIZONTE - COMARCA; DIRETORIA DE ADMINISTRACAO FINANCEIRA 0,00 0,00 4.175,17 0,00 0,00 0,00 4.175,17 513,01 351,21 0,00 864,22 3.310,95 726,01 0,00 30/09/2015
226 181900 ANDERSON FLAVIO DE OLIVEIRA OFICIAL DO MP ATIVO ITAGUARA - COMARCA; ITAGUARA-PJ-SECRETARIA 8.727,00 2.618,10 0,00 0,00 0,00 0,00 11.345,10 1.247,96 1.907,35 0,00 3.155,31 8.189,79 726,01 0,00 30/09/2015
227 119500 ANDERSON FUNGHI DE AZEVEDO ROCHA DIRETOR/OFICIAL ATIVO BELO HORIZONTE - COMARCA; SUPRIN DE PLANEJAMENTO E COORDENACAO 0,00 11.324,16 14.155,19 0,00 0,00 0,00 25.479,35 2.232,76 5.419,18 0,00 7.651,94 17.827,41 726,01 0,00 30/09/2015
228 333200 ANDERSON JOSE DE FREITAS OFICIAL DO MP ATIVO IPATINGA - COMARCA; IPATINGA-PJ-07PJ 6.432,09 2.461,24 0,00 0,00 0,00 0,00 8.893,33 849,04 1.238,55 0,00 2.087,59 6.805,74 1.172,51 0,00 30/09/2015
229 462100 ANDERSON LUIZ GUIMARAES CARDOSO ANALISTA DO MP ATIVO BARBACENA - COMARCA; BARBACENA-PJ-02PJ 7.200,74 432,04 0,00 0,00 0,00 0,00 7.632,78 839,61 998,76 0,00 1.838,37 5.794,41 726,01 0,00 30/09/2015
230 429700 ANDERSON MELO DE SOUZA OFICIAL DO MP ATIVO BELO HORIZONTE - COMARCA; DIRET DE ESTAGIOS E CONVENIOS ACADEMICOS 4.379,06 437,91 0,00 0,00 0,00 0,00 4.816,97 529,87 328,47 0,00 858,34 3.958,63 726,01 0,00 30/09/2015
231 545600 ANDERSON MENDES PROCOPIO FERREIRA ANALISTA DO MP ATIVO BELO HORIZONTE - COMARCA; BH-12PJ JUIZO CRIMINAL-GAB 089PJ 5.842,66 0,00 0,00 0,00 0,00 0,00 5.842,66 642,69 560,63 0,00 1.203,32 4.639,34 726,01 0,00 30/09/2015
232 519900 ANDERSON MOREIRA DOEHLER ANALISTA DO MP ATIVO NOVO CRUZEIRO - COMARCA; NOVO CRUZEIRO-PJ-UNPJ 6.032,93 1.206,59 0,00 0,00 0,00 0,00 7.239,52 796,35 902,51 0,00 1.698,86 5.540,66 726,01 0,00 30/09/2015
233 103000 ANDERSON TADEU DE DEUS ASSESSOR ATIVO BELO HORIZONTE - COMARCA; EXTINTA - DIVISAO DE TRANSPORTES 0,00 2.087,58 4.175,17 0,00 0,00 0,00 6.262,75 513,01 911,47 0,00 1.424,48 4.838,27 726,01 0,00 30/09/2015
234 309200 ANDITYAS SOARES DE MOURA COSTA MATOS ANALISTA DO MP ATIVO BELO HORIZONTE - COMARCA; GABINETE DE PROCURADOR DE JUSTIÇA - SALA 909 9.011,08 1.802,22 0,00 0,00 0,00 0,00 10.813,30 1.189,46 1.777,20 0,00 2.966,66 7.846,64 726,01 0,00 30/09/2015
235 613500 ANDRE AZEVEDO SOUSA ANALISTA DO MP ATIVO BELO HORIZONTE - COMARCA; CAO-CRIANCAS E ADOLESCENTES 5.307,28 0,00 0,00 0,00 0,00 0,00 5.307,28 583,80 384,00 0,00 967,80 4.339,48 726,01 0,00 30/09/2015
236 519200 ANDRE BORJA LANA ANALISTA DO MP ATIVO BELO HORIZONTE - COMARCA; DIRETORIA DE IMPRENSA 6.641,51 398,49 0,00 0,00 0,00 0,00 7.040,00 774,40 1.352,67 0,00 2.127,07 4.912,93 726,01 1.814,51 30/09/2015
237 637200 ANDRE FERNANDES DA CUNHA OFICIAL DO MP ATIVO MORADA NOVA DE MINAS - COMARCA; MORADA NOVA DE MINAS-PJ-UNPJ 3.030,62 0,00 0,00 0,00 0,00 0,00 3.030,62 333,37 59,49 0,00 392,86 2.637,76 726,01 0,00 30/09/2015
238 521900 ANDRE LUIS GOMES SILVA ANALISTA DO MP ATIVO FORMIGA - COMARCA; FORMIGA-PJ-01PJ 6.641,51 398,49 0,00 0,00 0,00 0,00 7.040,00 774,40 501,02 0,00 1.275,42 5.764,58 726,01 0,00 30/09/2015
239 637300 ANDRE LUIS TOLENTINO MOURA ANALISTA DO MP ATIVO VARZEA DA PALMA - COMARCA; VARZEA DA PALMA-PJ-02PJ 4.668,87 0,00 0,00 0,00 0,00 0,00 4.668,87 513,58 298,81 0,00 812,39 3.856,48 726,01 0,00 30/09/2015
240 304300 ANDRE LUIZ AVELAR ANALISTA DO MP ATIVO BELO HORIZONTE - COMARCA; DIRETORIA DE REDES E BANCOS DE DADOS 6.857,79 1.371,56 0,00 0,00 0,00 0,00 8.229,35 905,23 1.144,77 0,00 2.050,00 6.179,35 726,01 0,00 30/09/2015
241 397400 ANDRE PATARO MYRRHA DE PAULA E SILVA ANALISTA DO MP ATIVO BELO HORIZONTE - COMARCA; ASSESSORIA JURIDICO-ADMINISTRATIVA 8.727,00 872,70 0,00 0,00 0,00 0,00 9.599,70 1.055,97 1.480,17 0,00 2.536,14 7.063,56 961,01 0,00 30/09/2015
242 548500 ANDRE VINICIUS CARVALHO MEIRA ANALISTA DO MP ATIVO JUIZ DE FORA - COMARCA; JUIZ DE FORA-PJ-25PJ 5.307,28 0,00 0,00 0,00 0,00 0,00 5.307,28 583,80 429,60 0,00 1.013,40 4.293,88 726,01 0,00 30/09/2015
243 297200 ANDRE WILLE ROSARIO ANALISTA DO MP ATIVO BELO HORIZONTE - COMARCA; ASSESSORIA ESPECIAL DO PGJ 10.576,63 2.115,33 0,00 0,00 0,00 0,00 12.691,96 1.396,12 2.080,58 0,00 3.476,70 9.215,26 961,01 0,00 30/09/2015
244 423600 ANDREA COSTA GUALBERTO ANALISTA DO MP ATIVO GOVERNADOR VALADARES - COMARCA; COORD REG PJ DEF EDU DIR CRIANCA ADOL RIODOCE 8.451,80 4.225,90 0,00 0,00 0,00 0,00 12.677,70 1.394,55 2.181,37 0,00 3.575,92 9.101,78 726,01 0,00 30/09/2015
245 198600 ANDREA CRISTINA ANDRADE COSTA E SOUZA OFICIAL DO MP ATIVO MONTES CLAROS - COMARCA; MONTES CLAROS-PJ-SECRETARIA 9.920,24 2.976,07 0,00 0,00 0,00 0,00 12.896,31 1.418,59 2.182,74 0,00 3.601,33 9.294,98 726,01 0,00 30/09/2015
246 467300 ANDREA DE CASSIA PENNA ALVERNAZ ANALISTA DO MP ATIVO PONTE NOVA - COMARCA; PONTE NOVA-PJ-01PJ 7.200,74 432,04 0,00 0,00 0,00 0,00 7.632,78 839,61 946,62 0,00 1.786,23 5.846,55 726,01 0,00 30/09/2015
247 308000 ANDREA DE CASSIA SANTOS OLIVEIRA ANALISTA DO MP ATIVO BELO HORIZONTE - COMARCA; ASSESS TECNICO-JUR JUNTO AS PROC. DE JUST 10.576,63 2.115,33 0,00 0,00 0,00 0,00 12.691,96 1.396,12 2.184,86 0,00 3.580,98 9.110,98 1.196,01 0,00 30/09/2015
248 349500 ANDREA DE OLIVEIRA OFICIAL DO MP ATIVO IGUATAMA - COMARCA; IGUATAMA-PJ-UNPJ 6.032,93 603,29 0,00 0,00 0,00 0,00 6.636,22 729,98 702,72 0,00 1.432,70 5.203,52 726,01 0,00 30/09/2015
249 254700 ANDREA EMISE REIS DE AZEVEDO COORDENADOR/OFICIAL ATIVO BELO HORIZONTE - COMARCA; COMB CRIMES PRAT POR AG POL MUN-SECRETARIA 0,00 1.921,48 9.607,41 0,00 0,00 0,00 11.528,89 920,52 2.047,94 0,00 2.968,46 8.560,43 726,01 0,00 30/09/2015
250 287900 ANDREA FERNANDES PENA OFICIAL DO MP ATIVO MONTES CLAROS - COMARCA; MONTES CLAROS-PJ-09PJ 6.973,67 1.394,73 0,00 0,00 0,00 0,00 8.368,40 920,52 1.074,53 0,00 1.995,05 6.373,35 726,01 0,00 30/09/2015
251 300800 ANDREA FERREIRA ANALISTA DO MP ATIVO LAVRAS - COMARCA; LAVRAS-PJ-04PJ 10.243,18 2.048,64 0,00 0,00 0,00 0,00 12.291,82 1.352,10 2.139,06 0,00 3.491,16 8.800,66 726,01 0,00 30/09/2015
252 316700 ANDREA FRANCISCA DIAS DE SOUZA ASSESSOR ATIVO BELO HORIZONTE - COMARCA; BH-14PJ DEFESA CONSUMIDOR-GAB 110PJ 0,00 0,00 2.500,62 0,00 0,00 0,00 2.500,62 354,93 75,96 0,00 430,89 2.069,73 961,01 0,00 30/09/2015
253 395100 ANDREA LANNA MENDES NOVAIS ANALISTA DO MP ATIVO BELO HORIZONTE - COMARCA; PROMOT ESTADUAL DE DEF PATRI CULT E TUR DE MG 9.011,08 901,11 0,00 0,00 0,00 0,00 9.912,19 1.090,34 1.504,51 0,00 2.594,85 7.317,34 961,01 0,00 30/09/2015
254 67300 ANDREA LEAO MAGALHAES ROQUE ASSESSOR ATIVO BELO HORIZONTE - COMARCA; COORD DE CONT. DA CONSTITUCIONALIDADE-SEC 0,00 4.225,90 8.451,80 0,00 0,00 0,00 12.677,70 513,01 2.571,31 0,00 3.084,32 9.593,38 726,01 0,00 30/09/2015
255 335700 ANDREA LOPES PEREIRA ANALISTA DO MP ATIVO GOVERNADOR VALADARES - COMARCA; COORD REG DO MA DA BACIA DO RIO DOCE 10.243,18 2.048,64 0,00 0,00 0,00 0,00 12.291,82 1.352,10 2.139,06 0,00 3.491,16 8.800,66 726,01 0,00 30/09/2015
256 389200 ANDREA TUPINI DOS SANTOS TRISTAO DA ROCHA OFICIAL DO MP ATIVO BELO HORIZONTE - COMARCA; BH-13ª PJ JUÍZO DE TÓXICOS-SECRETARIA 4.379,06 437,91 0,00 0,00 0,00 0,00 4.816,97 529,87 285,81 0,00 815,68 4.001,29 726,01 0,00 30/09/2015
257 419000 ANDREIA BARBOSA DE ALMEIDA ANALISTA DO MP ATIVO BELO HORIZONTE - COMARCA; GABINETE DE PROCURADOR DE JUSTIÇA - SALA 705 8.451,80 845,18 0,00 0,00 0,00 0,00 9.296,98 1.022,67 1.406,08 0,00 2.428,75 6.868,23 961,01 0,00 30/09/2015
258 281501 ANDREIA CARLA COSTA FILGUEIRAS ANALISTA DO MP ATIVO VISCONDE DO RIO BRANCO - COMARCA; VISCONDE DO RIO BRANCO-PJ-02PJ 8.727,00 872,70 0,00 0,00 0,00 0,00 9.599,70 1.055,97 1.375,89 0,00 2.431,86 7.167,84 726,01 0,00 30/09/2015
259 477100 ANDREIA DE ALMEIDA RIBEIRO MELO OFICIAL DO MP ATIVO CONTAGEM - COMARCA; CONTAGEM-PJ-07PJ 4.241,01 254,46 0,00 0,00 0,00 0,00 4.495,47 494,50 264,09 0,00 758,59 3.736,88 961,01 0,00 30/09/2015
260 619000 ANDREIA FERREIRA NORONHA OFICIAL DO MP ATIVO BELO HORIZONTE - COMARCA; DIRETORIA DE SERVICO CRIMINAL 3.445,03 0,00 0,00 0,00 0,00 0,00 3.445,03 378,95 105,11 0,00 484,06 2.960,97 726,01 0,00 30/09/2015
261 424000 ANDREIA LUCIA COUTO ANALISTA DO MP ATIVO BELO HORIZONTE - COMARCA; BH-18PJ DIREITOS HUMANOS 8.727,00 872,70 0,00 0,00 0,00 0,00 9.599,70 1.055,97 1.480,17 0,00 2.536,14 7.063,56 726,01 0,00 30/09/2015
262 370100 ANDREIA MARIA SILVA PINTO OFICIAL DO MP ATIVO CORONEL FABRICIANO - COMARCA; CORONEL FABRICIANO-PJ-01PJ 6.032,93 603,29 0,00 0,00 0,00 0,00 6.636,22 729,98 754,86 0,00 1.484,84 5.151,38 726,01 0,00 30/09/2015
263 382100 ANDREIA NATALI PEREIRA OFICIAL DO MP ATIVO PRADOS - COMARCA; PRADOS-PJ-UNPJ 6.032,93 603,29 0,00 0,00 0,00 0,00 6.636,22 729,98 754,86 0,00 1.484,84 5.151,38 726,01 0,00 30/09/2015
264 275200 ANDREIA RIBEIRO FREITAS OFICIAL DO MP ATIVO VIÇOSA - COMARCA; VICOSA-PJ-03PJ 6.973,67 1.394,73 0,00 0,00 0,00 0,00 8.368,40 920,52 1.126,67 0,00 2.047,19 6.321,21 961,01 0,00 30/09/2015
265 352200 ANDREIA XAVIER PEREIRA OFICIAL DO MP ATIVO CLÁUDIO - COMARCA; CLAUDIO-PJ-UNPJ 6.032,93 603,29 0,00 0,00 0,00 0,00 6.636,22 729,98 754,86 0,00 1.484,84 5.151,38 726,01 0,00 30/09/2015
266 638500 ANDRESA ALVES FEITOSA CASAGRANDE ANALISTA DO MP ATIVO PERDÕES - COMARCA; PERDOES-PJ-UNPJ 5.139,92 0,00 0,00 0,00 0,00 0,00 5.139,92 565,39 393,14 0,00 958,53 4.181,39 961,01 0,00 30/09/2015
267 383700 ANDRESSA EDUARDO SOUZA ANALISTA DO MP ATIVO OURO BRANCO - COMARCA; OURO BRANCO-PJ-SECRETARIA 8.727,00 872,70 0,00 0,00 0,00 0,00 9.599,70 1.055,97 1.480,17 0,00 2.536,14 7.063,56 961,01 0,00 30/09/2015
268 426200 ANDRESSA MENDES CASAL ASSESSOR/OFICIAL ATIVO BELO HORIZONTE - COMARCA; BH-12PJ JUIZO CRIMINAL-SECRETARIA 0,00 664,15 6.641,51 0,00 0,00 0,00 7.305,66 583,33 979,28 0,00 1.562,61 5.743,05 726,01 0,00 30/09/2015
269 390100 ANDRESSA RIBEIRO PUCCI OFICIAL DO MP ATIVO UBERABA - COMARCA; UBERABA-PJ-14PJ 5.139,92 513,99 0,00 0,00 0,00 0,00 5.653,91 621,93 514,43 0,00 1.136,36 4.517,55 726,01 0,00 30/09/2015
270 462500 ANDREZA APARECIDA COSTA E SILVA ANALISTA DO MP ATIVO CONSELHEIRO LAFAIETE - COMARCA; CONSELHEIRO LAFAIETE-PJ-02PJ 7.200,74 432,04 0,00 0,00 0,00 0,00 7.632,78 839,61 998,76 0,00 1.838,37 5.794,41 726,01 0,00 30/09/2015
271 537800 ANDREZZA LUZIA DE OLIVEIRA ALVES ANALISTA DO MP ATIVO PATOS DE MINAS - COMARCA; COORD REG PJ DEF EDU DIR CRI ADO AL PAR NOROE 5.842,66 0,00 0,00 0,00 0,00 0,00 5.842,66 642,69 456,36 0,00 1.099,05 4.743,61 726,01 0,00 30/09/2015
272 491600 ANE PATRICIA RIBEIRO ANALISTA DO MP ATIVO SETE LAGOAS - COMARCA; SETE LAGOAS-PJ-10PJ 7.200,74 432,04 0,00 0,00 2.544,26 0,00 10.177,04 839,61 1.646,30 0,00 2.485,91 7.691,13 961,01 0,00 30/09/2015
273 465800 ANELISE GAMA ASSESSOR ATIVO BELO HORIZONTE - COMARCA; BH-18PJ VIOLENCIA DOMESTICA-SECRETARIA 0,00 0,00 4.175,17 0,00 0,00 0,00 4.175,17 513,01 351,21 0,00 864,22 3.310,95 726,01 0,00 30/09/2015
274 535200 ANELIZE FERNANDA ALVES VILARINHO OFICIAL DO MP ATIVO CAPINÓPOLIS - COMARCA; CAPINOPOLIS-PJ-UNPJ 3.445,03 0,00 0,00 0,00 0,00 0,00 3.445,03 378,95 105,11 0,00 484,06 2.960,97 726,01 0,00 30/09/2015
275 197200 ANGELA COELHO SALDANHA OFICIAL DO MP ATIVO PARÁ DE MINAS - COMARCA; PARA DE MINAS-PJ-03PJ 10.243,18 3.072,95 0,00 0,00 0,00 0,00 13.316,13 1.464,77 2.389,76 0,00 3.854,53 9.461,60 726,01 0,00 30/09/2015
276 307400 ANGELA CRISTINA GONCALVES MUNIZ ANALISTA DO MP ATIVO UBERLÂNDIA - COMARCA; UBERLANDIA-PJ-SEC FAMILIA 10.576,63 3.172,99 0,00 0,00 0,00 0,00 13.749,62 1.512,46 2.443,72 0,00 3.956,18 9.793,44 961,01 0,00 30/09/2015
277 191800 ANGELA MARIA DE OLIVEIRA OFICIAL DO MP ATIVO GUARANÉSIA - COMARCA; GUARANESIA-PJ-SECRETARIA 10.243,18 4.097,27 0,00 0,00 0,00 0,00 14.340,45 1.577,45 2.588,33 0,00 4.165,78 10.174,67 726,01 0,00 30/09/2015
278 69900 ANGELA MARIA DE PAULA CUNHA OFICIAL DO MP ATIVO JUIZ DE FORA - COMARCA; JUIZ DE FORA-PJ-11PJ 10.576,63 7.403,64 0,00 0,00 0,00 0,00 17.980,27 1.977,83 3.531,31 0,00 5.509,14 12.471,13 726,01 0,00 30/09/2015
279 497400 ANGELA MARIA HENRIQUES ANALISTA DO MP ATIVO BELO HORIZONTE - COMARCA; COORD REG BACIAS RIO VELHAS E PARAOPEBA 6.032,93 361,98 0,00 0,00 0,00 0,00 6.394,91 703,44 695,79 0,00 1.399,23 4.995,68 1.196,01 0,00 30/09/2015
280 260700 ANGELICA CRISTINA AZEVEDO MOREIRA MOUCO OFICIAL DO MP ATIVO UBÁ - COMARCA; UBA-PJ-02PJ 7.200,74 1.440,15 0,00 0,00 0,00 0,00 8.640,89 950,50 1.193,36 0,00 2.143,86 6.497,03 726,01 0,00 30/09/2015
281 334600 ANGELICA PANISSA DE FREITAS OFICIAL DO MP ATIVO GUAXUPÉ - COMARCA; GUAXUPE-PJ-02PJ 6.432,09 1.286,42 0,00 0,00 0,00 0,00 7.718,51 849,04 1.019,74 0,00 1.868,78 5.849,73 726,01 0,00 30/09/2015
282 521100 ANGELICA SALES MOREIRA OFICIAL DO MP ATIVO BELO HORIZONTE - COMARCA; BH-02PJ FAMILIA-SECRETARIA 3.916,07 234,96 0,00 0,00 0,00 0,00 4.151,03 456,61 199,36 0,00 655,97 3.495,06 726,01 0,00 30/09/2015
283 466500 ANGELLO MARQUES AGRELLI ANALISTA DO MP ATIVO MAR DE ESPANHA - COMARCA; MAR DE ESPANHA-PJ-UNPJ 7.200,74 432,04 0,00 0,00 0,00 0,00 7.632,78 839,61 998,76 0,00 1.838,37 5.794,41 726,01 0,00 30/09/2015
284 363300 ANGELO VERDOLIN HENRIQUES ANALISTA DO MP ATIVO SETE LAGOAS - COMARCA; SETE LAGOAS-PJ-04PJ 9.920,24 2.976,07 0,00 0,00 0,00 0,00 12.896,31 1.418,59 2.287,01 0,00 3.705,60 9.190,71 726,01 0,00 30/09/2015
285 250900 ANISIO APARECIDO SANTOS OFICIAL DO MP ATIVO CONTAGEM - COMARCA; CONTAGEM-PJ-19PJ 4.977,82 1.493,35 0,00 0,00 0,00 0,00 6.471,17 711,83 226,84 0,00 938,67 5.532,50 726,01 0,00 30/09/2015
286 253400 ANNA FLAVIA LEHMAN BATTAGLIA ASSESSOR ESPECIAL ATIVO BELO HORIZONTE - COMARCA; GABINETE DO PROCURADOR-GERAL DE JUSTICA 20.076,03 4.015,21 0,00 0,00 0,00 0,00 24.091,24 1.536,97 5.176,65 0,00 6.713,62 17.377,62 726,01 0,00 30/09/2015
287 447600 ANNGELUCE ALCANTARA DE CAMPOS OFICIAL DO MP ATIVO DIVINÓPOLIS - COMARCA; DIVINOPOLIS-PJ-10PJ 4.043,58 404,36 0,00 0,00 0,00 0,00 4.447,94 489,27 254,57 0,00 743,84 3.704,10 726,01 0,00 30/09/2015
288 119600 ANSELMO BORGES PARREIRAS OFICIAL DO MP ATIVO BONFIM - COMARCA; BONFIM-PJ-UNPJ 5.658,41 3.960,88 0,00 0,00 0,00 0,00 9.619,29 1.058,12 1.432,82 0,00 2.490,94 7.128,35 726,01 0,00 30/09/2015
289 630300 ANTONIA GOMES RAMALHO OFICIAL DO MP ATIVO NOVO CRUZEIRO - COMARCA; NOVO CRUZEIRO-PJ-UNPJ 3.336,37 0,00 0,00 0,00 0,00 0,00 3.336,37 367,00 90,61 0,00 457,61 2.878,76 726,01 0,00 30/09/2015
290 332400 ANTONIA MARIA MAMEDE OFICIAL DO MP ATIVO UBERLÂNDIA - COMARCA; COORD REG PP TRIANGULO MINEIRO UBERLANDIA 6.641,51 1.328,30 0,00 0,00 0,00 0,00 7.969,81 876,68 1.081,25 0,00 1.957,93 6.011,88 726,01 0,00 30/09/2015
291 401600 ANTONIO CARLOS GUEDES AROUCA ANALISTA DO MP ATIVO BELO HORIZONTE - COMARCA; EXTINTA - CAO-IDOSOS PESSOAS DEFIC-SEC ADM 8.727,00 872,70 0,00 0,00 0,00 0,00 9.599,70 1.055,97 1.480,17 0,00 2.536,14 7.063,56 726,01 0,00 30/09/2015
292 7100 ANTONIO DO NASCIMENTO OLIVEIRA ASSESSOR ATIVO BELO HORIZONTE - COMARCA; GAECO - SECRETARIA 0,00 2.250,56 2.500,62 0,00 0,00 0,00 4.751,18 513,01 216,16 0,00 729,17 4.022,01 726,01 0,00 30/09/2015
293 333900 ANTONIO GONCALVES DE SOUZA FILHO OFICIAL DO MP ATIVO BELO HORIZONTE - COMARCA; DIVISAO DE MEMORIA INSTITUCIONAL 6.032,93 1.206,59 0,00 0,00 0,00 0,00 7.239,52 796,35 902,51 0,00 1.698,86 5.540,66 726,01 0,00 30/09/2015
294 176100 ANTONIO MARCELO CAMPOS CAMPANELLA OFICIAL DO MP ATIVO BELO HORIZONTE - COMARCA; SUPERINTENDENCIA DE RECURSOS HUMANOS 10.243,18 4.097,27 0,00 0,00 0,00 0,00 14.340,45 1.577,45 2.640,47 0,00 4.217,92 10.122,53 961,01 0,00 30/09/2015
295 321001 ANTONIO OLINTO VIEIRA MACHADO ANALISTA DO MP ATIVO BELO HORIZONTE - COMARCA; CENTRAL DE APOIO TECN-SETOR DE MEIO AMBIENTE 9.011,08 901,11 0,00 0,00 0,00 0,00 9.912,19 1.090,34 1.400,24 0,00 2.490,58 7.421,61 726,01 0,00 30/09/2015
296 356200 ANTONIO PAULA DA SILVA OFICIAL DO MP ATIVO JUIZ DE FORA - COMARCA; JUIZ DE FORA-PJ-20PJ 5.842,66 1.168,53 0,00 0,00 0,00 0,00 7.011,19 771,23 846,63 0,00 1.617,86 5.393,33 726,01 0,00 30/09/2015
297 119900 ANTONIO RODRIGUES DE PINHO OFICIAL DO MP ATIVO GUANHÃES - COMARCA; GUANHAES-PJ-01PJ 9.920,24 4.960,12 0,00 0,00 0,00 0,00 14.880,36 1.636,84 2.720,47 0,00 4.357,31 10.523,05 726,01 0,00 30/09/2015
298 373300 ANTONIO SERGIO ANANIAS OFICIAL DO MP ATIVO AIURUOCA - COMARCA; AIURUOCA-PJ-UNPJ 5.307,28 530,73 0,00 0,00 0,00 0,00 5.838,01 642,18 455,22 0,00 1.097,40 4.740,61 726,01 0,00 30/09/2015
299 608100 ANTONIO SIDINEY VIEIRA LEMOS ANALISTA DO MP ATIVO PIRAPORA - COMARCA; PIRAPORA-PJ-01PJ 5.307,28 1.592,18 0,00 0,00 0,00 0,00 6.899,46 758,94 819,28 0,00 1.578,22 5.321,24 726,01 0,00 30/09/2015
300 374700 ANTONIO SILVA NETO OFICIAL DO MP ATIVO BELO HORIZONTE - COMARCA; GAECO - SECRETARIA 5.480,05 548,01 0,00 0,00 0,00 0,00 6.028,06 663,09 606,01 0,00 1.269,10 4.758,96 726,01 0,00 30/09/2015
301 636700 ANTONIUS VITORIANO FERNANDES OFICIAL DO MP ATIVO BELO HORIZONTE - COMARCA; PROCON-MG 3.030,62 0,00 0,00 0,00 0,00 0,00 3.030,62 333,37 45,27 0,00 378,64 2.651,98 726,01 0,00 30/09/2015
302 413200 ANY PEREIRA SILVA ANALISTA DO MP ATIVO TRÊS PONTAS - COMARCA; TRES PONTAS-PJ-01PJ 8.185,27 818,53 0,00 0,00 0,00 0,00 9.003,80 990,42 1.230,05 0,00 2.220,47 6.783,33 726,01 0,00 30/09/2015
303 151401 APARECIDA DE FATIMA MENDES DE ALMEIDA ASSESSOR ATIVO JUIZ DE FORA - COMARCA; JUIZ DE FORA-PJ-SECRETARIA 0,00 0,00 4.175,17 0,00 0,00 0,00 4.175,17 513,01 351,21 0,00 864,22 3.310,95 726,01 0,00 30/09/2015
304 329300 APARECIDA MARIA MELO DE ASSIS OFICIAL DO MP ATIVO BELO HORIZONTE - COMARCA; BH-18PJ DIREITOS HUMANOS-SECRETARIA 6.432,09 1.286,42 0,00 0,00 0,00 0,00 7.718,51 849,04 1.019,74 0,00 1.868,78 5.849,73 726,01 0,00 30/09/2015
305 475300 APARECIDA MARLENE FREIRE ROSA ANALISTA DO MP ATIVO BELO HORIZONTE - COMARCA; BH-02PJ FAMILIA-SECRETARIA 7.200,74 5.760,59 0,00 0,00 0,00 0,00 12.961,33 1.425,75 2.302,92 0,00 3.728,67 9.232,66 726,01 0,00 30/09/2015
306 240300 APARECIDA PEREIRA DO NASCIMENTO OFICIAL DO MP ATIVO ITURAMA - COMARCA; ITURAMA-PJ-01PJ 8.451,80 4.225,90 0,00 0,00 0,00 0,00 12.677,70 1.394,55 2.233,51 0,00 3.628,06 9.049,64 744,01 0,00 30/09/2015
307 354500 APARECIDA VIEIRA DE CARVALHO OFICIAL DO MP ATIVO BELO HORIZONTE - COMARCA; PROCON-MG-SEC DE EDUCACAO PARA O CONSUMO 5.139,92 513,99 0,00 0,00 0,00 0,00 5.653,91 621,93 514,43 0,00 1.136,36 4.517,55 726,01 0,00 30/09/2015
308 551000 ARACELES BICALHO FELIX ANALISTA DO MP ATIVO MANHUAÇU - COMARCA; MANHUACU-PJ-02PJ 5.842,66 0,00 0,00 0,00 0,00 0,00 5.842,66 642,69 560,63 0,00 1.203,32 4.639,34 726,01 0,00 30/09/2015
309 286200 ARACELI MEDRADO DOS SANTOS LIMA OFICIAL DO MP ATIVO PARACATU - COMARCA; PARACATU-PJ-03PJ 4.977,82 995,56 0,00 0,00 0,00 0,00 5.973,38 657,07 592,63 0,00 1.249,70 4.723,68 726,01 0,00 30/09/2015
310 189000 ARAHY MARQUES SILVA OFICIAL DO MP ATIVO BELO HORIZONTE - COMARCA; BH-15PJ M AMB 16PJ HAB URB-SECRETARIA 4.977,82 1.493,35 0,00 0,00 0,00 0,00 6.471,17 711,83 714,46 0,00 1.426,29 5.044,88 726,01 0,00 30/09/2015
311 112200 ARAQUEM AUGUSTO DE MATOS AGENTE DO MP ATIVO BELO HORIZONTE - COMARCA; COORD ESTADUAL DE DEFESA DA EDUCACAO 4.977,82 3.484,48 0,00 0,00 0,00 0,00 8.462,30 930,85 1.045,38 0,00 1.976,23 6.486,07 961,01 0,00 30/09/2015
312 280600 ARDUINO FRATTEZI ANALISTA DO MP ATIVO BELO HORIZONTE - COMARCA; CENTRAL DE APOIO TECNICO-SETOR CONTABIL 10.576,63 2.115,33 0,00 0,00 0,00 0,00 12.691,96 1.396,12 2.237,00 0,00 3.633,12 9.058,84 726,01 0,00 30/09/2015
313 520201 ARIANE DE FATIMA CARVALHO ALMEIDA ANALISTA DO MP ATIVO BELO HORIZONTE - COMARCA; BH-18PJ VIOLENCIA DOMESTICA-SECRETARIA 5.307,28 0,00 0,00 0,00 0,00 0,00 5.307,28 583,80 384,00 0,00 967,80 4.339,48 726,01 0,00 30/09/2015
314 537600 ARIELA FREIRE MONTIJO ANALISTA DO MP ATIVO ARCOS - COMARCA; ARCOS-PJ-01PJ 5.842,66 0,00 0,00 0,00 0,00 0,00 5.842,66 642,69 508,49 0,00 1.151,18 4.691,48 726,01 0,00 30/09/2015
315 182000 ARILSON ALEXANDRE MARTINS MAGALHAES OFICIAL DO MP ATIVO JOÃO MONLEVADE - COMARCA; JOAO MONLEVADE-PJ-01PJ 9.011,08 3.604,43 0,00 0,00 0,00 0,00 12.615,51 1.387,71 2.114,01 0,00 3.501,72 9.113,79 890,62 0,00 30/09/2015
316 511000 ARISLANE CAROLINA DA SILVA ANALISTA DO MP ATIVO CAMPINA VERDE - COMARCA; CAMPINA VERDE-PJ-UNPJ 6.032,93 361,98 0,00 0,00 0,00 0,00 6.394,91 703,44 695,79 0,00 1.399,23 4.995,68 726,01 0,00 30/09/2015
317 170000 ARLEY BRITES DA SILVA ASSESSOR ATIVO BELO HORIZONTE - COMARCA; EXTINTA - DIVISÃO DE MATERIAL PERMANENTE 0,00 1.252,55 4.175,17 0,00 0,00 0,00 5.427,72 513,01 525,43 0,00 1.038,44 4.389,28 961,01 0,00 30/09/2015
318 120400 ARLINDO CASSIO DA CRUZ OFICIAL DO MP ATIVO SÃO GONÇALO DO SAPUCAÍ - COMARCA; SAO GONCALO DO SAPUCAI-PJ-01PJ 13.616,17 9.531,32 0,00 0,00 0,00 0,00 23.147,49 2.546,22 4.639,58 0,00 7.185,80 15.961,69 1.039,61 0,00 30/09/2015
319 243700 ARLINDO MARCIO LACERDA OFICIAL DO MP ATIVO CONTAGEM - COMARCA; CONTAGEM-PJ-03PJ 8.451,80 3.710,36 0,00 0,00 0,00 0,00 12.162,16 1.208,61 2.142,87 0,00 3.351,48 8.810,68 726,01 0,00 30/09/2015
320 392100 ARNALDO DE ANDRADE OFICIAL DO MP ATIVO DIVINÓPOLIS - COMARCA; DIVINOPOLIS-PJ-02PJ 6.032,93 1.778,11 0,00 0,00 0,00 0,00 7.811,04 729,98 1.077,93 0,00 1.807,91 6.003,13 726,01 0,00 30/09/2015
321 642400 ARTANE INARDE DE SIQUEIRA DAMASCENO ANALISTA DO MP ATIVO BELO HORIZONTE - COMARCA; BH-18PJ VIOLENCIA DOMESTICA 4.668,87 0,00 0,00 0,00 0,00 0,00 4.668,87 513,58 298,81 0,00 812,39 3.856,48 726,01 0,00 30/09/2015
322 352801 ARTHUR JONAS MENDONCA E ARAUJO ANALISTA DO MP ATIVO UBERABA - COMARCA; UBERABA-PJ-12PJ 7.435,23 743,52 0,00 0,00 0,00 0,00 8.178,75 899,66 1.028,12 0,00 1.927,78 6.250,97 961,01 0,00 30/09/2015
323 302100 AUGUSTO ROUSSEAU DE CASTRO ANALISTA DO MP ATIVO CATAGUASES - COMARCA; CATAGUASES-PJ-02PJ 11.643,70 2.328,74 0,00 0,00 0,00 0,00 13.972,44 1.536,97 2.550,39 0,00 4.087,36 9.885,08 726,01 0,00 30/09/2015
324 540200 AUREA AVELAR OFICIAL DO MP ATIVO FERROS - COMARCA; FERROS-PJ-UNPJ 3.445,03 0,00 0,00 0,00 0,00 0,00 3.445,03 378,95 58,72 0,00 437,67 3.007,36 726,01 0,00 30/09/2015
325 633500 AUREA GONTIJO BIRCHAL ASSESSOR ATIVO BELO HORIZONTE - COMARCA; COORD DE GABINETE DO PGJ 0,00 0,00 6.641,51 0,00 0,00 0,00 6.641,51 513,01 1.015,63 0,00 1.528,64 5.112,87 726,01 0,00 30/09/2015
326 183200 AURELIANO MAGELA DE REZENDE COORDENADOR/OFICIAL ATIVO BELO HORIZONTE - COMARCA; COORD DE GABINETE DO PGJ 9.607,41 5.066,42 0,00 0,00 0,00 0,00 14.673,83 1.373,86 2.788,13 0,00 4.161,99 10.511,84 726,01 0,00 30/09/2015
327 629400 AYESKA DA COSTA VAL MOURA DABIEN OFICIAL DO MP ATIVO BELO HORIZONTE - COMARCA; BH-18PJ VIOLENCIA DOMESTICA-SECRETARIA 3.336,37 0,00 0,00 0,00 0,00 0,00 3.336,37 367,00 90,61 0,00 457,61 2.878,76 726,01 0,00 30/09/2015
328 546500 BARBARA ZACARONI GOULART OFICIAL DO MP ATIVO BETIM - COMARCA; BETIM-PJ-08PJ 3.445,03 0,00 0,00 0,00 0,00 0,00 3.445,03 378,95 105,11 0,00 484,06 2.960,97 726,01 0,00 30/09/2015
329 316500 BEATRIZ ABILVIA DA SILVA ANALISTA DO MP ATIVO GOVERNADOR VALADARES - COMARCA; GOVERNADOR VALADARES-PJ-07PJ 10.576,63 2.115,33 0,00 0,00 0,00 0,00 12.691,96 1.396,12 2.184,86 0,00 3.580,98 9.110,98 726,01 0,00 30/09/2015
330 311800 BEATRIZ APARECIDA SOARES GANEM OFICIAL DO MP ATIVO ITAMBACURI - COMARCA; ITAMBACURI-PJ-02PJ 6.857,79 2.057,34 0,00 0,00 0,00 0,00 8.915,13 980,66 1.156,21 0,00 2.136,87 6.778,26 726,01 0,00 30/09/2015
331 266800 BEATRIZ AUGUSTA VILACA GOMES DA SILVA OFICIAL DO MP ATIVO BELO HORIZONTE - COMARCA; BH-05PJ-JUÍZO SUCESSÕES-SEC 6.032,93 1.206,59 0,00 0,00 0,00 0,00 7.239,52 796,35 902,51 0,00 1.698,86 5.540,66 726,01 0,00 30/09/2015
332 235200 BEATRIZ BOTELHO BATISTA OFICIAL DO MP ATIVO BELO HORIZONTE - COMARCA; BH-21PJ TUTELA FUNDACOES-SECRETARIA 6.973,67 2.092,10 0,00 0,00 0,00 0,00 9.065,77 997,23 1.349,49 0,00 2.346,72 6.719,05 726,01 0,00 30/09/2015
333 113500 BEATRIZ DE LOURDES SOUZA ASSESSOR ATIVO BELO HORIZONTE - COMARCA; BH-02PJ FAMILIA-PROM DEC PAT 0,00 4.649,06 6.641,51 0,00 0,00 0,00 11.290,57 513,01 1.697,16 0,00 2.210,17 9.080,40 726,01 0,00 30/09/2015
334 182300 BEATRIZ PAULA SOUSA RAMOS OFICIAL DO MP ATIVO MARIANA - COMARCA; MARIANA-PJ-01PJ 9.011,08 3.604,43 0,00 0,00 0,00 0,00 12.615,51 1.387,71 2.114,01 0,00 3.501,72 9.113,79 726,01 0,00 30/09/2015
335 507000 BELCHIOR FRANKLIN AMARAL LEITE ANALISTA DO MP ATIVO BELO HORIZONTE - COMARCA; CENTRAL DE APOIO TECNICO 6.641,51 398,49 0,00 0,00 0,00 0,00 7.040,00 774,40 697,27 0,00 1.471,67 5.568,33 961,01 0,00 30/09/2015
336 345100 BENITO ELIAS RODRIGUES ANALISTA DO MP ATIVO BARBACENA - COMARCA; BARBACENA-PJ-SECRETARIA 10.243,18 1.024,32 0,00 0,00 0,00 0,00 11.267,50 1.239,43 1.888,36 0,00 3.127,79 8.139,71 726,01 0,00 30/09/2015
337 207300 BENITO VIEIRA DOS SANTOS ANALISTA DO MP ATIVO BELO HORIZONTE - COMARCA; COMB CRIMES PRAT POR AG POL MUN-ASSESSORIA 14.715,61 4.414,68 0,00 0,00 0,00 2.104,33 21.234,62 2.104,33 3.062,64 0,00 5.166,97 16.067,65 726,01 0,00 30/09/2015
338 480200 BERNADETE NUNES DOS SANTOS ANALISTA DO MP ATIVO GUANHÃES - COMARCA; GUANHAES-PJ-02PJ 7.200,74 1.440,15 0,00 0,00 0,00 0,00 8.640,89 950,50 1.245,50 0,00 2.196,00 6.444,89 726,01 0,00 30/09/2015
339 378400 BETANIA FARNESI DE SOUZA E SILVA OFICIAL DO MP ATIVO SETE LAGOAS - COMARCA; SETE LAGOAS-PJ-03PJ 5.480,05 1.644,02 0,00 0,00 0,00 0,00 7.124,07 783,65 822,12 0,00 1.605,77 5.518,30 961,01 0,00 30/09/2015
340 387400 BETANIA MENDONCA DE ASSIS ANALISTA DO MP ATIVO BELO HORIZONTE - COMARCA; BH-08PJ JUIZADO ESPECIAL-SECRETARIA 8.727,00 872,70 0,00 0,00 0,00 0,00 9.599,70 1.055,97 1.480,17 0,00 2.536,14 7.063,56 726,01 0,00 30/09/2015
341 450300 BIANCA OLIVEIRA DE ALBUQUERQUE ANALISTA DO MP ATIVO BELO HORIZONTE - COMARCA; BH-10PJ EXECUÇÃO PENAL-SECRETARIA 7.435,23 743,52 0,00 0,00 0,00 0,00 8.178,75 899,66 1.132,39 0,00 2.032,05 6.146,70 961,01 0,00 30/09/2015
342 535400 BIANCA SALOTO ROSSI ANALISTA DO MP ATIVO SANTOS DUMONT - COMARCA; SANTOS DUMONT-PJ-01PJ 5.842,66 0,00 0,00 0,00 0,00 0,00 5.842,66 642,69 560,63 0,00 1.203,32 4.639,34 726,01 0,00 30/09/2015
343 120800 BRAS MARQUES DE SOUZA ANALISTA DO MP ATIVO BELO HORIZONTE - COMARCA; EXTINTA - SUPERINTENDENCIA ADMINISTRATIVA-SAD 19.311,46 13.518,03 0,00 0,00 0,00 0,00 32.829,49 3.351,82 6.432,03 2.358,38 12.142,23 20.687,26 726,01 0,00 30/09/2015
344 460900 BRENO CRISTIANO DE SOUZA REZENDE ANALISTA DO MP ATIVO ITAÚNA - COMARCA; ITAUNA-PJ-02PJ 6.032,93 361,98 0,00 0,00 0,00 0,00 6.394,91 703,44 695,79 0,00 1.399,23 4.995,68 726,01 0,00 30/09/2015
345 239000 BRENO VENANCIO ROMANINI OFICIAL DO MP ATIVO BELO HORIZONTE - COMARCA; BH-20PJ ORD ECON TRIBUTARIA-SECRETARIA 6.432,09 1.286,42 0,00 0,00 0,00 0,00 7.718,51 849,04 1.019,74 0,00 1.868,78 5.849,73 726,01 0,00 30/09/2015
346 202201 BRIGITTE AMARALINA CALDAS MEDEIROS OFICIAL DO MP ATIVO NANUQUE - COMARCA; NANUQUE-PJ-01PJ 7.677,29 2.303,19 0,00 0,00 0,00 0,00 9.980,48 1.097,85 1.364,81 0,00 2.462,66 7.517,82 726,01 0,00 30/09/2015
347 642300 BRUNA IZABELITA DE FATIMA OLIVEIRA COSTA OFICIAL DO MP ATIVO PIUMHI - COMARCA; PIUMHI-PJ-02PJ 3.030,62 0,00 0,00 0,00 0,00 0,00 3.030,62 555,61 375,34 0,00 930,95 2.099,67 1.254,02 2.020,42 30/09/2015
348 513600 BRUNA KARLA MARTINS CARVALHO ANALISTA DO MP ATIVO GOVERNADOR VALADARES - COMARCA; GOVERNADOR VALADARES-PJ-01PJ 6.032,93 361,98 0,00 0,00 0,00 0,00 6.394,91 703,44 695,79 0,00 1.399,23 4.995,68 726,01 0,00 30/09/2015
349 415100 BRUNA MARIA SOARES OLIVEIRA COSTA RAMOS ANALISTA DO MP ATIVO UBÁ - COMARCA; COORD REG BACIA DO RIO PARAIBA DO SUL 8.727,00 872,70 0,00 0,00 0,00 0,00 9.599,70 1.055,97 1.480,17 0,00 2.536,14 7.063,56 726,01 0,00 30/09/2015
350 470000 BRUNA MORAES MARQUES ANALISTA DO MP ATIVO TOMBOS - COMARCA; TOMBOS-PJ-UNPJ 7.200,74 432,04 0,00 0,00 0,00 0,00 7.632,78 839,61 790,21 0,00 1.629,82 6.002,96 961,01 0,00 30/09/2015
351 614700 BRUNA NATTANY DE LIMA OFICIAL DO MP ATIVO MANTENA - COMARCA; MANTENA-PJ-02PJ 3.445,03 0,00 0,00 0,00 0,00 0,00 3.445,03 378,95 105,11 0,00 484,06 2.960,97 726,01 0,00 30/09/2015
352 631800 BRUNA RAPOSO JORGE OFICIAL DO MP ATIVO JUIZ DE FORA - COMARCA; JUIZ DE FORA-PJ-19PJ 3.336,37 0,00 0,00 0,00 0,00 0,00 3.336,37 367,00 90,61 0,00 457,61 2.878,76 726,01 0,00 30/09/2015
353 463800 BRUNO ALVES TEIXEIRA ANALISTA DO MP ATIVO UBERLÂNDIA - COMARCA; UBERLANDIA-PJ-04PJ 7.200,74 432,04 0,00 0,00 0,00 0,00 7.632,78 839,61 998,76 0,00 1.838,37 5.794,41 726,01 0,00 30/09/2015
354 538500 BRUNO AUGUSTO DA SILVA OFICIAL DO MP ATIVO SANTA LUZIA - COMARCA; SANTA LUZIA-PJ-03PJ 3.445,03 0,00 0,00 0,00 0,00 0,00 3.445,03 378,95 105,11 0,00 484,06 2.960,97 726,01 0,00 30/09/2015
355 318200 BRUNO BARROS DE SOUZA OFICIAL DO MP ATIVO UBÁ - COMARCA; UBA-PJ-04PJ 6.432,09 1.286,42 0,00 0,00 0,00 0,00 7.718,51 849,04 620,75 0,00 1.469,79 6.248,72 726,01 0,00 30/09/2015
356 459600 BRUNO CASTELAR LUGAO MENDES OFICIAL DO MP ATIVO GOVERNADOR VALADARES - COMARCA; GOVERNADOR VALADARES-PJ-05PJ 5.139,92 308,40 0,00 0,00 0,00 0,00 5.448,32 599,32 464,12 0,00 1.063,44 4.384,88 726,01 0,00 30/09/2015
357 427400 BRUNO CESAR RIBEIRO DE PAIVA ANALISTA DO MP ATIVO BELO HORIZONTE - COMARCA; ASSESS JUR DO CONS SUPERIOR DO MINISTERIO PUB 8.727,00 872,70 0,00 0,00 0,00 0,00 9.599,70 1.055,97 1.480,17 0,00 2.536,14 7.063,56 726,01 0,00 30/09/2015
358 380900 BRUNO CIRILO ANTUNES OFICIAL DO MP ATIVO VARGINHA - COMARCA; VARGINHA-PJ-05PJ 5.139,92 1.688,81 0,00 0,00 0,00 0,00 6.828,73 621,93 837,51 0,00 1.459,44 5.369,29 726,01 0,00 30/09/2015
359 329000 BRUNO DE MELO REIS ANALISTA DO MP ATIVO PATROCÍNIO - COMARCA; PATROCINIO-PJ-02PJ 10.243,18 2.048,64 0,00 0,00 0,00 0,00 12.291,82 1.352,10 2.086,93 0,00 3.439,03 8.852,79 726,01 0,00 30/09/2015
360 601700 BRUNO DIAS JUNQUEIRA PEREIRA ANALISTA DO MP ATIVO BELO HORIZONTE - COMARCA; ASSESS TECNICO-JUR JUNTO AS PROC. DE JUST 5.307,28 0,00 0,00 0,00 0,00 0,00 5.307,28 583,80 429,60 0,00 1.013,40 4.293,88 726,01 0,00 30/09/2015
361 378300 BRUNO HERDY LOPES DE OLIVEIRA ANALISTA DO MP ATIVO MANTENA - COMARCA; MANTENA-PJ-SECRETARIA 8.727,00 872,70 0,00 0,00 0,00 0,00 9.599,70 1.055,97 1.480,17 0,00 2.536,14 7.063,56 726,01 0,00 30/09/2015
362 529700 BRUNO JOSE BUENO DIAS OFICIAL DO MP ATIVO SÃO SEBASTIÃO DO PARAÍSO - COMARCA; SAO SEBASTIAO DO PARAISO-PJ-02PJ 3.792,57 0,00 0,00 0,00 0,00 0,00 3.792,57 417,18 123,07 0,00 540,25 3.252,32 961,01 0,00 30/09/2015
363 350100 BRUNO LAUD SERRANO DOS REIS OFICIAL DO MP ATIVO UBÁ - COMARCA; UBA-PJ-03PJ 5.480,05 1.096,01 0,00 0,00 0,00 0,00 6.576,06 723,37 687,99 0,00 1.411,36 5.164,70 961,01 0,00 30/09/2015
364 373800 BRUNO MARTINO DE ALBUQUERQUE ANALISTA DO MP ATIVO PONTE NOVA - COMARCA; PONTE NOVA-PJ-03PJ 8.727,00 872,70 0,00 0,00 0,00 0,00 9.599,70 1.055,97 1.375,89 0,00 2.431,86 7.167,84 961,01 0,00 30/09/2015
365 470400 BRUNO NOVAIS CABRAL ANALISTA DO MP ATIVO MUTUM - COMARCA; MUTUM-PJ-UNPJ 7.200,74 432,04 0,00 0,00 0,00 0,00 7.632,78 839,61 998,76 0,00 1.838,37 5.794,41 726,01 0,00 30/09/2015
366 369200 BRUNO ROBERTO DIAS DE OLIVEIRA OFICIAL DO MP ATIVO BELO HORIZONTE - COMARCA; BH-22PJ PES COM DEF E IDOSOS 6.229,29 622,93 0,00 0,00 0,00 0,00 6.852,22 753,74 807,72 0,00 1.561,46 5.290,76 726,01 0,00 30/09/2015
367 547700 BRUNO ROBERTO SOUZA GONCALVES ANALISTA DO MP ATIVO PARACATU - COMARCA; PARACATU-PJ-03PJ 5.842,66 0,00 0,00 0,00 0,00 0,00 5.842,66 642,69 560,63 0,00 1.203,32 4.639,34 726,01 0,00 30/09/2015
368 546100 BRUNO SA VIEIRA ANALISTA DO MP ATIVO ERVÁLIA - COMARCA; ERVALIA-PJ-UNPJ 5.842,66 0,00 0,00 0,00 0,00 0,00 5.842,66 642,69 560,63 0,00 1.203,32 4.639,34 726,01 0,00 30/09/2015
369 438200 BRUNO SALES PEREIRA ANALISTA DO MP ATIVO BELO HORIZONTE - COMARCA; CENTRAL DE APOIO TECNICO-SETOR CONTABIL 7.435,23 743,52 0,00 0,00 0,00 0,00 8.178,75 899,66 1.080,25 0,00 1.979,91 6.198,84 961,01 0,00 30/09/2015
370 537400 BRUNO SANT'ANA CESAR ANALISTA DO MP ATIVO CONTAGEM - COMARCA; CONTAGEM-PJ-09PJ 5.842,66 0,00 0,00 0,00 0,00 0,00 5.842,66 642,69 560,63 0,00 1.203,32 4.639,34 726,01 0,00 30/09/2015
371 405800 CAIO FERNANDO RODRIGUES DE OLIVEIRA ANALISTA DO MP ATIVO BELO HORIZONTE - COMARCA; ASSESS TECNICO-JUR JUNTO AS PROC. DE JUST 8.727,00 872,70 0,00 0,00 0,00 0,00 9.599,70 1.055,97 1.480,17 0,00 2.536,14 7.063,56 726,01 0,00 30/09/2015
372 530000 CAIO GUEDES DE OLIVEIRA ANALISTA DO MP ATIVO DIAMANTINA - COMARCA; DIAMANTINA-PJ-03PJ 5.842,66 0,00 0,00 0,00 0,00 0,00 5.842,66 642,69 508,49 0,00 1.151,18 4.691,48 961,01 0,00 30/09/2015
373 491400 CAIO MIRANDA JUNQUEIRA ANALISTA DO MP ATIVO BUENO BRANDAO - COMARCA; BUENO BRANDAO-PJ-UNPJ 6.641,51 398,49 0,00 0,00 0,00 0,00 7.040,00 774,40 801,54 0,00 1.575,94 5.464,06 961,01 0,00 30/09/2015
374 415800 CAMILA ALVES DA SILVA ANALISTA DO MP ATIVO CAETÉ - COMARCA; CAETE-PJ-01PJ 8.451,80 845,18 0,00 0,00 0,00 0,00 9.296,98 1.022,67 1.406,08 0,00 2.428,75 6.868,23 726,01 0,00 30/09/2015
375 555800 CAMILA CAROLINE ROCHA CHAVES OFICIAL DO MP ATIVO SALINAS - COMARCA; SALINAS-PJ-01PJ 3.792,57 0,00 0,00 0,00 0,00 0,00 3.792,57 417,18 151,51 0,00 568,69 3.223,88 726,01 0,00 30/09/2015
376 445200 CAMILA CONDE ROCHA ANALISTA DO MP ATIVO CONTAGEM - COMARCA; CONTAGEM-PJ-08PJ 7.435,23 743,52 0,00 0,00 0,00 0,00 8.178,75 899,66 1.132,39 0,00 2.032,05 6.146,70 726,01 0,00 30/09/2015
377 419900 CAMILA CUNNINGHAM PIMENTA DE PADUA ANALISTA DO MP ATIVO BELO HORIZONTE - COMARCA; ASSESSORIA PSICOSSOCIAL 8.727,00 872,70 0,00 0,00 0,00 0,00 9.599,70 1.055,97 1.480,17 0,00 2.536,14 7.063,56 726,01 0,00 30/09/2015
378 507700 CAMILA ELIZABETH RODRIGUES ANALISTA DO MP ATIVO BELO HORIZONTE - COMARCA; BH-02PJ FAMILIA-SECRETARIA 6.641,51 398,49 0,00 0,00 0,00 0,00 7.040,00 774,40 853,68 0,00 1.628,08 5.411,92 726,01 0,00 30/09/2015
379 372700 CAMILA FONSECA LIMONGE ANALISTA DO MP ATIVO BETIM - COMARCA; BETIM-PJ-12PJ 8.727,00 872,70 0,00 0,00 0,00 0,00 9.599,70 1.055,97 1.480,17 0,00 2.536,14 7.063,56 726,01 0,00 30/09/2015
380 621300 CAMILA GOLFETO DE SOUSA VALENTE OFICIAL DO MP ATIVO ESPERA FELIZ - COMARCA; ESPERA FELIZ-PJ-UNPJ 3.030,62 0,00 0,00 0,00 0,00 0,00 3.030,62 333,37 31,06 0,00 364,43 2.666,19 1.196,01 0,00 30/09/2015
381 409800 CAMILA GONCALVES COSTA RIBEIRO ANALISTA DO MP ATIVO INHAPIM - COMARCA; INHAPIM-PJ-02PJ 8.185,27 818,53 0,00 0,00 0,00 0,00 9.003,80 990,42 1.282,18 0,00 2.272,60 6.731,20 961,01 0,00 30/09/2015
382 335000 CAMILA GONTIJO DE PAIVA ANALISTA DO MP ATIVO BELO HORIZONTE - COMARCA; COORD DE CONTROLE DA CONSTITUCIONALIDADE 9.920,24 1.984,05 0,00 0,00 0,00 0,00 11.904,29 1.309,47 1.939,94 0,00 3.249,41 8.654,88 961,01 0,00 30/09/2015
383 547800 CAMILA MATTARELLI DE ABREU E SILVA ANALISTA DO MP ATIVO BELO HORIZONTE - COMARCA; COORD DE INCLUSAO E MOBILIZACAO SOCIAIS 5.307,28 0,00 0,00 0,00 0,00 0,00 5.307,28 583,80 429,60 0,00 1.013,40 4.293,88 726,01 0,00 30/09/2015
384 430000 CANDIDA MARINA COSTA ANALISTA DO MP ATIVO BELO HORIZONTE - COMARCA; DIVISAO DE DOCUMENTACAO JURIDICA 8.451,80 845,18 0,00 0,00 0,00 0,00 9.296,98 1.022,67 1.406,08 0,00 2.428,75 6.868,23 726,01 0,00 30/09/2015
385 614300 CARINA CORTIELHA OFICIAL DO MP ATIVO BELO HORIZONTE - COMARCA; BH-23PJ CIVEL-SEC EXP CIVEIS 3.129,28 0,00 0,00 0,00 0,00 0,00 3.129,28 344,22 66,08 0,00 410,30 2.718,98 726,01 0,00 30/09/2015
386 380400 CARINA DIAS FACANHA DE SOUZA ANALISTA DO MP ATIVO SANTA RITA DO SAPUCAÍ - COMARCA; SANTA RITA DO SAPUCAI-PJ-SECRETARIA 8.727,00 872,70 0,00 0,00 0,00 0,00 9.599,70 1.055,97 1.480,17 0,00 2.536,14 7.063,56 961,01 0,00 30/09/2015
387 255000 CARLA ADRIANA DE MENEZES OFICIAL DO MP ATIVO BELO HORIZONTE - COMARCA; CENT DE APOIO TEC-SETOR DEF,IDOSO E INFANC 6.973,67 1.394,73 0,00 0,00 0,00 0,00 8.368,40 920,52 1.178,81 0,00 2.099,33 6.269,07 726,01 0,00 30/09/2015
388 425100 CARLA ADRIANA DINIZ AMARAL OFICIAL DO MP ATIVO CONTAGEM - COMARCA; CONTAGEM-PJ-08PJ 5.480,05 548,01 0,00 0,00 0,00 0,00 6.028,06 663,09 553,87 0,00 1.216,96 4.811,10 726,01 0,00 30/09/2015
389 508100 CARLA ALESSANDRA FONSECA ANALISTA DO MP ATIVO BELO HORIZONTE - COMARCA; CAO-ORDEM ECONOMICA E TRIBUTARIA-SECRETARIA 6.641,51 398,49 0,00 0,00 0,00 0,00 7.040,00 814,23 942,30 0,00 1.756,53 5.283,47 726,01 362,10 30/09/2015
390 607100 CARLA ANGELICA DIAS MIRANDA OFICIAL DO MP ATIVO JABOTICATUBAS - COMARCA; JABOTICATUBAS-PJ-UNPJ 3.445,03 0,00 0,00 0,00 0,00 0,00 3.445,03 378,95 44,50 0,00 423,45 3.021,58 961,01 0,00 30/09/2015
391 351500 CARLA APARECIDA MENDES RAMIRIO OFICIAL DO MP ATIVO PASSOS - COMARCA; PASSOS-PJ-01PJ 6.032,93 603,29 0,00 0,00 0,00 0,00 6.636,22 729,98 702,72 0,00 1.432,70 5.203,52 961,01 0,00 30/09/2015
392 206200 CARLA BORGES DA COSTA COORDENADOR/ANALISTA ATIVO BELO HORIZONTE - COMARCA; DIRETORIA DE PROJETOS DE EDIFICACOES 14.715,61 8.070,44 0,00 0,00 0,00 0,00 22.786,05 2.266,20 4.773,60 0,00 7.039,80 15.746,25 726,01 0,00 30/09/2015
393 442800 CARLA GONCALVES COSTA SOALHEIRO ANALISTA DO MP ATIVO GOVERNADOR VALADARES - COMARCA; GOVERNADOR VALADARES-PJ-11PJ 7.250,88 743,52 0,00 0,00 0,00 0,00 7.994,40 899,66 1.029,56 0,00 1.929,22 6.065,18 961,01 0,00 30/09/2015
394 321500 CARLA GONCALVES MASSOTE OFICIAL DO MP ATIVO CAMPO BELO - COMARCA; CAMPO BELO-PJ-01PJ 6.432,09 1.286,42 0,00 0,00 0,00 0,00 7.718,51 849,04 1.019,74 0,00 1.868,78 5.849,73 726,01 0,00 30/09/2015
395 429200 CARLA HAUTEQUESTT BECHARA ANALISTA DO MP ATIVO BELO HORIZONTE - COMARCA; DIVISAO DE DOCUMENTACAO JURIDICA 8.451,80 845,18 0,00 0,00 0,00 0,00 9.296,98 1.022,67 1.406,08 0,00 2.428,75 6.868,23 726,01 0,00 30/09/2015
396 247500 CARLA MATILDE GUIMARAES DE OLIVEIRA OFICIAL DO MP ATIVO ITAJUBA - COMARCA; ITAJUBA-PJ-05PJ 7.435,23 2.230,57 0,00 0,00 0,00 0,00 9.665,80 1.063,24 1.444,21 0,00 2.507,45 7.158,35 726,01 0,00 30/09/2015
397 226100 CARLA MERLI DA CONCEICAO ANALISTA DO MP ATIVO BELO HORIZONTE - COMARCA; CENTRAL DE APOIO TECNICO-SETOR CONTABIL 13.097,56 2.619,51 0,00 0,00 0,00 0,00 15.717,07 1.728,88 2.977,39 0,00 4.706,27 11.010,80 726,01 0,00 30/09/2015
398 181401 CARLO MICHEL GAUDENSI COELHO ANALISTA DO MP ATIVO BELO HORIZONTE - COMARCA; BH-08PJ JUIZADO ESPECIAL-SECRETARIA 8.451,80 2.535,54 0,00 0,00 0,00 0,00 10.987,34 1.208,61 1.819,79 0,00 3.028,40 7.958,94 726,01 0,00 30/09/2015
399 634000 CARLOS ALBERTO AMORMINO TRIGUEIRO ANALISTA DO MP ATIVO BELO HORIZONTE - COMARCA; DIRET DE APOIO AS PROCURADORIAS DE JUSTICA 4.668,87 0,00 0,00 0,00 0,00 0,00 4.668,87 513,58 256,15 0,00 769,73 3.899,14 961,01 0,00 30/09/2015
400 637900 CARLOS ALBERTO DE MOURA OFICIAL DO MP ATIVO SETE LAGOAS - COMARCA; SETE LAGOAS-PJ-05PJ 3.030,62 0,00 0,00 0,00 0,00 0,00 3.030,62 333,37 45,27 0,00 378,64 2.651,98 961,01 0,00 30/09/2015
401 638700 CARLOS ALBERTO FERREIRA BRAGA ANALISTA DO MP ATIVO RIBEIRÃO DAS NEVES - COMARCA; RIBEIRAO DAS NEVES-PJ-11PJ 4.668,87 0,00 0,00 0,00 0,00 0,00 4.668,87 513,58 213,49 0,00 727,07 3.941,80 726,01 0,00 30/09/2015
402 375801 CARLOS ALBERTO ROCHA ANALISTA DO MP ATIVO ELOI MENDES - COMARCA; ELOI MENDES-PJ-SECRETARIA 6.432,09 0,00 0,00 0,00 0,00 0,00 6.432,09 707,53 704,89 0,00 1.412,42 5.019,67 726,01 0,00 30/09/2015
403 462800 CARLOS ANDREI SOARES FAGUNDES ANALISTA DO MP ATIVO MONTES CLAROS - COMARCA; MONTES CLAROS-PJ-09PJ 7.200,74 432,04 0,00 0,00 0,00 0,00 7.632,78 839,61 946,62 0,00 1.786,23 5.846,55 961,01 0,00 30/09/2015
404 370300 CARLOS AUGUSTO BUENO DIAS ASSESSOR ATIVO BELO HORIZONTE - COMARCA; SUPERINTENDÊNCIA DE ENGENHARIA E ARQUITETURA 0,00 0,00 8.451,80 0,00 0,00 0,00 8.451,80 513,01 966,90 0,00 1.479,91 6.971,89 726,01 0,00 30/09/2015
405 505100 CARLOS CEZAR CARVALHO ANALISTA DO MP ATIVO RIBEIRÃO DAS NEVES - COMARCA; RIBEIRAO DAS NEVES-PJ-04PJ 6.032,93 1.809,88 0,00 0,00 2.614,27 0,00 10.457,08 862,71 1.664,82 0,00 2.527,53 7.929,55 726,01 0,00 30/09/2015
406 195900 CARLOS DE SOUZA FERREIRA OFICIAL DO MP ATIVO COROMANDEL - COMARCA; COROMANDEL-PJ-UNPJ 8.185,27 5.729,69 0,00 0,00 0,00 0,00 13.914,96 1.530,65 2.484,19 0,00 4.014,84 9.900,12 726,01 0,00 30/09/2015
407 196800 CARLOS EDUARDO DE OLIVEIRA MARINHO OFICIAL DO MP ATIVO ALPINÓPOLIS - COMARCA; ALPINOPOLIS-PJ-UNPJ 9.920,24 4.960,12 0,00 0,00 0,00 0,00 14.880,36 1.636,84 2.720,47 0,00 4.357,31 10.523,05 961,01 0,00 30/09/2015
408 491800 CARLOS EDUARDO ROMAN OFICIAL DO MP ATIVO BARBACENA - COMARCA; BARBACENA-PJ-09PJ 4.668,87 466,89 0,00 0,00 0,00 0,00 5.135,76 564,93 392,31 0,00 957,24 4.178,52 726,01 0,00 30/09/2015
409 299300 CARLOS HENRIQUE BICALHO ANALISTA DO MP ATIVO BELO HORIZONTE - COMARCA; BH-17PJ PATRIMONIO PUBLICO-SECRETARIA 10.576,63 3.172,99 0,00 0,00 0,00 0,00 13.749,62 1.512,46 2.495,86 0,00 4.008,32 9.741,30 726,01 0,00 30/09/2015
410 205100 CARLOS HENRIQUE ESTEVES OFICIAL DO MP ATIVO ITAMBACURI - COMARCA; ITAMBACURI-PJ-01PJ 10.243,18 3.072,95 0,00 0,00 0,00 0,00 13.316,13 1.464,77 2.337,63 0,00 3.802,40 9.513,73 726,01 0,00 30/09/2015
411 351600 CARLOS HENRIQUE FELICIO DA FONSECA OFICIAL DO MP ATIVO LIMA DUARTE - COMARCA; LIMA DUARTE-PJ-UNPJ 6.032,93 1.206,59 0,00 0,00 0,00 0,00 7.239,52 796,35 850,37 0,00 1.646,72 5.592,80 726,01 0,00 30/09/2015
412 85400 CARLOS JOSE VIEIRA OFICIAL DO MP ATIVO BELO HORIZONTE - COMARCA; DIRETORIA DO COLEGIO E DA CAMARA DE PJ 19.311,46 13.518,02 0,00 0,00 0,00 0,00 32.829,48 3.351,82 6.588,44 2.358,37 12.298,63 20.530,85 726,01 0,00 30/09/2015
413 229100 CARLOS MERCES DE OLIVEIRA ANALISTA DO MP ATIVO BELO HORIZONTE - COMARCA; CENTRAL DE APOIO TECN-SETOR DE MEIO AMBIENTE 12.414,13 3.724,24 0,00 0,00 0,00 0,00 16.138,37 1.775,22 2.323,44 0,00 4.098,66 12.039,71 726,01 0,00 30/09/2015
414 538300 CARLOS RANGEL SILVA DE MELO ANALISTA DO MP ATIVO BELO HORIZONTE - COMARCA; DIVISAO DE CONTROLE IMOBILIARIO 5.307,28 1.061,46 0,00 0,00 0,00 0,00 6.368,74 700,56 689,39 0,00 1.389,95 4.978,79 726,01 0,00 30/09/2015
415 265100 CARLOS REIFF MIRANDA ANALISTA DO MP ATIVO BELO HORIZONTE - COMARCA; BH-19PJ SAUDE-SECRETARIA 150PJ 10.576,63 2.115,33 0,00 0,00 0,00 0,00 12.691,96 1.396,12 2.237,00 0,00 3.633,12 9.058,84 726,01 0,00 30/09/2015
416 305400 CARLOS ROCHA DE SOUZA OFICIAL DO MP ATIVO MONTALVÂNIA - COMARCA; MONTALVANIA-PJ-SECRETARIA 4.977,82 995,56 0,00 0,00 0,00 0,00 5.973,38 657,07 389,41 0,00 1.046,48 4.926,90 1.343,72 0,00 30/09/2015
417 365100 CARLOS WAGNER SANDER MORAIS COORDENADOR/OFICIAL ATIVO BELO HORIZONTE - COMARCA; DIRETORIA DE ADMINISTRACAO FINANCEIRA 0,00 1.092,10 10.921,00 0,00 0,00 0,00 12.013,10 729,98 2.233,50 0,00 2.963,48 9.049,62 726,01 0,00 30/09/2015
418 399900 CARMELITA EVANGELISTA DE SOUZA OFICIAL DO MP ATIVO JOÃO PINHEIRO - COMARCA; JOAO PINHEIRO-PJ-01PJ 5.658,41 565,84 0,00 0,00 0,00 0,00 6.224,25 684,67 654,02 0,00 1.338,69 4.885,56 726,01 0,00 30/09/2015
419 390400 CARMEM APARECIDA ANTUNES RESENDE OFICIAL DO MP ATIVO IGARAPÉ - COMARCA; IGARAPE-PJ-SECRETARIA 5.480,05 4.932,05 0,00 0,00 0,00 1.145,33 11.557,43 1.145,33 1.941,83 0,00 3.087,16 8.470,27 726,01 0,00 30/09/2015
420 202000 CARMEN LUCIA MARIZ DE MACEDO OFICIAL DO MP ATIVO BELO HORIZONTE - COMARCA; COORD COMB REPRES TRAFICO ILICITO ENTORPECEN 9.920,24 4.960,12 0,00 0,00 0,00 0,00 14.880,36 1.636,84 2.668,33 0,00 4.305,17 10.575,19 4.788,82 372,42 30/09/2015
421 228500 CAROLINA CHIARELLA DOS SANTOS RIBEIRO OFICIAL DO MP ATIVO BELO HORIZONTE - COMARCA; BH-13ª PJ JUÍXO DE TÓXICOS 5.307,28 1.061,46 0,00 0,00 0,00 0,00 6.368,74 700,56 585,12 0,00 1.285,68 5.083,06 961,01 0,00 30/09/2015
422 446500 CAROLINA COSTA VAL RODRIGUES ANALISTA DO MP ATIVO CONTAGEM - COMARCA; CONTAGEM-PJ-05PJ 8.451,80 845,18 0,00 0,00 0,00 0,00 9.296,98 1.022,67 1.406,08 0,00 2.428,75 6.868,23 726,01 0,00 30/09/2015
423 603501 CAROLINA DOMINGOS BRANDAO ANALISTA DO MP ATIVO CARATINGA - COMARCA; CARATINGA-PJ-03PJ 4.820,91 0,00 0,00 0,00 0,00 0,00 4.820,91 530,30 329,26 0,00 859,56 3.961,35 726,01 0,00 30/09/2015
424 404300 CAROLINA DOS SANTOS VIEIRA ANALISTA DO MP ATIVO BELO HORIZONTE - COMARCA; BH-08PJ JUIZADO ESPECIAL-SECRETARIA 8.727,00 872,70 0,00 0,00 0,00 0,00 9.599,70 1.055,97 1.375,89 0,00 2.431,86 7.167,84 961,01 0,00 30/09/2015
425 551200 CAROLINA LOPES ARANTES MASCARENHAS ANALISTA DO MP ATIVO BELO HORIZONTE - COMARCA; EXTINTA - COORD DEFESA DO DIREITO DE FAMILIA 5.842,66 0,00 0,00 0,00 0,00 0,00 5.842,66 642,69 508,49 0,00 1.151,18 4.691,48 961,01 0,00 30/09/2015
426 622600 CAROLINA LOREDO LOPES OFICIAL DO MP ATIVO RIBEIRÃO DAS NEVES - COMARCA; RIBEIRAO DAS NEVES-PJ-12PJ 3.030,62 0,00 0,00 0,00 0,00 0,00 3.030,62 333,37 59,49 0,00 392,86 2.637,76 726,01 0,00 30/09/2015
427 382200 CAROLINA MENDES CHAVES LIN ANALISTA DO MP ATIVO BELO HORIZONTE - COMARCA; SUPERINTENDENCIA DE RECURSOS HUMANOS 6.973,67 697,37 0,00 0,00 0,00 0,00 7.671,04 843,81 955,99 0,00 1.799,80 5.871,24 0,00 0,00 30/09/2015
428 461900 CAROLINA MURTA TEIXEIRA DIAS ANALISTA DO MP ATIVO BELO HORIZONTE - COMARCA; DIRET DE FORMACAO, APERFEIC. E POS-GRADUACAO 7.200,74 432,04 0,00 0,00 0,00 0,00 7.632,78 839,61 998,76 0,00 1.838,37 5.794,41 726,01 0,00 30/09/2015
429 509600 CAROLINA PINTO DE OLIVEIRA SOUZA ANALISTA DO MP ATIVO MURIAÉ - COMARCA; MURIAE-PJ-01PJ 6.641,51 398,49 0,00 0,00 0,00 0,00 7.040,00 774,40 801,54 0,00 1.575,94 5.464,06 1.196,01 0,00 30/09/2015
430 629100 CAROLINA RODRIGUES AMARAL ANALISTA DO MP ATIVO BELO HORIZONTE - COMARCA; PROC. JUSTICA DIR. DIFUSOS E COLETIVOS-SEC 5.139,92 0,00 0,00 0,00 0,00 0,00 5.139,92 565,39 393,14 0,00 958,53 4.181,39 726,01 0,00 30/09/2015
431 502600 CAROLINA RODRIGUES RUBEN ANALISTA DO MP ATIVO BELO HORIZONTE - COMARCA; EXTINTA-DEF DIREIT HUM-COMB A VIOL DOMEST-18 6.641,51 398,49 0,00 0,00 0,00 0,00 7.040,00 774,40 853,68 0,00 1.628,08 5.411,92 726,01 0,00 30/09/2015
432 529600 CAROLINA VAZ DE MELO MAMBRINI ANALISTA DO MP ATIVO MINAS NOVAS - COMARCA; MINAS NOVAS-PJ-UNPJ 5.842,66 0,00 0,00 0,00 0,00 0,00 5.842,66 642,69 560,63 0,00 1.203,32 4.639,34 726,01 0,00 30/09/2015
433 619100 CAROLINA ZAKHIA NARDELLI RODRIGUES ANALISTA DO MP ATIVO NEPOMUCENO - COMARCA; NEPOMUCENO-PJ-UNPJ 5.307,28 0,00 0,00 0,00 0,00 0,00 5.307,28 583,80 429,60 0,00 1.013,40 4.293,88 726,01 0,00 30/09/2015
434 517600 CAROLINE ALVES DE OLIVEIRA MULLER ANALISTA DO MP ATIVO VISCONDE DO RIO BRANCO - COMARCA; VISCONDE DO RIO BRANCO-PJ-01PJ 6.641,51 398,49 0,00 0,00 0,00 0,00 7.040,00 774,40 801,54 0,00 1.575,94 5.464,06 1.196,01 0,00 30/09/2015
435 373200 CAROLINE ANTUNES RIBEIRO OFICIAL DO MP ATIVO JACUI - COMARCA; JACUI-PJ-UNPJ 6.032,93 603,29 0,00 0,00 0,00 0,00 6.636,22 729,98 598,44 0,00 1.328,42 5.307,80 726,01 0,00 30/09/2015
436 556800 CAROLINE DE SOUZA CARDOSO OFICIAL DO MP ATIVO BRASÍLIA DE MINAS - COMARCA; BRASILIA DE MINAS-PJ-02PJ 3.445,03 0,00 0,00 0,00 0,00 0,00 3.445,03 378,95 105,11 0,00 484,06 2.960,97 726,01 0,00 30/09/2015
437 499400 CAROLINE MARQUES DE LOURDES MARZULLO OFICIAL DO MP ATIVO JUIZ DE FORA - COMARCA; JUIZ DE FORA-PJ-20PJ 4.241,01 254,46 0,00 0,00 0,00 0,00 4.495,47 494,50 264,09 0,00 758,59 3.736,88 1.196,01 0,00 30/09/2015
438 616800 CAROLINE MONTEIRO DE BARROS ANALISTA DO MP ATIVO CONTAGEM - COMARCA; CONTAGEM-PJ-11PJ 5.307,28 0,00 0,00 0,00 0,00 0,00 5.307,28 583,80 429,60 0,00 1.013,40 4.293,88 726,01 0,00 30/09/2015
439 618100 CAROLINE VASCONCELOS COSTA LANZA ANALISTA DO MP ATIVO PARAOPEBA - COMARCA; PARAOPEBA-PJ-UNPJ 5.307,28 0,00 0,00 0,00 0,00 0,00 5.307,28 583,80 429,60 0,00 1.013,40 4.293,88 961,01 0,00 30/09/2015
440 604000 CASSIA APARECIDA DA SILVA OFICIAL DO MP ATIVO CANÁPOLIS - COMARCA; CANAPOLIS-PJ-UNPJ 3.129,28 0,00 0,00 0,00 0,00 0,00 3.129,28 344,22 66,08 0,00 410,30 2.718,98 726,01 0,00 30/09/2015
441 268800 CASSIA BEATRIZ TEIXEIRA OFICIAL DO MP ATIVO BELO HORIZONTE - COMARCA; COMB CRIMES PRAT POR AG POL MUN-SECRETARIA 6.973,67 1.394,73 0,00 0,00 0,00 0,00 8.368,40 920,52 1.178,81 0,00 2.099,33 6.269,07 726,01 0,00 30/09/2015
442 500000 CASSIA DE OLIVEIRA COSTA VIANA ANALISTA DO MP ATIVO SETE LAGOAS - COMARCA; SETE LAGOAS-PJ-09PJ 6.641,51 1.992,45 0,00 0,00 0,00 0,00 8.633,96 949,74 1.243,80 0,00 2.193,54 6.440,42 726,01 0,00 30/09/2015
443 368800 CASSIA LUISA BATISTA MENDONCA WEBER OFICIAL DO MP ATIVO BELO HORIZONTE - COMARCA; PROCON-MG-SEC DE EDUCACAO PARA O CONSUMO 5.139,92 513,99 0,00 0,00 0,00 0,00 5.653,91 621,93 514,43 0,00 1.136,36 4.517,55 961,01 0,00 30/09/2015
444 622200 CASSIA VAZ DE AZEVEDO LISBOA MARZANO ASSESSOR ATIVO BELO HORIZONTE - COMARCA; CGMP-SECRETARIA DA CORREGEDORIA-GERAL DO MP 0,00 0,00 2.500,62 0,00 0,00 0,00 2.500,62 446,62 37,26 0,00 483,88 2.016,74 961,01 0,00 30/09/2015
445 121000 CASSIO HENRIQUE AFONSO DA SILVA COORDENADOR/OFICIAL ATIVO BELO HORIZONTE - COMARCA; DIR ANALISES TECNOLOGIA INTELIGENCIA 11.643,70 8.442,89 0,00 0,00 0,00 0,00 20.086,59 1.921,21 4.021,85 0,00 5.943,06 14.143,53 961,01 0,00 30/09/2015
446 121100 CASSIO MOREIRA DE MIRANDA AGENTE DO MP ATIVO BELO HORIZONTE - COMARCA; PROCON-MG-SECRETARIA DE FISCALIZACOES 3.557,16 3.664,84 0,00 0,00 0,00 0,00 7.222,00 665,19 257,29 0,00 922,48 6.299,52 726,01 0,00 30/09/2015
447 512001 CATARINA NATALINO CALIXTO ASSESSOR/ANALISTA ATIVO BELO HORIZONTE - COMARCA; EXTINTA - DIVISÃO DE APOIO À LICITAÇÃO 0,00 0,00 6.641,51 0,00 0,00 0,00 6.641,51 565,39 801,57 0,00 1.366,96 5.274,55 726,01 0,00 30/09/2015
448 606200 CATARINE DE SIQUEIRA DE QUADROS ANALISTA DO MP ATIVO RIBEIRÃO DAS NEVES - COMARCA; RIBEIRAO DAS NEVES-PJ-09PJ 4.820,91 0,00 0,00 0,00 0,00 0,00 4.820,91 530,30 286,60 0,00 816,90 4.004,01 961,01 0,00 30/09/2015
449 71800 CATIA EFIGENIA CARNEIRO DE FREITAS OFICIAL DO MP ATIVO BELO HORIZONTE - COMARCA; ASSESSORIA JURIDICO-ADMINISTRATIVA 22.253,01 15.577,10 0,00 0,00 0,00 3.351,82 41.181,93 3.351,82 7.458,06 7.359,00 18.168,88 23.013,05 726,01 0,00 30/09/2015
450 622300 CECILIA APARECIDA PEREIRA ASSUNCAO OFICIAL DO MP ATIVO TRÊS PONTAS - COMARCA; TRES PONTAS-PJ-SECRETARIA 3.336,37 0,00 0,00 0,00 0,00 0,00 3.336,37 367,00 90,61 0,00 457,61 2.878,76 726,01 0,00 30/09/2015
451 538000 CECILIA FONTES DE MATOS PIMENTEL ANALISTA DO MP ATIVO PALMA - COMARCA; PALMA-PJ-SECRETARIA 5.842,66 0,00 0,00 0,00 0,00 0,00 5.842,66 642,69 560,63 0,00 1.203,32 4.639,34 961,01 0,00 30/09/2015
452 261300 CECILIO ANTONIO CAMPOS DOS REIS ANALISTA DO MP ATIVO BELO HORIZONTE - COMARCA; AUDITORIA INTERNA 11.643,70 2.328,74 0,00 0,00 4.657,48 0,00 18.629,92 1.536,97 3.831,20 0,00 5.368,17 13.261,75 4.788,82 372,42 30/09/2015
453 386400 CEFAS AMORELI DE FIGUEIREDO OFICIAL DO MP ATIVO CABO VERDE - COMARCA; CABO VERDE-PJ-SECRETARIA 4.521,68 452,17 0,00 0,00 0,00 0,00 4.973,85 547,12 359,88 0,00 907,00 4.066,85 726,01 0,00 30/09/2015
454 149000 CELIA MAGALHAES CLAROS SOSSI OFICIAL DO MP ATIVO GOVERNADOR VALADARES - COMARCA; GOVERNADOR VALADARES-PJ-01PJ 10.576,63 5.288,31 0,00 0,00 0,00 0,00 15.864,94 1.745,14 3.013,59 0,00 4.758,73 11.106,21 726,01 0,00 30/09/2015
455 113100 CELIA MARIA ALVES PINTO OFICIAL DO MP ATIVO BELO HORIZONTE - COMARCA; PROCON-MG-SEC DE EDUCACAO PARA O CONSUMO 7.677,29 5.374,11 0,00 0,00 0,00 1.435,65 14.487,05 1.435,65 2.719,78 0,00 4.155,43 10.331,62 726,01 0,00 30/09/2015
456 421000 CELINA BENEDITA DE SOUZA ALMEIDA OFICIAL DO MP ATIVO CAMBUÍ - COMARCA; CAMBUI-PJ-01PJ 5.480,05 2.740,03 0,00 0,00 0,00 0,00 8.220,08 904,21 1.090,37 0,00 1.994,58 6.225,50 726,01 0,00 30/09/2015
457 252900 CELIO DE MELO CASTOR ANALISTA DO MP ATIVO BELO HORIZONTE - COMARCA; BH-20PJ ORD ECON TRIBUTARIA-SECRETARIA 11.643,70 2.328,74 0,00 0,00 0,00 0,00 13.972,44 1.536,97 2.498,26 0,00 4.035,23 9.937,21 726,01 0,00 30/09/2015
458 395700 CELIO FERREIRA LIMA OFICIAL DO MP ATIVO CONTAGEM - COMARCA; CONTAGEM-PJ-07PJ 5.139,92 513,99 0,00 0,00 0,00 0,00 5.653,91 621,93 462,30 0,00 1.084,23 4.569,68 961,01 0,00 30/09/2015
459 281300 CELMA REGINA PEREIRA SANTOS ANALISTA DO MP ATIVO BELO HORIZONTE - COMARCA; DIVISAO DE DOCUMENTACAO JURIDICA 11.643,70 2.328,74 0,00 0,00 0,00 0,00 13.972,44 1.536,97 2.550,39 0,00 4.087,36 9.885,08 726,01 0,00 30/09/2015
460 535600 CELSO MEDEIROS DE PAIVA OFICIAL DO MP ATIVO RIO PRETO - COMARCA; RIO PRETO-PJ-SECRETARIA 3.445,03 0,00 0,00 0,00 0,00 0,00 3.445,03 378,95 76,67 0,00 455,62 2.989,41 726,01 0,00 30/09/2015
461 367000 CESAR NARVAES DE AVELAR COORDENADOR/OFICIAL ATIVO BELO HORIZONTE - COMARCA; DIVISAO DE MEMORIA INSTITUCIONAL 0,00 960,74 9.607,41 0,00 0,00 0,00 10.568,15 753,74 1.829,60 0,00 2.583,34 7.984,81 726,01 0,00 30/09/2015
462 226500 CESAR SILVEIRA BARROUIN OFICIAL DO MP ATIVO BELO HORIZONTE - COMARCA; DIRETORIA DE ADMINISTRACAO FINANCEIRA 8.451,80 2.535,54 0,00 0,00 0,00 0,00 10.987,34 1.208,61 1.819,79 0,00 3.028,40 7.958,94 726,01 0,00 30/09/2015
463 121400 CEZAR MORENO CONCEICAO TAVARES OFICIAL DO MP ATIVO BELO HORIZONTE - COMARCA; COORD DE INCLUSAO E MOBILIZACAO SOCIAIS 10.243,18 5.121,59 0,00 0,00 0,00 0,00 15.364,77 1.690,12 2.891,17 0,00 4.581,29 10.783,48 726,01 0,00 30/09/2015
464 243800 CHARLES MARTINS MUNIZ OFICIAL DO MP ATIVO BELO HORIZONTE - COMARCA; LAB TECNOLOGIA CONTRA LAVAGEM DINHEIRO 8.451,80 2.535,54 0,00 0,00 0,00 0,00 10.987,34 1.208,61 1.819,79 0,00 3.028,40 7.958,94 726,01 0,00 30/09/2015
465 193500 CHARLIN CESAR KOURLY OFICIAL DO MP ATIVO UBERLÂNDIA - COMARCA; UBERLANDIA-PJ-10PJ 9.920,24 2.976,07 0,00 0,00 0,00 0,00 12.896,31 1.418,59 2.287,01 0,00 3.705,60 9.190,71 726,01 0,00 30/09/2015
466 385500 CHILLEN PEIXOTO DE MOURA OFICIAL DO MP ATIVO BELO HORIZONTE - COMARCA; BH-14PJ DEFESA CONSUMIDOR-GAB 112PJ 5.658,41 565,84 0,00 0,00 0,00 0,00 6.224,25 684,67 654,02 0,00 1.338,69 4.885,56 726,01 0,00 30/09/2015
467 534500 CHRISTIAN DOUGLAS BRITO RUAS OFICIAL DO MP ATIVO SÃO JOÃO DA PONTE - COMARCA; SAO JOAO DA PONTE-PJ-SECRETARIA 3.445,03 0,00 0,00 0,00 0,00 0,00 3.445,03 378,95 105,11 0,00 484,06 2.960,97 866,81 0,00 30/09/2015
468 370600 CHRISTIAN KARINE FELIX PRATES ASSESSOR ATIVO BELO HORIZONTE - COMARCA; ASSESS ESPECIAL DO PGJ ATUACAO JUNTO A PGJAI 0,00 0,00 8.451,80 0,00 0,00 0,00 8.451,80 513,01 1.513,46 0,00 2.026,47 6.425,33 961,01 0,00 30/09/2015
469 435800 CHRISTIANA BAHIA ANDRADE PINA ANALISTA DO MP ATIVO BELO HORIZONTE - COMARCA; LAB TECNOLOGIA CONTRA LAVAGEM DINHEIRO 8.451,80 845,18 0,00 0,00 0,00 0,00 9.296,98 1.022,67 1.406,08 0,00 2.428,75 6.868,23 961,01 0,00 30/09/2015
470 516800 CHRISTIANE FERREIRA DO NASCIMENTO ANALISTA DO MP ATIVO ESTRELA DO SUL - COMARCA; ESTRELA DO SUL-PJ-UNPJ 6.032,93 361,98 0,00 0,00 0,00 0,00 6.394,91 703,44 695,79 0,00 1.399,23 4.995,68 726,01 0,00 30/09/2015
471 176000 CHRISTIANE JUNQUEIRA PULITI ANDRADE DE BARROS ASSESSOR ATIVO BELO HORIZONTE - COMARCA; GABINETE DO PROCURADOR-GERAL DE JUSTICA 0,00 9.908,64 14.155,19 0,00 0,00 0,00 24.063,83 2.647,02 4.968,13 0,00 7.615,15 16.448,68 4.788,82 372,42 30/09/2015
472 319200 CHRISTIANE MARIA DE ASSIS RUSSO OFICIAL DO MP ATIVO BELO HORIZONTE - COMARCA; CAO-ORDEM ECONOMICA E TRIBUTARIA-SECRETARIA 6.432,09 1.286,42 0,00 0,00 0,00 0,00 7.718,51 849,04 967,61 0,00 1.816,65 5.901,86 961,01 0,00 30/09/2015
473 510300 CHRISTIANE MARY DE CARVALHO FERREIRA ANALISTA DO MP ATIVO BELO HORIZONTE - COMARCA; DIRETORIA DE SISTEMAS DE INFORMACAO 6.032,93 361,98 0,00 0,00 0,00 0,00 6.394,91 703,44 643,66 0,00 1.347,10 5.047,81 961,01 0,00 30/09/2015
474 424900 CHRISTIANE PEREIRA TURNER DE ARAUJO OFICIAL DO MP ATIVO BELO HORIZONTE - COMARCA; CAO-PATRIMONIO PUBLICO 5.307,28 530,73 0,00 0,00 0,00 0,00 5.838,01 642,18 507,36 0,00 1.149,54 4.688,47 961,01 0,00 30/09/2015
475 513700 CHRISTIANE VIEIRA SOARES PEDERSOLI ANALISTA DO MP ATIVO BELO HORIZONTE - COMARCA; PROCON-MG-GAB DO COORDENADOR DO PROCON-MG 6.600,72 398,49 0,00 0,00 0,00 0,00 6.999,21 774,40 842,46 0,00 1.616,86 5.382,35 726,01 0,00 30/09/2015
476 412300 CHRYSTIAN MACHADO RIBEIRO ANALISTA DO MP ATIVO VARGINHA - COMARCA; VARGINHA-PJ-04PJ 8.727,00 872,70 0,00 0,00 0,00 0,00 9.599,70 1.055,97 1.480,17 0,00 2.536,14 7.063,56 726,01 0,00 30/09/2015
477 513800 CHRYSTIANE DO NASCIMENTO DE MAGALHAES OFICIAL DO MP ATIVO UBERLÂNDIA - COMARCA; UBERLANDIA-PJ-10PJ 4.241,01 254,46 0,00 0,00 0,00 0,00 4.495,47 494,50 188,47 0,00 682,97 3.812,50 1.384,01 0,00 30/09/2015
478 497900 CIBELE DE FREITAS SANCHES DIAS ANALISTA DO MP ATIVO SABARÁ - COMARCA; SABARA-PJ-03PJ 6.032,93 361,98 0,00 0,00 0,00 0,00 6.394,91 703,44 695,79 0,00 1.399,23 4.995,68 726,01 0,00 30/09/2015
479 500900 CIBELLE SILVA PRADO ALVARENGA ANALISTA DO MP ATIVO ITANHANDU - COMARCA; ITANHANDU-PJ-UNPJ 6.641,51 398,49 0,00 0,00 0,00 0,00 7.040,00 774,40 853,68 0,00 1.628,08 5.411,92 726,01 0,00 30/09/2015
480 629800 CINIRA DE ASSIS SILVA ANALISTA DO MP ATIVO TIMÓTEO - COMARCA; TIMOTEO-PJ-02PJ 4.668,87 0,00 0,00 0,00 0,00 0,00 4.668,87 513,58 298,81 0,00 812,39 3.856,48 726,01 0,00 30/09/2015
481 296400 CINTIA APARECIDA MOREIRA NAVES E RODRIGUES ANALISTA DO MP ATIVO CAMPO BELO - COMARCA; CAMPO BELO-PJ-02PJ 10.576,63 2.115,33 0,00 0,00 0,00 0,00 12.691,96 1.396,12 2.237,00 0,00 3.633,12 9.058,84 961,01 0,00 30/09/2015
482 407900 CINTIA NETO COMELLI ANALISTA DO MP ATIVO BELO HORIZONTE - COMARCA; CENTRAL DE APOIO TECNICO-SETOR CONTABIL 8.727,00 872,70 0,00 0,00 3.199,90 0,00 12.799,60 1.055,97 2.360,14 0,00 3.416,11 9.383,49 726,01 0,00 30/09/2015
483 304700 CINTIA QUEIROZ OFICIAL DO MP ATIVO BELO HORIZONTE - COMARCA; DIR GESTAO SISTEMAS ATIVIDADE-FIM 6.857,79 1.371,56 0,00 0,00 0,00 0,00 8.229,35 905,23 1.144,77 0,00 2.050,00 6.179,35 726,01 0,00 30/09/2015
484 286100 CIRO CANGUSSU CORDEIRO OFICIAL DO MP ATIVO IPATINGA - COMARCA; IPATINGA-PJ-09PJ 4.977,82 995,56 0,00 0,00 0,00 0,00 5.973,38 657,07 540,49 0,00 1.197,56 4.775,82 726,01 0,00 30/09/2015
485 412500 CLARICE GOMES MAROTTA ANALISTA DO MP ATIVO BELO HORIZONTE - COMARCA; ASSESS TECNICO-JUR JUNTO AS PROC. DE JUST 8.451,80 1.690,36 0,00 0,00 0,00 0,00 10.142,16 1.115,64 1.612,93 0,00 2.728,57 7.413,59 726,01 0,00 30/09/2015
486 605300 CLARISSA AZEVEDO ROCHA OFICIAL DO MP ATIVO BELO HORIZONTE - COMARCA; EXTINTA - DIVISÃO DE COMPRAS 3.445,03 0,00 0,00 0,00 0,00 0,00 3.445,03 378,95 105,11 0,00 484,06 2.960,97 726,01 0,00 30/09/2015
487 308100 CLARISSA DUARTE MARTINS DIRETOR/ANALISTA ATIVO BELO HORIZONTE - COMARCA; SUPERINTENDENCIA DE RECURSOS HUMANOS 0,00 2.831,04 14.155,19 0,00 0,00 0,00 16.986,23 1.396,12 3.365,78 0,00 4.761,90 12.224,33 726,01 0,00 30/09/2015
488 497100 CLARISSA ROCHA GUIDI ANALISTA DO MP ATIVO BELO HORIZONTE - COMARCA; EXTINTA - JUIZO DE FAMILIA-02 PJ-02 VARA 6.641,51 398,49 0,00 0,00 0,00 0,00 7.040,00 774,40 853,68 0,00 1.628,08 5.411,92 726,01 0,00 30/09/2015
489 641800 CLARISSE TAVARES GONCALVES OFICIAL DO MP ATIVO BELO HORIZONTE - COMARCA; BH-07PJ 01 TRIBUNAL DO JURI 3.030,62 0,00 0,00 0,00 0,00 0,00 3.030,62 333,37 59,49 0,00 392,86 2.637,76 726,01 0,00 30/09/2015
490 463700 CLAUDIA ADRIANA FERRAO DIAS ANALISTA DO MP ATIVO SETE LAGOAS - COMARCA; SETE LAGOAS-PJ-06PJ 7.200,74 432,04 0,00 0,00 0,00 0,00 7.632,78 839,61 894,49 0,00 1.734,10 5.898,68 726,01 0,00 30/09/2015
491 415400 CLAUDIA ALMEIDA DE VASCONCELLOS BARROS ASSESSOR/OFICIAL ATIVO BELO HORIZONTE - COMARCA; DIRET DE PESSOAL DO MINISTERIO PUBLICO - DPMP 0,00 845,18 8.451,80 0,00 0,00 0,00 9.296,98 1.022,67 1.406,08 0,00 2.428,75 6.868,23 726,01 0,00 30/09/2015
492 389600 CLAUDIA ALVES PERDOMO ASSESSOR ATIVO BELO HORIZONTE - COMARCA; PROCON-MG-GAB DO COORDENADOR DO PROCON-MG 0,00 0,00 8.451,80 0,00 0,00 0,00 8.451,80 513,01 1.513,46 0,00 2.026,47 6.425,33 726,01 0,00 30/09/2015
493 207000 CLAUDIA APARECIDA VILELA MACHADO ANALISTA DO MP ATIVO BELO HORIZONTE - COMARCA; CENTRAL DE APOIO TECNICO-SETOR CONTABIL 13.616,17 4.084,85 0,00 0,00 0,00 0,00 17.701,02 1.947,11 3.410,83 0,00 5.357,94 12.343,08 961,01 0,00 30/09/2015
494 365700 CLAUDIA BREGUEZ CUNHA ANALISTA DO MP ATIVO VARGINHA - COMARCA; VARGINHA-PJ-07PJ 9.746,16 992,02 0,00 0,00 0,00 0,00 10.738,18 1.200,35 1.753,54 0,00 2.953,89 7.784,29 726,01 0,00 30/09/2015
495 430500 CLAUDIA CECILIA SANTANA VENCESLAU COORDENADOR/OFICIAL ATIVO BELO HORIZONTE - COMARCA; DIRET DE DESENV DE RECURSOS HUMANOS-DDRH 0,00 1.092,10 10.921,00 0,00 0,00 0,00 12.013,10 642,18 2.205,51 0,00 2.847,69 9.165,41 961,01 0,00 30/09/2015
496 112400 CLAUDIA CRISTINA FIUZA DE AVELAR AGENTE DO MP ATIVO BELO HORIZONTE - COMARCA; SERVICO MEDICO-DEPTO PERIC MEDICA SAUDE OCUP 6.857,79 3.428,90 0,00 0,00 0,00 0,00 10.286,69 1.131,54 1.648,31 0,00 2.779,85 7.506,84 726,01 0,00 30/09/2015
497 149400 CLAUDIA DINIZ OFICIAL DO MP ATIVO BELO HORIZONTE - COMARCA; BH-09PJ AUDITORIA MILITAR-SECRETARIA 12.598,78 6.299,39 0,00 0,00 0,00 0,00 18.898,17 2.078,80 3.755,97 0,00 5.834,77 13.063,40 726,01 0,00 30/09/2015
498 480400 CLAUDIA GOULART DE SOUZA OFICIAL DO MP ATIVO PASSOS - COMARCA; PASSOS-PJ-06PJ 5.139,92 513,99 0,00 0,00 0,00 0,00 5.653,91 621,93 514,43 0,00 1.136,36 4.517,55 726,01 0,00 30/09/2015
499 519800 CLAUDIA HELENA CORREA DE ALMEIDA ANALISTA DO MP ATIVO BELO HORIZONTE - COMARCA; BH-12PJ JUIZO CRIMINAL-GAB 090PJ 6.641,51 398,49 0,00 0,00 0,00 0,00 7.040,00 774,40 853,68 0,00 1.628,08 5.411,92 726,01 0,00 30/09/2015
500 422100 CLAUDIA IACOMINI CABRAL ANALISTA DO MP ATIVO BELO HORIZONTE - COMARCA; CENT DE APOIO TEC-SETOR DEF,IDOSO E INFANC 8.451,80 4.225,90 0,00 0,00 0,00 0,00 12.677,70 1.394,55 2.233,51 0,00 3.628,06 9.049,64 726,01 0,00 30/09/2015
501 258200 CLAUDIA LAGE MICHALAROS ANALISTA DO MP ATIVO BELO HORIZONTE - COMARCA; CENTRAL DE APOIO TECN-SETOR DE MEIO AMBIENTE 11.643,70 5.821,85 0,00 0,00 0,00 0,00 17.465,55 1.921,21 3.353,20 0,00 5.274,41 12.191,14 726,01 0,00 30/09/2015
502 284600 CLAUDIA LENI DE ABREU OFICIAL DO MP ATIVO CONTAGEM - COMARCA; CONTAGEM-PJ-22PJ 4.977,82 1.493,35 0,00 0,00 0,00 0,00 6.471,17 711,83 714,46 0,00 1.426,29 5.044,88 726,01 0,00 30/09/2015
503 433600 CLAUDIA LUIZA SANTIAGO FELICIO ANALISTA DO MP ATIVO BELO HORIZONTE - COMARCA; CAO-SAUDE-TECNICO JURIDICO 8.451,80 845,18 0,00 0,00 0,00 0,00 9.296,98 1.022,67 1.301,80 0,00 2.324,47 6.972,51 961,01 0,00 30/09/2015
504 317000 CLAUDIA MACHADO ALVES OFICIAL DO MP ATIVO BELO HORIZONTE - COMARCA; SUPRIN DE PLANEJAMENTO E COORDENACAO 5.307,28 1.061,46 0,00 0,00 0,00 0,00 6.368,74 700,56 689,39 0,00 1.389,95 4.978,79 726,01 0,00 30/09/2015
505 155300 CLAUDIA MACIEL MIRANDA OFICIAL DO MP ATIVO CONGONHAS - COMARCA; CONGONHAS-PJ-02PJ 10.243,18 4.097,27 0,00 0,00 0,00 0,00 14.340,45 1.577,45 2.536,19 0,00 4.113,64 10.226,81 726,01 0,00 30/09/2015
506 242200 CLAUDIA MICHELLE DIAS MUNIZ BALEEIRO OFICIAL DO MP ATIVO MONTE AZUL - COMARCA; MONTE AZUL-PJ-SECRETARIA 7.200,74 2.160,22 0,00 0,00 0,00 0,00 9.360,96 1.029,71 1.317,46 0,00 2.347,17 7.013,79 726,01 0,00 30/09/2015
507 623000 CLAUDIA PATRICIA SILVA RODRIGUES RAPOSEIRAS OFICIAL DO MP ATIVO BELO HORIZONTE - COMARCA; DIVISÃO DE EDUCAÇÃO PARA O CONSUMO 3.030,62 0,00 0,00 0,00 0,00 0,00 3.030,62 333,37 45,27 0,00 378,64 2.651,98 726,01 0,00 30/09/2015
508 418400 CLAUDIA REGINA MARTINS BONIFACIO OFICIAL DO MP ATIVO ITUIUTABA - COMARCA; ITUIUTABA-PJ-06PJ 5.480,05 548,01 0,00 0,00 0,00 0,00 6.028,06 663,09 501,73 0,00 1.164,82 4.863,24 726,01 0,00 30/09/2015
509 498300 CLAUDIA SOUTO FARIAS BRAUN OFICIAL DO MP ATIVO TEÓFILO OTONI - COMARCA; TEOFILO OTONI-PJ-SECRETARIA 3.916,07 234,96 0,00 0,00 0,00 0,00 4.151,03 456,61 114,05 0,00 570,66 3.580,37 726,01 0,00 30/09/2015
510 206500 CLAUDIA VALERIA FONSECA ANDRADE ANALISTA DO MP ATIVO BELO HORIZONTE - COMARCA; BH-23PJ INF-FISC MED SOC FEC 13.616,17 5.446,47 0,00 0,00 0,00 0,00 19.062,64 2.096,89 3.744,08 0,00 5.840,97 13.221,67 726,01 0,00 30/09/2015
511 277500 CLAUDIO ANTONIO BORGES ALVARES OFICIAL DO MP ATIVO BELO HORIZONTE - COMARCA; TRIBUNAL DO JURI-07 PJ-01 TRIBUNAL 6.973,67 1.394,73 0,00 0,00 0,00 0,00 8.368,40 920,52 1.178,81 0,00 2.099,33 6.269,07 726,01 0,00 30/09/2015
512 444800 CLAUDIO ARESIO DO CARMO ANALISTA DO MP ATIVO SETE LAGOAS - COMARCA; SETE LAGOAS-PJ-01PJ 7.435,23 2.230,57 0,00 0,00 0,00 0,00 9.665,80 1.063,24 1.444,21 0,00 2.507,45 7.158,35 726,01 0,00 30/09/2015
513 541600 CLAUDIO DE OLIVEIRA MELO OFICIAL DO MP ATIVO PARACATU - COMARCA; PARACATU-PJ-01PJ 3.445,03 0,00 0,00 0,00 0,00 0,00 3.445,03 378,95 58,72 0,00 437,67 3.007,36 961,01 0,00 30/09/2015
514 545100 CLAUDIO HENRIQUE MACEDO DE SOUZA FRANSOZO ANALISTA DO MP ATIVO OURO PRETO - COMARCA; OURO PRETO-PJ-01PJ 5.307,28 0,00 0,00 0,00 0,00 0,00 5.307,28 583,80 429,60 0,00 1.013,40 4.293,88 726,01 0,00 30/09/2015
515 353500 CLAUDIO HENRIQUE PEDRO DA ROCHA OFICIAL DO MP ATIVO BELO HORIZONTE - COMARCA; CAO-CRIMINAL-SECRETARIA 6.032,93 603,29 0,00 0,00 0,00 0,00 6.636,22 729,98 650,58 0,00 1.380,56 5.255,66 726,01 0,00 30/09/2015
516 265800 CLAUDIO KUPIDLOWSKY FERNANDES ASSESSOR/OFICIAL ATIVO BELO HORIZONTE - COMARCA; EXTINTA - SECRETARIA ADMINISTRATIVA 0,00 1.860,89 9.304,45 0,00 0,00 0,00 11.165,34 920,52 1.207,04 0,00 2.127,56 9.037,78 726,01 0,00 30/09/2015
517 193600 CLAUDIO LEITE FONTES OFICIAL DO MP ATIVO ITUIUTABA - COMARCA; ITUIUTABA-PJ-02PJ 6.032,93 1.809,88 0,00 0,00 0,00 0,00 7.842,81 862,71 833,47 0,00 1.696,18 6.146,63 726,01 0,00 30/09/2015
518 329400 CLAUDIO MARCIO BERNARDES OFICIAL DO MP ATIVO ITAÚNA - COMARCA; ITAUNA-PJ-04PJ 6.432,09 2.572,84 0,00 0,00 0,00 0,00 9.004,93 990,54 1.282,46 0,00 2.273,00 6.731,93 846,01 0,00 30/09/2015
519 270200 CLAUDIO RABELO ALVES OFICIAL DO MP ATIVO FORMIGA - COMARCA; FORMIGA-PJ-SECRETARIA 6.973,67 1.394,73 0,00 0,00 0,00 0,00 8.368,40 920,52 970,26 0,00 1.890,78 6.477,62 726,01 0,00 30/09/2015
520 264700 CLAUDIO ROBERTO KFURI DE ARAUJO ANALISTA DO MP ATIVO BELO HORIZONTE - COMARCA; CENTRAL DE APOIO TECNICO-SETOR DE INFORMATICA 11.643,70 2.328,74 0,00 0,00 0,00 0,00 13.972,44 1.536,97 2.446,12 0,00 3.983,09 9.989,35 726,01 0,00 30/09/2015
521 188600 CLAUDIO SALES OFICIAL DO MP ATIVO NEPOMUCENO - COMARCA; NEPOMUCENO-PJ-SECRETARIA 9.011,08 6.307,75 0,00 0,00 0,00 0,00 15.318,83 1.685,07 2.879,92 0,00 4.564,99 10.753,84 961,01 0,00 30/09/2015
522 543300 CLAUDIO SILVA DE CARVALHO ANALISTA DO MP ATIVO CAMPO BELO - COMARCA; CAMPO BELO-PJ-04PJ 5.307,28 0,00 0,00 0,00 0,00 0,00 5.307,28 583,80 341,34 0,00 925,14 4.382,14 726,01 0,00 30/09/2015
523 160700 CLAUDIO VICENTE HESS ASSESSOR ATIVO BELO HORIZONTE - COMARCA; EXTINTA - SUPERINTENDENCIA ADMINISTRATIVA-SAD 0,00 4.368,40 10.921,00 0,00 0,00 0,00 15.289,40 513,01 3.237,39 0,00 3.750,40 11.539,00 3.826,98 284,26 30/09/2015
524 312900 CLAUDIO VIEIRA FIRPE ASSESSOR/OFICIAL ATIVO BELO HORIZONTE - COMARCA; DIRETORIA DE RELACOES PUBLICAS E CERIMONIAL 0,00 1.690,36 8.451,80 0,00 0,00 0,00 10.142,16 905,23 1.670,80 0,00 2.576,03 7.566,13 961,01 0,00 30/09/2015
525 634100 CLEA CRISTINA GUERRA DE FREITAS COSTA OFICIAL DO MP ATIVO BELO HORIZONTE - COMARCA; BH-18PJ VIOLENCIA DOMESTICA 3.030,62 0,00 0,00 0,00 0,00 0,00 3.030,62 333,37 45,27 0,00 378,64 2.651,98 961,01 0,00 30/09/2015
526 459200 CLEIA ZILLE PEREIRA ANALISTA DO MP ATIVO BELO HORIZONTE - COMARCA; ASSESS TECNICO-JUR JUNTO AS PROC. DE JUST 7.200,74 432,04 0,00 0,00 0,00 0,00 7.632,78 839,61 998,76 0,00 1.838,37 5.794,41 1.196,01 0,00 30/09/2015
527 481800 CLEIDE CARDOSO DA SILVA ANALISTA DO MP ATIVO MANHUAÇU - COMARCA; MANHUACU-PJ-04PJ 7.200,74 432,04 0,00 0,00 0,00 0,00 7.632,78 839,61 894,49 0,00 1.734,10 5.898,68 1.196,01 0,00 30/09/2015
528 347600 CLEIDIMAR DE OLIVEIRA SILVA OFICIAL DO MP ATIVO PATOS DE MINAS - COMARCA; COORD REG BACIAS PARACATU,URUCUIA E ABAETE 5.842,66 1.168,53 0,00 0,00 0,00 0,00 7.011,19 771,23 638,08 0,00 1.409,31 5.601,88 726,01 0,00 30/09/2015
529 396500 CLEIDISON BATISTA DE ANDRADE OFICIAL DO MP ATIVO RESPLENDOR - COMARCA; RESPLENDOR-PJ-UNPJ 4.521,68 452,17 0,00 0,00 0,00 0,00 4.973,85 547,12 231,91 0,00 779,03 4.194,82 961,01 0,00 30/09/2015
530 535100 CLEISON ALVES DA SILVA ANALISTA DO MP ATIVO BOA ESPERANÇA - COMARCA; BOA ESPERANCA-PJ-01PJ 5.842,66 0,00 0,00 0,00 0,00 0,00 5.842,66 642,69 456,36 0,00 1.099,05 4.743,61 961,01 0,00 30/09/2015
531 298100 CLEONICE AUGUSTA BARROS DE OLIVEIRA ANALISTA DO MP ATIVO JUIZ DE FORA - COMARCA; JUIZ DE FORA-PJ-08PJ 11.276,58 2.255,32 0,00 0,00 0,00 0,00 13.531,90 1.488,51 2.442,57 0,00 3.931,08 9.600,82 726,01 0,00 30/09/2015
532 60200 CLERES DE ALMEIDA AGENTE DO MP ATIVO BELO HORIZONTE - COMARCA; EXTINTA - DIVISAO DE TRANSPORTES 4.668,87 3.735,10 0,00 0,00 0,00 0,00 8.403,97 1.127,54 1.535,14 0,00 2.662,68 5.741,29 726,01 1.846,37 30/09/2015
533 114300 CLERES PEREIRA DA SILVA JUNIOR ASSESSOR ATIVO BELO HORIZONTE - COMARCA; GAECO - SECRETARIA 0,00 1.670,07 4.175,17 0,00 0,00 0,00 5.845,24 513,01 640,24 0,00 1.153,25 4.691,99 961,01 0,00 30/09/2015
534 264100 CLETO HENRIQUE ANDRADE SILVA ANALISTA DO MP ATIVO BELO HORIZONTE - COMARCA; DIRETORIA DE SISTEMAS DE INFORMACAO 11.643,70 2.328,74 0,00 0,00 0,00 0,00 13.972,44 1.536,97 2.393,98 0,00 3.930,95 10.041,49 726,01 0,00 30/09/2015
535 334400 CLEUBA DE OLIVEIRA BARCELOS GONCALVES OFICIAL DO MP ATIVO DIVINÓPOLIS - COMARCA; COORD REG SAUDE MACRORREGIAO SANITARIA OESTE 6.432,09 1.286,42 0,00 0,00 0,00 0,00 7.718,51 849,04 915,47 0,00 1.764,51 5.954,00 726,01 0,00 30/09/2015
536 347500 CLEUSA CORDEIRO DA MATA PIMENTA OFICIAL DO MP ATIVO CAMPO BELO - COMARCA; CAMPO BELO-PJ-02PJ 6.229,29 4.360,51 0,00 0,00 0,00 0,00 10.589,80 1.164,88 1.618,22 0,00 2.783,10 7.806,70 726,01 0,00 30/09/2015
537 510200 CLEZIO SALES SILVA OFICIAL DO MP ATIVO BRASÓPOLIS - COMARCA; BRASOPOLIS-PJ-UNPJ 3.557,16 213,43 0,00 0,00 0,00 0,00 3.770,59 414,76 148,57 0,00 563,33 3.207,26 726,01 0,00 30/09/2015
538 323000 CLOTILDE DE PADUA VIEIRA OFICIAL DO MP ATIVO BELO HORIZONTE - COMARCA; CGMP-DIVISAO DE APOIO ADMINISTRATIVO 4.521,68 904,34 0,00 0,00 0,00 0,00 5.426,02 596,86 458,66 0,00 1.055,52 4.370,50 726,01 0,00 30/09/2015
539 285200 CLOVIS ANDRE LUDTKE OFICIAL DO MP ATIVO BELO HORIZONTE - COMARCA; DIVISAO DE MANUTENCAO PREDIAL 6.973,67 1.394,73 0,00 0,00 0,00 0,00 8.368,40 920,52 1.178,81 0,00 2.099,33 6.269,07 726,01 0,00 30/09/2015
540 381100 CONCEICAO APARECIDA TEIXEIRA ARANTES ANALISTA DO MP ATIVO BELO HORIZONTE - COMARCA; BH-23PJ INFRACIONAL-ASS JURIDICA 8.451,80 845,18 0,00 0,00 0,00 0,00 9.296,98 1.075,27 1.470,98 0,00 2.546,25 6.750,73 726,01 478,20 30/09/2015
541 249900 CONSTANTINO CEZAR GOMES MOTA OFICIAL DO MP ATIVO MONTES CLAROS - COMARCA; COORD REG BACIA RIOS VERDE GRANDE E PARDO 5.139,92 1.027,98 0,00 0,00 0,00 0,00 6.167,90 678,47 588,10 0,00 1.266,57 4.901,33 726,01 0,00 30/09/2015
542 481000 CRISHMA ANALIA LOMBELLO ANALISTA DO MP ATIVO JUIZ DE FORA - COMARCA; JUIZ DE FORA-PJ-13PJ 7.200,74 432,04 0,00 0,00 0,00 0,00 7.632,78 839,61 946,62 0,00 1.786,23 5.846,55 726,01 0,00 30/09/2015
543 187500 CRISLEY PATRICK TOSTES OFICIAL DO MP ATIVO JUIZ DE FORA - COMARCA; JUIZ DE FORA-PJ-21PJ 10.243,18 3.072,95 0,00 0,00 0,00 0,00 13.316,13 1.464,77 2.389,76 0,00 3.854,53 9.461,60 726,01 0,00 30/09/2015
544 523900 CRISTHYANE BAZOLI COSTA GUEDES OFICIAL DO MP ATIVO BELO HORIZONTE - COMARCA; BH-23PJ CIVEL-SEC EXP CIVEIS 3.916,07 234,96 0,00 0,00 0,00 0,00 4.151,03 456,61 199,36 0,00 655,97 3.495,06 726,01 0,00 30/09/2015
545 187000 CRISTIAN DAYVSON EVANGELISTA OFICIAL DO MP ATIVO JUIZ DE FORA - COMARCA; JUIZ DE FORA-PJ-09PJ 9.011,08 2.703,32 0,00 0,00 0,00 0,00 11.714,40 1.288,58 1.945,60 0,00 3.234,18 8.480,22 726,01 0,00 30/09/2015
546 319800 CRISTIANA GONCALVES DOS SANTOS GUSMAO OFICIAL DO MP ATIVO SETE LAGOAS - COMARCA; SETE LAGOAS-PJ-10PJ 6.229,29 1.245,86 0,00 0,00 0,00 0,00 7.475,15 822,27 960,18 0,00 1.782,45 5.692,70 726,01 0,00 30/09/2015
547 520600 CRISTIANA JANAINA BARBOZA JUVENCIO DOS SANTOS ANALISTA DO MP ATIVO BELO HORIZONTE - COMARCA; EXTINTA - JUIZO DE FAMILIA-02 PJ-02 VARA 6.641,51 398,49 0,00 0,00 0,00 0,00 7.040,00 774,40 853,68 0,00 1.628,08 5.411,92 726,01 0,00 30/09/2015
548 195600 CRISTIANA SOARES HALABI OFICIAL DO MP ATIVO UBERABA - COMARCA; UBERABA-PJ-11PJ 8.727,00 2.618,10 0,00 0,00 0,00 0,00 11.345,10 1.247,96 1.907,35 0,00 3.155,31 8.189,79 726,01 0,00 30/09/2015
549 218900 CRISTIANE ALVES BELLES OFICIAL DO MP ATIVO JUIZ DE FORA - COMARCA; JUIZ DE FORA-PJ-10PJ 4.977,82 1.493,35 0,00 0,00 0,00 0,00 6.471,17 711,83 610,18 0,00 1.322,01 5.149,16 726,01 0,00 30/09/2015
550 263600 CRISTIANE CARVALHO COUTINHO OFICIAL DO MP ATIVO BELO HORIZONTE - COMARCA; BH-23PJ INFRACIONAL-SEC EXP 6.973,67 1.394,73 0,00 0,00 0,00 0,00 8.368,40 920,52 1.126,67 0,00 2.047,19 6.321,21 961,01 0,00 30/09/2015
551 541000 CRISTIANE COELHO ALVES OFICIAL DO MP ATIVO ITABIRA - COMARCA; ITABIRA-PJ-01PJ 3.445,03 0,00 0,00 0,00 0,00 0,00 3.445,03 378,95 76,67 0,00 455,62 2.989,41 726,01 0,00 30/09/2015
552 441700 CRISTIANE CORRADO DE ANDRADE ANALISTA DO MP ATIVO BELO HORIZONTE - COMARCA; DIRETORIA DE SISTEMAS DE INFORMACAO 8.451,80 845,18 0,00 0,00 0,00 0,00 9.296,98 1.022,67 1.406,08 0,00 2.428,75 6.868,23 726,01 0,00 30/09/2015
553 375100 CRISTIANE DAS DORES ERCIO DE LIMA OFICIAL DO MP ATIVO GOVERNADOR VALADARES - COMARCA; COOR REG INCLUSAO MOBILIZ VALE DO RIO DOCE 5.139,92 513,99 0,00 0,00 0,00 0,00 5.653,91 621,93 514,43 0,00 1.136,36 4.517,55 726,01 0,00 30/09/2015
554 631600 CRISTIANE DE FREITAS NEVES OFICIAL DO MP ATIVO IPATINGA - COMARCA; IPATINGA-PJ-SECRETARIA 3.030,62 0,00 0,00 0,00 0,00 0,00 3.030,62 333,37 59,49 0,00 392,86 2.637,76 726,01 0,00 30/09/2015
555 178800 CRISTIANE DE LIMA HOSKEN OFICIAL DO MP ATIVO BELO HORIZONTE - COMARCA; BH-14PJ DEFESA CONSUMIDOR-GAB 113PJ 9.920,24 2.976,07 0,00 0,00 0,00 0,00 12.896,31 1.418,59 2.130,60 0,00 3.549,19 9.347,12 726,01 0,00 30/09/2015
556 494000 CRISTIANE DE MELO MARQUEZ OLIVEIRA ANALISTA DO MP ATIVO UBERLÂNDIA - COMARCA; UBERLANDIA-PJ-06PJ 7.200,74 432,04 0,00 0,00 0,00 0,00 7.632,78 839,61 998,76 0,00 1.838,37 5.794,41 726,01 0,00 30/09/2015
557 266100 CRISTIANE DE OLIVEIRA CASTRO OFICIAL DO MP ATIVO BELO HORIZONTE - COMARCA; PROCON-MG-SECRETARIA DE FISCALIZACOES 7.200,74 2.614,97 0,00 0,00 0,00 0,00 9.815,71 950,50 1.464,30 0,00 2.414,80 7.400,91 961,01 0,00 30/09/2015
558 329500 CRISTIANE DOS REIS SILVA OFICIAL DO MP ATIVO ARAXÁ - COMARCA; ARAXA-PJ-04PJ 5.658,41 1.131,68 0,00 0,00 0,00 0,00 6.790,09 746,91 688,24 0,00 1.435,15 5.354,94 961,01 0,00 30/09/2015
559 301600 CRISTIANE GODINHO PIRES ANALISTA DO MP ATIVO BETIM - COMARCA; BETIM-PJ-07PJ 10.921,00 2.184,20 0,00 0,00 0,00 0,00 13.105,20 1.441,57 2.338,14 0,00 3.779,71 9.325,49 726,01 0,00 30/09/2015
560 406100 CRISTIANE GONCALVES CHAVES ANALISTA DO MP ATIVO BELO HORIZONTE - COMARCA; BH-09PJ AUDITORIA MILITAR-SECRETARIA 8.727,00 1.745,40 0,00 0,00 0,00 0,00 10.472,40 1.151,96 1.693,76 0,00 2.845,72 7.626,68 726,01 0,00 30/09/2015
561 487600 CRISTIANE LOPES DE OLIVEIRA OFICIAL DO MP ATIVO CARMO DA MATA - COMARCA; CARMO DA MATA-PJ-SECRETARIA 4.241,01 254,46 0,00 0,00 0,00 0,00 4.495,47 494,50 221,43 0,00 715,93 3.779,54 726,01 0,00 30/09/2015
562 502500 CRISTIANE MACIEL DE OLIVEIRA GOMES ANALISTA DO MP ATIVO JUIZ DE FORA - COMARCA; JUIZ DE FORA-PJ-05PJ 6.641,51 398,49 0,00 0,00 0,00 0,00 7.040,00 774,40 853,68 0,00 1.628,08 5.411,92 726,01 0,00 30/09/2015
563 285500 CRISTIANE MAGALHAES LOURENCO ANALISTA DO MP ATIVO BELO HORIZONTE - COMARCA; CENTRAL DE APOIO TECNICO-SETOR CONTABIL 10.576,63 2.115,33 0,00 0,00 0,00 0,00 12.691,96 1.396,12 2.132,72 0,00 3.528,84 9.163,12 726,01 0,00 30/09/2015
564 536500 CRISTIANE MICHELE DE SOUZA ANALISTA DO MP ATIVO BARÃO DE COCAIS - COMARCA; BARAO DE COCAIS-PJ-UNPJ 5.842,66 0,00 0,00 0,00 0,00 0,00 5.842,66 642,69 508,49 0,00 1.151,18 4.691,48 961,01 0,00 30/09/2015
565 346600 CRISTIANE NOGUEIRA ANDRADE ANALISTA DO MP ATIVO BELO HORIZONTE - COMARCA; CENTRAL DE APOIO TECNICO-SETOR CONTABIL 10.243,18 1.024,32 0,00 0,00 0,00 0,00 11.267,50 1.239,43 1.888,36 0,00 3.127,79 8.139,71 1.196,01 0,00 30/09/2015
566 234000 CRISTIANE OLIVEIRA TOSTES OFICIAL DO MP ATIVO JUIZ DE FORA - COMARCA; JUIZ DE FORA-PJ-08PJ 8.727,00 1.745,40 0,00 0,00 0,00 0,00 10.472,40 1.151,96 1.693,76 0,00 2.845,72 7.626,68 726,01 0,00 30/09/2015
567 445800 CRISTIANE ORZIL COSTA OFICIAL DO MP ATIVO SANTA LUZIA - COMARCA; SANTA LUZIA-PJ-05PJ 4.043,58 404,36 0,00 0,00 0,00 0,00 4.447,94 489,27 254,57 0,00 743,84 3.704,10 726,01 0,00 30/09/2015
568 616100 CRISTIANE PAES RODRIGUES MARCICANO ANALISTA DO MP ATIVO CATAGUASES - COMARCA; CATAGUASES-PJ-05PJ 4.820,91 0,00 0,00 0,00 0,00 0,00 4.820,91 530,30 329,26 0,00 859,56 3.961,35 726,01 0,00 30/09/2015
569 612300 CRISTIANE RIBEIRO DOS REIS ARCANJO OFICIAL DO MP ATIVO BELO HORIZONTE - COMARCA; EXTINTA - DIRETORIA SERVIÇOS GERAIS E TRANS 3.445,03 0,00 0,00 0,00 0,00 0,00 3.445,03 378,95 76,67 0,00 455,62 2.989,41 726,01 0,00 30/09/2015
570 215000 CRISTIANE RODRIGUES DE CARVALHO ASSESSOR ATIVO BELO HORIZONTE - COMARCA; BH-14PJ DEFESA CONSUMIDOR-GAB 005PJ 0,00 1.252,55 4.175,17 0,00 0,00 0,00 5.427,72 513,01 681,84 0,00 1.194,85 4.232,87 726,01 0,00 30/09/2015
571 257700 CRISTIANE RODRIGUES PAES NUNES ANALISTA DO MP ATIVO BELO HORIZONTE - COMARCA; BH-22PJ PES COM DEF E IDOSOS-ORIENTACAO PSIC 11.643,70 2.328,74 0,00 0,00 0,00 0,00 13.972,44 1.536,97 2.498,26 0,00 4.035,23 9.937,21 726,01 0,00 30/09/2015
572 510800 CRISTIANE SANTOS FERNANDES ORNELES ANALISTA DO MP ATIVO BELO HORIZONTE - COMARCA; COORD ESTADUAL DAS PJS DE HAB. E URBANISMO 6.641,51 398,49 0,00 0,00 0,00 0,00 7.040,00 774,40 801,54 0,00 1.575,94 5.464,06 726,01 0,00 30/09/2015
573 535700 CRISTIANE SANTOS MIRANDA OFICIAL DO MP ATIVO BETIM - COMARCA; BETIM-PJ-02PJ 3.792,57 0,00 0,00 0,00 0,00 0,00 3.792,57 417,18 123,07 0,00 540,25 3.252,32 726,01 0,00 30/09/2015
574 536200 CRISTIANO DE OLIVEIRA ANALISTA DO MP ATIVO CONCEIÇÃO DO MATO DENTRO - COMARCA; CONCEICAO DO MATO DENTRO-PJ-UNPJ 5.842,66 0,00 0,00 0,00 0,00 0,00 5.842,66 642,69 560,63 0,00 1.203,32 4.639,34 726,01 0,00 30/09/2015
575 477400 CRISTIANO SOARES ELEUTERIO ANALISTA DO MP ATIVO BELO HORIZONTE - COMARCA; BH-17PJ PATRIMONIO PUBLICO 7.200,74 432,04 0,00 0,00 0,00 0,00 7.632,78 839,61 998,76 0,00 1.838,37 5.794,41 726,01 0,00 30/09/2015
576 449400 CRISTIANO TEIXEIRA RODRIGUES LANA ANALISTA DO MP ATIVO BELO HORIZONTE - COMARCA; ASSESS TECNICO-JUR JUNTO AS PROC. DE JUST 7.435,23 743,52 0,00 0,00 0,00 0,00 8.178,75 899,66 1.132,39 0,00 2.032,05 6.146,70 726,01 0,00 30/09/2015
577 239400 CRISTINA DE FATIMA CRUZ E SILVA OFICIAL DO MP ATIVO MONTE SANTO DE MINAS - COMARCA; MONTE SANTO DE MINAS-PJ-SECRETARIA 7.435,23 1.487,05 0,00 0,00 0,00 0,00 8.922,28 981,45 1.314,37 0,00 2.295,82 6.626,46 726,01 0,00 30/09/2015
578 544000 CRISTINA DE OLIVEIRA TERRA ANALISTA DO MP ATIVO MATOZINHOS - COMARCA; MATOZINHOS-PJ-02PJ 5.842,66 0,00 0,00 0,00 0,00 0,00 5.842,66 642,69 560,63 0,00 1.203,32 4.639,34 726,01 0,00 30/09/2015
579 356800 CRISTINA DE PINHO BARROSO OFICIAL DO MP ATIVO SABINÓPOLIS - COMARCA; SABINOPOLIS-PJ-UNPJ 4.977,82 995,56 0,00 0,00 0,00 0,00 5.973,38 657,07 488,35 0,00 1.145,42 4.827,96 2.400,25 0,00 30/09/2015
580 449100 CRISTINA KISTEMANN CHIODI ASSESSOR ATIVO BELO HORIZONTE - COMARCA; COORD-GERAL DAS PJS POR BACIA HIDRO. DE MG 0,00 0,00 9.304,45 0,00 0,00 0,00 9.304,45 513,01 1.747,94 0,00 2.260,95 7.043,50 726,01 0,00 30/09/2015
581 348201 CRISTINA MARIA DA SILVA ANALISTA DO MP ATIVO PATOS DE MINAS - COMARCA; PATOS DE MINAS-PJ-02PJ 7.200,74 720,07 0,00 0,00 0,00 0,00 7.920,81 871,29 1.069,26 0,00 1.940,55 5.980,26 726,01 0,00 30/09/2015
582 434900 CRISTINA MELO DE MADUREIRA ANALISTA DO MP ATIVO BELO HORIZONTE - COMARCA; CAO-CRIMINAL-SECRETARIA 8.451,80 845,18 0,00 0,00 0,00 0,00 9.296,98 1.022,67 1.406,08 0,00 2.428,75 6.868,23 726,01 0,00 30/09/2015
583 117100 CRISTINA PEDROSA GARABINI COORDENADOR/ANALISTA ATIVO BELO HORIZONTE - COMARCA; DIRET DE INFORMACAO E CONHECIMENTO-DINC/CEAF 18.576,08 15.624,30 0,00 0,00 0,00 0,00 34.200,38 3.351,82 6.484,17 3.729,27 13.565,26 20.635,12 726,01 0,00 30/09/2015
584 307700 CRISTINA TEIXEIRA MARQUES OFICIAL DO MP ATIVO BELO HORIZONTE - COMARCA; CENTRAL DE APOIO TECNICO-SECRETARIA 6.032,93 1.206,59 0,00 0,00 0,00 0,00 7.239,52 796,35 902,51 0,00 1.698,86 5.540,66 726,01 0,00 30/09/2015
585 265300 CRISTOVAO SANCHES DE MEDEIROS ANALISTA DO MP ATIVO BELO HORIZONTE - COMARCA; DIRETORIA DE CONTABILIDADE 10.576,63 2.115,33 0,00 0,00 0,00 0,00 12.691,96 1.396,12 2.184,86 0,00 3.580,98 9.110,98 726,01 0,00 30/09/2015
586 349800 CROZEIR LUIZ DA SILVA OFICIAL DO MP ATIVO UNAÍ - COMARCA; UNAI-PJ-SECRETARIA 5.842,66 584,27 0,00 0,00 0,00 0,00 6.426,93 706,96 651,49 0,00 1.358,45 5.068,48 726,01 0,00 30/09/2015
587 490500 CYNTHIA CRISTINA DE SOUZA OLIVEIRA VALENTE ANALISTA DO MP ATIVO BELO HORIZONTE - COMARCA; BH-09PJ AUDITORIA MILITAR 7.200,74 432,04 0,00 0,00 0,00 0,00 7.632,78 839,61 998,76 0,00 1.838,37 5.794,41 726,01 0,00 30/09/2015
588 389800 CYNTHIA GARIGLIO DOS SANTOS OFICIAL DO MP ATIVO PERDIZES - COMARCA; PERDIZES-PJ-SECRETARIA 4.521,68 452,17 0,00 0,00 0,00 0,00 4.973,85 547,12 274,57 0,00 821,69 4.152,16 961,01 0,00 30/09/2015
589 335101 CYNTHIA GONTIJO D ASSUNCAO ANALISTA DO MP ATIVO BELO HORIZONTE - COMARCA; PROC. JUSTICA DIR. DIFUSOS E COLETIVOS-SEC 7.200,74 432,04 0,00 0,00 0,00 0,00 7.632,78 839,61 998,76 0,00 1.838,37 5.794,41 726,01 0,00 30/09/2015
590 154000 CYNTHIA LOPES DOS SANTOS LAGES ASSESSOR ATIVO BELO HORIZONTE - COMARCA; PROCURADOR-GERAL DE JUSTICA- GABINETE 0,00 5.460,50 10.921,00 0,00 0,00 0,00 16.381,50 1.801,97 3.140,01 0,00 4.941,98 11.439,52 726,01 0,00 30/09/2015
591 269700 CYNTIA ROCHA CAVALCANTI OFICIAL DO MP ATIVO UBERLÂNDIA - COMARCA; UBERLANDIA-PJ-06PJ 7.200,74 1.440,15 0,00 0,00 0,00 0,00 8.640,89 950,50 1.245,50 0,00 2.196,00 6.444,89 726,01 0,00 30/09/2015
592 278000 DAIRTON LOPES MARTINS FILHO COORDENADOR/ANALISTA ATIVO BELO HORIZONTE - COMARCA; DIRETORIA DE SISTEMAS DE INFORMACAO 0,00 2.184,20 10.921,00 0,00 0,00 0,00 13.105,20 1.080,46 2.437,44 0,00 3.517,90 9.587,30 726,01 0,00 30/09/2015
593 392700 DALIANA CHAVES SILVA OFICIAL DO MP ATIVO ITAÚNA - COMARCA; ITAUNA-PJ-SECRETARIA 5.307,28 530,73 0,00 0,00 0,00 0,00 5.838,01 642,18 559,49 0,00 1.201,67 4.636,34 726,01 0,00 30/09/2015
594 558101 DALLEY TASSIA SILVA ANALISTA DO MP ATIVO MORADA NOVA DE MINAS - COMARCA; MORADA NOVA DE MINAS-PJ-UNPJ 5.307,28 0,00 0,00 0,00 0,00 0,00 5.307,28 583,80 341,34 0,00 925,14 4.382,14 726,01 0,00 30/09/2015
595 476700 DALTON DAUD ANALISTA DO MP ATIVO ARAGUARI - COMARCA; ARAGUARI-PJ-05PJ 7.200,74 432,04 0,00 0,00 0,00 0,00 7.632,78 839,61 894,49 0,00 1.734,10 5.898,68 726,01 0,00 30/09/2015
596 548700 DALVA DE SOUZA ROCHA ALMEIDA OFICIAL DO MP ATIVO CORONEL FABRICIANO - COMARCA; CORONEL FABRICIANO-PJ-02PJ 3.792,57 0,00 0,00 0,00 0,00 0,00 3.792,57 417,18 94,63 0,00 511,81 3.280,76 726,01 0,00 30/09/2015
597 426900 DANIEL ALVES DA SILVA OFICIAL DO MP ATIVO BELO HORIZONTE - COMARCA; EXTINTA - PROTOCOLO DA PGJ 4.379,06 437,91 0,00 0,00 0,00 0,00 4.816,97 529,87 243,15 0,00 773,02 4.043,95 726,01 0,00 30/09/2015
598 122000 DANIEL ANTONIO VIEIRA OFICIAL DO MP ATIVO ENTRE-RIOS DE MINAS - COMARCA; ENTRE RIOS DE MINAS-PJ-SECRETARIA 8.185,27 5.729,69 0,00 0,00 4.638,32 0,00 18.553,28 1.530,65 3.551,18 0,00 5.081,83 13.471,45 726,01 0,00 30/09/2015
599 272401 DANIEL AUGUSTO DOS REIS ANALISTA DO MP ATIVO BELO HORIZONTE - COMARCA; BH-22PJ PES COM DEF E IDOSOS-ASS JURIDICA 8.727,00 872,70 0,00 0,00 0,00 0,00 9.599,70 1.055,97 1.480,17 0,00 2.536,14 7.063,56 726,01 0,00 30/09/2015
600 536301 DANIEL BATISTA MARIANO ANALISTA DO MP ATIVO CURVELO - COMARCA; CURVELO-PJ-05PJ 5.139,92 0,00 0,00 0,00 0,00 0,00 5.139,92 565,39 393,14 0,00 958,53 4.181,39 726,01 0,00 30/09/2015
601 411000 DANIEL FERREIRA DA SILVA ANALISTA DO MP ATIVO GOVERNADOR VALADARES - COMARCA; GOVERNADOR VALADARES-PJ-15PJ 8.451,80 1.690,36 0,00 0,00 0,00 0,00 10.142,16 1.115,64 1.508,66 0,00 2.624,30 7.517,86 961,01 0,00 30/09/2015
602 309000 DANIEL GOMES DOS SANTOS ANALISTA DO MP ATIVO POÇOS DE CALDAS - COMARCA; POCOS DE CALDAS-PJ-03PJ 9.607,41 1.921,48 0,00 0,00 0,00 0,00 11.528,89 1.268,18 1.952,34 0,00 3.220,52 8.308,37 961,01 0,00 30/09/2015
603 554500 DANIEL GOMES PEREIRA OFICIAL DO MP ATIVO NANUQUE - COMARCA; NANUQUE-PJ-02PJ 3.445,03 0,00 0,00 0,00 0,00 0,00 3.445,03 378,95 105,11 0,00 484,06 2.960,97 881,40 0,00 30/09/2015
604 453000 DANIEL GONCALVES PEREIRA ANALISTA DO MP ATIVO UNAÍ - COMARCA; UNAI-PJ-04PJ 7.435,23 743,52 0,00 0,00 0,00 0,00 8.178,75 899,66 1.132,39 0,00 2.032,05 6.146,70 726,01 0,00 30/09/2015
605 495500 DANIEL GUIMARAES CABRAL OFICIAL DO MP ATIVO BELO HORIZONTE - COMARCA; BH-17PJ PATRIMONIO PUBLICO-SECRETARIA 3.916,07 234,96 0,00 0,00 0,00 0,00 4.151,03 456,61 199,36 0,00 655,97 3.495,06 726,01 0,00 30/09/2015
606 442900 DANIEL GUIMARAES GONCALVES ANALISTA DO MP ATIVO UBERLÂNDIA - COMARCA; UBERLANDIA-PJ-03PJ 8.451,80 845,18 0,00 0,00 0,00 0,00 9.296,98 1.022,67 1.406,08 0,00 2.428,75 6.868,23 726,01 0,00 30/09/2015
607 491200 DANIEL HENRIQUE SOUTO COSTA ANALISTA DO MP ATIVO CORAÇÃO DE JESUS - COMARCA; CORACAO DE JESUS-PJ-UNPJ 7.200,74 432,04 0,00 0,00 0,00 0,00 7.632,78 839,61 998,76 0,00 1.838,37 5.794,41 726,01 0,00 30/09/2015
608 464600 DANIEL PIACENTINI STIVANIN ANALISTA DO MP ATIVO ANDRADAS - COMARCA; ANDRADAS-PJ-02PJ 7.200,74 432,04 0,00 0,00 0,00 0,00 7.632,78 839,61 998,76 0,00 1.838,37 5.794,41 726,01 0,00 30/09/2015
609 417000 DANIEL QUEIROZ FERREIRA ANALISTA DO MP ATIVO SÃO SEBASTIÃO DO PARAÍSO - COMARCA; SAO SEBASTIAO DO PARAISO-PJ-05PJ 8.185,27 818,53 0,00 0,00 0,00 0,00 9.003,80 990,42 1.334,32 0,00 2.324,74 6.679,06 726,01 0,00 30/09/2015
610 396700 DANIEL SILVA CARNEVALLI DIRETOR/ANALISTA ATIVO BELO HORIZONTE - COMARCA; SUPERINTENDENCIA DE TECNOLOGIA DA INFORMACAO 0,00 1.415,52 14.155,19 0,00 0,00 0,00 15.570,71 1.055,97 3.122,19 0,00 4.178,16 11.392,55 726,01 0,00 30/09/2015
611 489300 DANIEL TABOZA ROCHA ANALISTA DO MP ATIVO IPATINGA - COMARCA; IPATINGA-PJ-08PJ 7.200,74 432,04 0,00 0,00 0,00 0,00 7.632,78 839,61 998,76 0,00 1.838,37 5.794,41 726,01 0,00 30/09/2015
612 414100 DANIEL TARDELI VALADAO ANALISTA DO MP ATIVO TRÊS CORACOES - COMARCA; TRES CORACOES-PJ-02PJ 8.451,80 845,18 0,00 0,00 0,00 0,00 9.296,98 1.022,67 1.406,08 0,00 2.428,75 6.868,23 726,01 0,00 30/09/2015
613 446601 DANIEL VIEIRA BUENO ANALISTA DO MP ATIVO SÃO DOMINGOS DO PRATA - COMARCA; SAO DOMINGOS DO PRATA-PJ-UNPJ 5.139,92 0,00 0,00 0,00 0,00 0,00 5.139,92 565,39 393,14 0,00 958,53 4.181,39 726,01 0,00 30/09/2015
614 253200 DANIELA BATISTA LIMA BARBOSA ASSESSOR ATIVO BELO HORIZONTE - COMARCA; CENTRAL DE APOIO TECN-SETOR DE MEIO AMBIENTE 0,00 835,03 4.175,17 0,00 0,00 0,00 5.010,20 513,01 567,02 0,00 1.080,03 3.930,17 726,01 0,00 30/09/2015
615 505800 DANIELA BORGES DE MATTOS RESENDE ANALISTA DO MP ATIVO JUIZ DE FORA - COMARCA; JUIZ DE FORA-PJ-20PJ 6.641,51 398,49 0,00 0,00 0,00 0,00 7.040,00 774,40 853,68 0,00 1.628,08 5.411,92 961,01 0,00 30/09/2015
616 478000 DANIELA CARVALHO SOARES ANALISTA DO MP ATIVO SÃO JOÃO DEL REI - COMARCA; SAO JOAO DEL REI-PJ-01PJ 7.200,74 432,04 0,00 0,00 0,00 0,00 7.632,78 839,61 998,76 0,00 1.838,37 5.794,41 726,01 0,00 30/09/2015
617 275900 DANIELA CHAGAS SODRE ANALISTA DO MP ATIVO BELO HORIZONTE - COMARCA; CENTRAL DE APOIO TECNICO-SETOR CONTABIL 10.576,63 2.115,33 0,00 0,00 0,00 0,00 12.691,96 1.396,12 2.184,86 0,00 3.580,98 9.110,98 961,01 0,00 30/09/2015
618 234301 DANIELA CRUZ SOARES ANALISTA DO MP ATIVO BELO HORIZONTE - COMARCA; LAB TECNOLOGIA CONTRA LAVAGEM DINHEIRO 11.643,70 2.328,74 0,00 0,00 0,00 0,00 13.972,44 1.536,97 2.550,39 0,00 4.087,36 9.885,08 726,01 0,00 30/09/2015
619 638000 DANIELA DE ALMEIDA BATISTA ANALISTA DO MP ATIVO ANDRELÂNDIA - COMARCA; ANDRELANDIA-PJ-UNPJ 5.139,92 0,00 0,00 0,00 0,00 0,00 5.139,92 565,39 393,14 0,00 958,53 4.181,39 726,01 0,00 30/09/2015
620 301000 DANIELA DE ALMEIDA E OLIVEIRA ANALISTA DO MP ATIVO BELO HORIZONTE - COMARCA; DIRETORIA DE SISTEMAS DE INFORMACAO 10.576,63 2.115,33 0,00 0,00 0,00 0,00 12.691,96 1.396,12 2.237,00 0,00 3.633,12 9.058,84 726,01 0,00 30/09/2015
621 296000 DANIELA DE AZEVEDO SILVA ANALISTA DO MP ATIVO ITAJUBA - COMARCA; ITAJUBA-PJ-03PJ 10.921,00 2.184,20 0,00 0,00 0,00 0,00 13.105,20 1.441,57 2.338,14 0,00 3.779,71 9.325,49 726,01 0,00 30/09/2015
622 453500 DANIELA DE CASTRO SOUSA BARBOSA ANALISTA DO MP ATIVO BELO HORIZONTE - COMARCA; BH-08PJ JUIZADO ESPECIAL-SECRETARIA 7.435,23 743,52 0,00 0,00 0,00 0,00 8.178,75 945,94 1.235,34 0,00 2.181,28 5.997,47 726,01 420,66 30/09/2015
623 506000 DANIELA DE OLIVEIRA CAVALIERI ANALISTA DO MP ATIVO BELO HORIZONTE - COMARCA; BH-14PJ DEFESA CONSUMIDOR-GAB 005PJ 5.480,05 328,80 0,00 0,00 0,00 0,00 5.808,85 638,97 552,36 0,00 1.191,33 4.617,52 726,01 0,00 30/09/2015
624 546200 DANIELA DE VILHENA LEMES GONCALVES OFICIAL DO MP ATIVO TRÊS CORACOES - COMARCA; TRES CORACOES-PJ-05PJ 3.445,03 0,00 0,00 0,00 0,00 0,00 3.445,03 378,95 58,72 0,00 437,67 3.007,36 726,01 0,00 30/09/2015
625 356400 DANIELA LEAL FERRAZ ANALISTA DO MP ATIVO MONTES CLAROS - COMARCA; COORD REG PJ DEF EDUC DIR CRIANCA ADOL NORTE 9.011,08 901,11 0,00 0,00 0,00 0,00 9.912,19 1.090,34 1.556,65 0,00 2.646,99 7.265,20 726,01 0,00 30/09/2015
626 501000 DANIELA LOURENCO SANTOS DA SILVA GUIMARAES ANALISTA DO MP ATIVO BELO HORIZONTE - COMARCA; BH-12PJ JUIZO CRIMINAL-GAB 086PJ 6.641,51 398,49 0,00 0,00 0,00 0,00 7.040,00 774,40 853,68 0,00 1.628,08 5.411,92 961,01 0,00 30/09/2015
627 195801 DANIELA MARIA DE OLIVEIRA QUEIROZ ANALISTA DO MP ATIVO ARAGUARI - COMARCA; ARAGUARI-PJ-06PJ 8.451,80 2.535,54 0,00 0,00 0,00 0,00 10.987,34 1.208,61 1.819,79 0,00 3.028,40 7.958,94 726,01 0,00 30/09/2015
628 511400 DANIELA MARIA LARA DE OLIVEIRA ANALISTA DO MP ATIVO BOA ESPERANÇA - COMARCA; BOA ESPERANCA-PJ-02PJ 6.032,93 361,98 0,00 0,00 0,00 0,00 6.394,91 703,44 643,66 0,00 1.347,10 5.047,81 726,01 0,00 30/09/2015
629 252101 DANIELA PAULA ALVES PENA ANALISTA DO MP ATIVO CONTAGEM - COMARCA; CONTAGEM-PJ-APO TECNICO 9.011,08 2.703,32 0,00 0,00 0,00 0,00 11.714,40 1.288,58 1.997,74 0,00 3.286,32 8.428,08 726,01 0,00 30/09/2015
630 604700 DANIELA PEIXOTO NOGUEIRA OFICIAL DO MP ATIVO BELO HORIZONTE - COMARCA; DIRET DE FORMACAO, APERFEIC. E POS-GRADUACAO 3.445,03 0,00 0,00 0,00 0,00 0,00 3.445,03 378,95 105,11 0,00 484,06 2.960,97 726,01 0,00 30/09/2015
631 429600 DANIELA PIMENTA NUNES MACHADO ANALISTA DO MP ATIVO BELO HORIZONTE - COMARCA; BH-05PJ JUÍZO DE SUCESSÕES 8.451,80 845,18 0,00 0,00 0,00 0,00 9.296,98 1.022,67 1.406,08 0,00 2.428,75 6.868,23 726,01 0,00 30/09/2015
632 424300 DANIELA PORTO PINTO OFICIAL DO MP ATIVO BELO HORIZONTE - COMARCA; EXTINTA-DEFESA DA SAUDE-19 PJ-GABINETE 4.175,17 417,52 0,00 0,00 0,00 0,00 4.592,69 505,20 283,56 0,00 788,76 3.803,93 726,01 0,00 30/09/2015
633 462000 DANIELA SOUSA GOMES DO AMARAL ANALISTA DO MP ATIVO BETIM - COMARCA; BETIM-PJ-04PJ 7.200,74 432,04 0,00 0,00 0,00 0,00 7.632,78 839,61 998,76 0,00 1.838,37 5.794,41 726,01 0,00 30/09/2015
634 427000 DANIELA TEIXEIRA DINIZ ANDRADE ANALISTA DO MP ATIVO BELO HORIZONTE - COMARCA; DIRETORIA DE PROJETOS DE EDIFICACOES 7.435,23 743,52 0,00 0,00 0,00 0,00 8.178,75 899,66 1.080,25 0,00 1.979,91 6.198,84 726,01 0,00 30/09/2015
635 337200 DANIELA TOLEDO SENIUK ANALISTA DO MP ATIVO BELO HORIZONTE - COMARCA; CGMP-SECRETARIA DA CORREGEDORIA-GERAL DO MP 9.011,08 1.802,22 0,00 0,00 0,00 0,00 10.813,30 1.189,46 1.725,06 0,00 2.914,52 7.898,78 726,01 0,00 30/09/2015
636 605600 DANIELE ALZIRA SILVA CABRAL MOREIRA OFICIAL DO MP ATIVO BELO HORIZONTE - COMARCA; BH-10PJ EXECUÇÃO PENAL 3.445,03 0,00 0,00 0,00 0,00 0,00 3.445,03 378,95 105,11 0,00 484,06 2.960,97 726,01 0,00 30/09/2015
637 195500 DANIELE CHAVES FONSECA OFICIAL DO MP ATIVO BELO HORIZONTE - COMARCA; ASSESSORIA ESPECIAL DO PGJ 9.920,24 2.976,07 0,00 0,00 0,00 0,00 12.896,31 1.418,59 2.287,01 0,00 3.705,60 9.190,71 726,01 0,00 30/09/2015
638 323400 DANIELE MEGALE SANTINI OFICIAL DO MP ATIVO BELO HORIZONTE - COMARCA; ASSESS TECNICO-JUR JUNTO AS PROC. DE JUST 6.641,51 1.328,30 0,00 0,00 0,00 0,00 7.969,81 876,68 1.029,11 0,00 1.905,79 6.064,02 726,01 0,00 30/09/2015
639 357900 DANIELE REJANE PINTO VERSIEUX OFICIAL DO MP ATIVO PEDRO LEOPOLDO - COMARCA; PEDRO LEOPOLDO-PJ-03PJ 6.032,93 603,29 0,00 0,00 0,00 0,00 6.636,22 729,98 754,86 0,00 1.484,84 5.151,38 726,01 0,00 30/09/2015
640 389500 DANIELE VASCONCELOS AMORIM OFICIAL DO MP ATIVO SÃO SEBASTIÃO DO PARAÍSO - COMARCA; SAO SEBASTIAO DO PARAISO-PJ-04PJ 5.480,05 548,01 0,00 0,00 0,00 0,00 6.028,06 663,09 606,01 0,00 1.269,10 4.758,96 726,01 0,00 30/09/2015
641 629700 DANIELLA BASTOS MARTINS BICALHO OFICIAL DO MP ATIVO GOVERNADOR VALADARES - COMARCA; GOVERNADOR VALADARES-PJ-SECRETARIA 3.030,62 0,00 0,00 0,00 0,00 0,00 3.030,62 333,37 59,49 0,00 392,86 2.637,76 726,01 0,00 30/09/2015
642 265000 DANIELLE CASTANHEIRA SCALABRINI OFICIAL DO MP ATIVO BELO HORIZONTE - COMARCA; JUNTA RECURSAL DO PROCON ESTADUAL 6.432,09 1.286,42 0,00 0,00 0,00 0,00 7.718,51 849,04 863,33 0,00 1.712,37 6.006,14 726,01 0,00 30/09/2015
643 490100 DANIELLE DE AVILA SILVA LOPES ANALISTA DO MP ATIVO BELO HORIZONTE - COMARCA; PROC. JUSTICA DIR. DIFUSOS E COLETIVOS-SEC 7.200,74 1.440,15 0,00 0,00 0,00 0,00 8.640,89 950,50 1.245,50 0,00 2.196,00 6.444,89 726,01 0,00 30/09/2015
644 549600 DANIELLE GOMES LOPES RODRIGUES OFICIAL DO MP ATIVO ITABIRA - COMARCA; ITABIRA-PJ-03PJ 3.792,57 0,00 0,00 0,00 0,00 0,00 3.792,57 417,18 151,51 0,00 568,69 3.223,88 961,01 0,00 30/09/2015
645 613000 DANIELLE SILVA OLIVEIRA FRANKLIN OFICIAL DO MP ATIVO BELO HORIZONTE - COMARCA; DIRETORIA DE ADMINISTRACAO FINANCEIRA 3.445,03 0,00 0,00 0,00 0,00 0,00 3.445,03 378,95 105,11 0,00 484,06 2.960,97 726,01 0,00 30/09/2015
646 380800 DANILLO RIBEIRO ANTUNES ANALISTA DO MP ATIVO MONTES CLAROS - COMARCA; MONTES CLAROS-PJ-SECRETARIA 8.727,00 872,70 0,00 0,00 0,00 0,00 9.599,70 1.055,97 1.375,89 0,00 2.431,86 7.167,84 726,01 0,00 30/09/2015
647 453700 DANILO BOTELHO DE CARVALHO ASSESSOR/ANALISTA ATIVO BELO HORIZONTE - COMARCA; DIRETORIA DE ADMINISTRACAO FINANCEIRA 0,00 845,18 8.451,80 0,00 0,00 0,00 9.296,98 899,66 1.713,78 0,00 2.613,44 6.683,54 961,01 995,91 30/09/2015
648 391200 DANILO D'AVILA MENDES ANALISTA DO MP ATIVO SÃO ROMÃO - COMARCA; SAO ROMAO-PJ-UNPJ 8.727,00 872,70 0,00 0,00 0,00 0,00 9.599,70 1.055,97 1.480,17 0,00 2.536,14 7.063,56 726,01 0,00 30/09/2015
649 494900 DANILO GAVIAO AVELINO DE MELLO ANALISTA DO MP ATIVO POUSO ALEGRE - COMARCA; POUSO ALEGRE-PJ-08PJ 7.200,74 432,04 0,00 0,00 0,00 0,00 7.632,78 839,61 998,76 0,00 1.838,37 5.794,41 726,01 0,00 30/09/2015
650 604300 DANILO NASCIMENTO SALGADO ANALISTA DO MP ATIVO JANAÚBA - COMARCA; JANAUBA-PJ-01PJ 5.307,28 0,00 0,00 0,00 0,00 0,00 5.307,28 583,80 429,60 0,00 1.013,40 4.293,88 726,01 0,00 30/09/2015
651 600700 DANILO OLIVEIRA CARILLI OFICIAL DO MP ATIVO ARAGUARI - COMARCA; ARAGUARI-PJ-07PJ 3.129,28 0,00 0,00 0,00 0,00 0,00 3.129,28 344,22 66,08 0,00 410,30 2.718,98 726,01 0,00 30/09/2015
652 550800 DANTE MENDES BIANCHETTI FILHO ANALISTA DO MP ATIVO BARBACENA - COMARCA; BARBACENA-PJ-SECRETARIA 5.307,28 0,00 0,00 0,00 0,00 0,00 5.307,28 583,80 429,60 0,00 1.013,40 4.293,88 726,01 0,00 30/09/2015
653 298300 DANUZA MONICA DE SOUZA DINIZ ANALISTA DO MP ATIVO DIVINÓPOLIS - COMARCA; DIVINOPOLIS-PJ-02PJ 8.727,00 1.745,40 0,00 0,00 0,00 0,00 10.472,40 1.151,96 1.641,62 0,00 2.793,58 7.678,82 726,01 0,00 30/09/2015
654 398700 DARCY LUIZ MILEO GREGATTI OFICIAL DO MP ATIVO LAMBARI - COMARCA; LAMBARI-PJ-SECRETARIA 5.658,41 565,84 0,00 0,00 0,00 0,00 6.224,25 684,67 654,02 0,00 1.338,69 4.885,56 726,01 0,00 30/09/2015
655 406200 DARIANA AUGUSTA DE TOLEDO PATROCINIO ASSESSOR/OFICIAL ATIVO BELO HORIZONTE - COMARCA; EXTINTA - DIRETORIA DE CONTRATOS E CONVÊNIOS 0,00 845,18 8.451,80 0,00 0,00 0,00 9.296,98 663,09 1.504,96 0,00 2.168,05 7.128,93 726,01 0,00 30/09/2015
656 305000 DARLI LEITE DE OLIVEIRA OFICIAL DO MP ATIVO ARAÇUAÍ - COMARCA; ARACUAI-PJ-01PJ 4.977,82 995,56 0,00 0,00 0,00 0,00 5.973,38 657,07 436,21 0,00 1.093,28 4.880,10 961,01 0,00 30/09/2015
657 122200 DAVID RIBEIRO DOS SANTOS ANALISTA DO MP ATIVO BORDA DA MATA - COMARCA; BORDA DA MATA-PJ-UNPJ 15.298,25 10.708,79 0,00 0,00 0,00 0,00 26.007,04 2.860,77 5.495,86 0,00 8.356,63 17.650,41 726,01 0,00 30/09/2015
658 389400 DAWSON CANEDO MARQUES OFICIAL DO MP ATIVO VARGINHA - COMARCA; VARGINHA-PJ-06PJ 6.032,93 603,29 0,00 0,00 0,00 0,00 6.636,22 729,98 338,17 0,00 1.068,15 5.568,07 961,01 0,00 30/09/2015
659 537200 DAYANE TEIXEIRA DE OLIVEIRA CASELLI ANALISTA DO MP ATIVO BONFINÓPOLIS DE MINAS - COMARCA; BONFINOPOLIS DE MINAS-PJ-UNPJ 5.842,66 0,00 0,00 0,00 0,00 0,00 5.842,66 642,69 560,63 0,00 1.203,32 4.639,34 726,01 0,00 30/09/2015
660 256100 DAYSE ROSALY PEREIRA BATISTA OFICIAL DO MP ATIVO BELO HORIZONTE - COMARCA; BH-08PJ JUIZADO ESPECIAL-SECRETARIA 6.032,93 1.206,59 0,00 0,00 0,00 0,00 7.239,52 796,35 902,51 0,00 1.698,86 5.540,66 726,01 0,00 30/09/2015
661 311901 DEBORA APARECIDA DA SILVA ASSESSOR ATIVO BELO HORIZONTE - COMARCA; BH-23PJ CIVEL-SETOR ATEND PUB 0,00 0,00 2.500,62 0,00 0,00 0,00 2.500,62 354,93 58,36 0,00 413,29 2.087,33 726,01 0,00 30/09/2015
662 194301 DEBORA APARECIDA DOS SANTOS ANALISTA DO MP ATIVO UBERLÂNDIA - COMARCA; UBERLANDIA-PJ-SEC FAMILIA 11.276,58 3.382,97 0,00 0,00 0,00 0,00 14.659,55 1.612,55 2.666,43 0,00 4.278,98 10.380,57 726,01 0,00 30/09/2015
663 518800 DEBORA CARVALHO FIORATTO OFICIAL DO MP ATIVO BELO HORIZONTE - COMARCA; EXTINTA - DIVISÃO DE APOIO À LICITAÇÃO 4.241,01 254,46 0,00 0,00 0,00 0,00 4.495,47 494,50 264,09 0,00 758,59 3.736,88 961,01 0,00 30/09/2015
664 444900 DEBORA CLAUDIA PEREIRA ALVES ANALISTA DO MP ATIVO BELO HORIZONTE - COMARCA; BH-08PJ JUIZADO ESPECIAL-SECRETARIA 7.435,23 743,52 0,00 0,00 0,00 0,00 8.178,75 899,66 1.132,39 0,00 2.032,05 6.146,70 961,01 0,00 30/09/2015
665 617700 DEBORA COMANDUCI SCHREIDER ANALISTA DO MP ATIVO BICAS - COMARCA; BICAS-PJ-UNPJ 4.820,91 0,00 0,00 0,00 0,00 0,00 4.820,91 530,30 286,60 0,00 816,90 4.004,01 961,01 0,00 30/09/2015
666 555700 DEBORA CRISTINA BUITRAGO PEREIRA ANALISTA DO MP ATIVO BELO HORIZONTE - COMARCA; EXTINTA - DIRETORIA DE CONTRATOS E CONVÊNIOS 5.842,66 0,00 0,00 0,00 0,00 0,00 5.842,66 642,69 560,63 0,00 1.203,32 4.639,34 726,01 0,00 30/09/2015
667 513100 DEBORA CRISTINA PEREIRA DE OLIVEIRA ANALISTA DO MP ATIVO BELO HORIZONTE - COMARCA; BH-23PJ CIVEL-SETOR JURIDICO 6.641,51 398,49 0,00 0,00 0,00 0,00 7.040,00 774,40 853,68 0,00 1.628,08 5.411,92 961,01 0,00 30/09/2015
668 612100 DEBORA DUARTE SILVA DE SOUZA OFICIAL DO MP ATIVO RIBEIRÃO DAS NEVES - COMARCA; RIBEIRAO DAS NEVES-PJ-06PJ 3.445,03 689,01 0,00 0,00 0,00 0,00 4.134,04 454,74 140,22 0,00 594,96 3.539,08 961,01 0,00 30/09/2015
669 539700 DEBORA SALES CARVALHO ANALISTA DO MP ATIVO PATOS DE MINAS - COMARCA; COORD REG PJ DEF EDU DIR CRI ADO AL PAR NOROE 5.842,66 0,00 0,00 0,00 0,00 0,00 5.842,66 642,69 560,63 0,00 1.203,32 4.639,34 726,01 0,00 30/09/2015
670 424100 DEBORA SANTOS E ALVES ANALISTA DO MP ATIVO JANUÁRIA - COMARCA; JANUARIA-PJ-01PJ 8.727,00 872,70 0,00 0,00 0,00 0,00 9.599,70 1.055,97 1.480,17 0,00 2.536,14 7.063,56 726,01 0,00 30/09/2015
671 426301 DEBORA SCUCATO MACHADO SOARES OFICIAL DO MP ATIVO NOVA LIMA - COMARCA; NOVA LIMA-PJ-01PJ 3.792,57 379,26 0,00 0,00 0,00 0,00 4.171,83 458,90 202,14 0,00 661,04 3.510,79 961,01 0,00 30/09/2015
672 550200 DEBORA TRINDADE LEITE ANALISTA DO MP ATIVO MANHUAÇU - COMARCA; MANHUACU-PJ-05PJ 5.842,66 0,00 0,00 0,00 0,00 0,00 5.842,66 642,69 456,36 0,00 1.099,05 4.743,61 726,01 0,00 30/09/2015
673 438000 DEBORAH COSTA LAGE ANALISTA DO MP ATIVO BELO HORIZONTE - COMARCA; ASSESS TECNICO-JUR JUNTO AS PROC. DE JUST 8.451,80 845,18 0,00 0,00 0,00 0,00 9.296,98 1.022,67 1.406,08 0,00 2.428,75 6.868,23 726,01 0,00 30/09/2015
674 475700 DEBORAH LOBAO LACERDA OFICIAL DO MP ATIVO BELO HORIZONTE - COMARCA; BH-17PJ PATRIMONIO PUBLICO-SECRETARIA 4.241,01 254,46 0,00 0,00 0,00 0,00 4.495,47 494,50 264,09 0,00 758,59 3.736,88 726,01 0,00 30/09/2015
675 613700 DEISER MARIA FERREIRA ROSCOE OFICIAL DO MP ATIVO BELO HORIZONTE - COMARCA; DIRETORIA DE PAGAMENTO DE PESSOAL-DPAG 3.445,03 0,00 0,00 0,00 0,00 0,00 3.445,03 378,95 105,11 0,00 484,06 2.960,97 726,01 0,00 30/09/2015
676 551900 DEISY ROCHA SILVA FREIRE ANALISTA DO MP ATIVO JOÃO PINHEIRO - COMARCA; JOAO PINHEIRO-PJ-01PJ 5.842,66 0,00 0,00 0,00 0,00 0,00 5.842,66 642,69 560,63 0,00 1.203,32 4.639,34 726,01 0,00 30/09/2015
677 501900 DELI RAQUEL RODRIGUES ANALISTA DO MP ATIVO ITUIUTABA - COMARCA; ITUIUTABA-PJ-04PJ 6.641,51 398,49 0,00 0,00 0,00 0,00 7.040,00 774,40 853,68 0,00 1.628,08 5.411,92 726,01 0,00 30/09/2015
678 378600 DELIANE LOPES VIEIRA BREIJAO NEVES ANALISTA DO MP ATIVO JUIZ DE FORA - COMARCA; JUIZ DE FORA-PJ-12PJ 8.727,00 872,70 0,00 0,00 0,00 0,00 9.599,70 1.055,97 1.428,03 0,00 2.484,00 7.115,70 961,01 0,00 30/09/2015
679 522500 DELMINDA MARIA LEAO E SILVA OFICIAL DO MP ATIVO ITAGUARA - COMARCA; ITAGUARA-PJ-UNPJ 3.557,16 2.490,02 0,00 0,00 0,00 0,00 6.047,18 665,19 610,69 0,00 1.275,88 4.771,30 726,01 0,00 30/09/2015
680 487700 DENIA FERREIRA MAIA SILVA OFICIAL DO MP ATIVO TRÊS CORACOES - COMARCA; TRES CORACOES-PJ-01PJ 4.241,01 254,46 0,00 0,00 0,00 0,00 4.495,47 494,50 221,43 0,00 715,93 3.779,54 726,01 0,00 30/09/2015
681 424800 DENIS APARECIDO CAMPOS DELFINO ANALISTA DO MP ATIVO LUZ - COMARCA; LUZ-PJ-UNPJ 8.185,27 818,53 0,00 0,00 0,00 0,00 9.003,80 990,42 1.125,77 0,00 2.116,19 6.887,61 961,01 0,00 30/09/2015
682 381400 DENISE ANGELICA MELLO DE PAULA OFICIAL DO MP ATIVO BELO HORIZONTE - COMARCA; BH-18PJ DIREITOS HUMANOS-SECRETARIA 6.032,93 603,29 0,00 0,00 0,00 0,00 6.636,22 729,98 754,86 0,00 1.484,84 5.151,38 726,01 0,00 30/09/2015
683 196300 DENISE DE ALMEIDA VILELA FURTADO OFICIAL DO MP ATIVO BELO HORIZONTE - COMARCA; CENTRAL DE APOIO TECNICO-SECRETARIA 7.435,23 2.230,57 0,00 0,00 0,00 0,00 9.665,80 1.063,24 1.444,21 0,00 2.507,45 7.158,35 726,01 0,00 30/09/2015
684 336900 DENISE DE SOUSA MORAES SILVA OFICIAL DO MP ATIVO MATEUS LEME - COMARCA; MATEUS LEME-PJ-02PJ 4.977,82 995,56 0,00 0,00 0,00 0,00 5.973,38 657,07 592,63 0,00 1.249,70 4.723,68 726,01 0,00 30/09/2015
685 271100 DENISE ELOY PEIXOTO OFICIAL DO MP ATIVO BELO HORIZONTE - COMARCA; DIRET DE DESENV DE RECURSOS HUMANOS-DDRH 7.200,74 1.440,15 0,00 0,00 0,00 0,00 8.640,89 950,50 1.245,50 0,00 2.196,00 6.444,89 726,01 0,00 30/09/2015
686 385400 DENISE FREITAS DE ASSIS OFICIAL DO MP ATIVO CARATINGA - COMARCA; CARATINGA-PJ-05PJ 5.307,28 1.705,55 0,00 0,00 0,00 0,00 7.012,83 642,18 778,29 0,00 1.420,47 5.592,36 726,01 0,00 30/09/2015
687 437100 DENISE NOGUEIRA MAGRI MENDES ANALISTA DO MP ATIVO BELO HORIZONTE - COMARCA; LAB TECNOLOGIA CONTRA LAVAGEM DINHEIRO 8.451,80 1.690,36 0,00 0,00 0,00 0,00 10.142,16 1.115,64 1.456,52 0,00 2.572,16 7.570,00 726,01 0,00 30/09/2015
688 524700 DENISE RAMOS GUIMARAES OFICIAL DO MP ATIVO BELO HORIZONTE - COMARCA; BH-07PJ 01 TRIBUNAL JURI-SECRETARIA 3.916,07 234,96 0,00 0,00 0,00 0,00 4.151,03 456,61 199,36 0,00 655,97 3.495,06 726,01 0,00 30/09/2015
689 239100 DENISE RIBEIRO DOS SANTOS CAETANO OFICIAL DO MP ATIVO ITANHANDU - COMARCA; ITANHANDU-PJ-SECRETARIA 7.435,23 1.487,05 0,00 0,00 0,00 0,00 8.922,28 981,45 1.210,09 0,00 2.191,54 6.730,74 726,01 0,00 30/09/2015
690 325500 DENISE ROSA TORRES COORDENADOR/OFICIAL ATIVO BELO HORIZONTE - COMARCA; DIRETORIA DE PESSOAL ADMINISTRATIVO - DPAD 0,00 1.921,48 9.607,41 0,00 0,00 0,00 11.528,89 849,04 2.183,20 0,00 3.032,24 8.496,65 726,01 420,35 30/09/2015
691 437200 DENISE VIVIANE DOS SANTOS ANALISTA DO MP ATIVO BELO HORIZONTE - COMARCA; ASSESS TECNICA DA CORREGEDORIA-GERAL DO MP 7.435,23 743,52 0,00 0,00 0,00 0,00 8.178,75 899,66 1.080,25 0,00 1.979,91 6.198,84 961,01 0,00 30/09/2015
692 267900 DENISIA DE ALMEIDA SALES OFICIAL DO MP ATIVO BELO HORIZONTE - COMARCA; CAO-CRIMINAL-SECRETARIA 5.139,92 1.027,98 0,00 0,00 0,00 0,00 6.167,90 678,47 588,10 0,00 1.266,57 4.901,33 726,01 0,00 30/09/2015
693 480300 DESIREE ARANTES FERREIRA GOUVEA OFICIAL DO MP ATIVO PRATÁPOLIS - COMARCA; PRATAPOLIS-PJ-UNPJ 3.916,07 234,96 0,00 0,00 0,00 0,00 4.151,03 456,61 199,36 0,00 655,97 3.495,06 726,01 0,00 30/09/2015
694 355300 DEYSE CRISTINA MORAIS OFICIAL DO MP ATIVO PASSOS - COMARCA; PASSOS-PJ-02PJ 6.032,93 603,29 0,00 0,00 0,00 0,00 6.636,22 729,98 754,86 0,00 1.484,84 5.151,38 726,01 0,00 30/09/2015
695 523700 DIANA CAMPOS RESENDE OFICIAL DO MP ATIVO SÃO JOÃO DEL REI - COMARCA; SAO JOAO DEL REI-PJ-04PJ 4.241,01 1.696,40 0,00 0,00 0,00 0,00 5.937,41 653,12 479,55 0,00 1.132,67 4.804,74 726,01 0,00 30/09/2015
696 241900 DIANA CARDOSO MARTINS OFICIAL DO MP ATIVO BELO HORIZONTE - COMARCA; CAO-DH APOIO COMUNITARIO-SEC ADM 6.229,29 1.245,86 0,00 0,00 0,00 0,00 7.475,15 822,27 960,18 0,00 1.782,45 5.692,70 726,01 0,00 30/09/2015
697 410100 DIANA GORDILHO SILVEIRA SENA ANALISTA DO MP ATIVO BELO HORIZONTE - COMARCA; ASSESS TECNICO-JUR JUNTO AS PROC. DE JUST 8.727,00 872,70 0,00 0,00 0,00 0,00 9.599,70 1.055,97 1.480,17 0,00 2.536,14 7.063,56 726,01 0,00 30/09/2015
698 553000 DIANA MARIA MARQUES ANALISTA DO MP ATIVO BETIM - COMARCA; BETIM-PJ-13PJ 5.307,28 0,00 0,00 0,00 0,00 0,00 5.307,28 583,80 384,00 0,00 967,80 4.339,48 726,01 0,00 30/09/2015
699 520000 DIARLE TOSTE DOS SANTOS ANALISTA DO MP ATIVO RIO POMBA - COMARCA; RIO POMBA-PJ-UNPJ 6.641,51 398,49 0,00 0,00 0,00 0,00 7.040,00 774,40 801,54 0,00 1.575,94 5.464,06 726,01 0,00 30/09/2015
700 539800 DIEGO CAMARGOS RODRIGUES OFICIAL DO MP ATIVO CONTAGEM - COMARCA; CONTAGEM-PJ-09PJ 3.445,03 0,00 0,00 0,00 0,00 0,00 3.445,03 378,95 105,11 0,00 484,06 2.960,97 726,01 0,00 30/09/2015
701 607300 DIEGO CERVEIRA DE SOUZA ANALISTA DO MP ATIVO PATOS DE MINAS - COMARCA; COORD REG BACIAS PARACATU,URUCUIA E ABAETE 5.307,28 0,00 0,00 0,00 0,00 0,00 5.307,28 583,80 429,60 0,00 1.013,40 4.293,88 726,01 0,00 30/09/2015
702 446900 DIEGO DE FREITAS OFICIAL DO MP ATIVO UBERABA - COMARCA; UBERABA-PJ-06PJ 4.379,06 437,91 0,00 0,00 0,00 0,00 4.816,97 529,87 328,47 0,00 858,34 3.958,63 726,01 0,00 30/09/2015
703 379801 DIEGO OSORIO DA SILVA CORDEIRO ANALISTA DO MP ATIVO CONSELHEIRO LAFAIETE - COMARCA; CONSELHEIRO LAFAIETE-PJ-08PJ 5.842,66 0,00 0,00 0,00 0,00 0,00 5.842,66 642,69 560,63 0,00 1.203,32 4.639,34 726,01 0,00 30/09/2015
704 288800 DILENE NEPOMUCENO ALVES OFICIAL DO MP ATIVO BELO HORIZONTE - COMARCA; DIRETORIA DE PESSOAL ADMINISTRATIVO - DPAD 6.973,67 1.394,73 0,00 0,00 0,00 0,00 8.368,40 920,52 1.178,81 0,00 2.099,33 6.269,07 726,01 0,00 30/09/2015
705 270101 DILSON DO AMARAL ANALISTA DO MP ATIVO RIO CASCA - COMARCA; RIO CASCA-PJ-UNPJ 5.842,66 0,00 0,00 0,00 0,00 0,00 5.842,66 642,69 560,63 0,00 1.203,32 4.639,34 726,01 0,00 30/09/2015
706 466000 DIMITRI GUDE MARCIAL ANALISTA DO MP ATIVO NANUQUE - COMARCA; NANUQUE-PJ-02PJ 6.641,51 398,49 0,00 0,00 0,00 0,00 7.040,00 774,40 801,54 0,00 1.575,94 5.464,06 1.017,33 0,00 30/09/2015
707 516300 DINORA APARECIDA MACEDO BRANDAO ANALISTA DO MP ATIVO BELO HORIZONTE - COMARCA; ASSESS JUR DO CONS SUPERIOR DO MINISTERIO PUB 5.480,05 328,80 0,00 0,00 0,00 0,00 5.808,85 638,97 552,36 0,00 1.191,33 4.617,52 726,01 0,00 30/09/2015
708 511700 DIOGENES HENRIQUES PEREIRA LOURENCO ANALISTA DO MP ATIVO CONTAGEM - COMARCA; CONTAGEM-PJ-22PJ 6.641,51 398,49 0,00 0,00 0,00 0,00 7.040,00 774,40 853,68 0,00 1.628,08 5.411,92 726,01 0,00 30/09/2015
709 604100 DIOGO CESAR DE OLIVEIRA HONORIO ASSESSOR ATIVO PIUMHI - COMARCA; PIUMHI-PJ-02PJ 0,00 0,00 2.500,62 0,00 0,00 0,00 2.500,62 354,93 75,96 0,00 430,89 2.069,73 726,01 0,00 30/09/2015
710 387800 DIOGO FELIX DA SILVA OFICIAL DO MP ATIVO CONSELHEIRO PENA - COMARCA; CONSELHEIRO PENA-PJ-01PJ 4.977,82 497,78 0,00 0,00 0,00 0,00 5.475,60 602,32 470,79 0,00 1.073,11 4.402,49 726,01 0,00 30/09/2015
711 259600 DIOGO MESQUITA MAIA ANALISTA DO MP ATIVO BELO HORIZONTE - COMARCA; DIRET DE APOIO AS PROCURADORIAS DE JUSTICA 10.576,63 7.403,64 0,00 0,00 0,00 0,00 17.980,27 1.977,83 3.427,04 0,00 5.404,87 12.575,40 1.888,17 106,53 30/09/2015
712 364100 DIOGO OLIVEIRA CANUTO OFICIAL DO MP ATIVO BELO HORIZONTE - COMARCA; EXTINTA-04ª PJ JUÍZO REG PÚBLICOS-SECRETARIA 6.032,93 603,29 0,00 0,00 0,00 0,00 6.636,22 729,98 754,86 0,00 1.484,84 5.151,38 726,01 0,00 30/09/2015
713 386700 DIRCIMAR FERNANDES CARNEIRO OFICIAL DO MP ATIVO VISCONDE DO RIO BRANCO - COMARCA; VISCONDE DO RIO BRANCO-PJ-03PJ 5.480,05 2.740,03 0,00 0,00 0,00 0,00 8.220,08 904,21 1.142,50 0,00 2.046,71 6.173,37 767,74 0,00 30/09/2015
714 113800 DIRSON APARECIDO GUIMARAES ASSESSOR ATIVO BELO HORIZONTE - COMARCA; DIVISAO DE MANUTENCAO PREDIAL 0,00 3.340,14 4.175,17 0,00 0,00 0,00 7.515,31 513,01 765,38 0,00 1.278,39 6.236,92 726,01 0,00 30/09/2015
715 216700 DOMICIO VALDETE PEREIRA OFICIAL DO MP ATIVO TEÓFILO OTONI - COMARCA; COORD REG PJ DEF EDU DIR CRIAN ADOL JEQUI MUC 9.011,08 2.703,32 0,00 0,00 0,00 0,00 11.714,40 1.288,58 1.841,33 0,00 3.129,91 8.584,49 726,01 0,00 30/09/2015
716 85700 DONIZETTE PEREIRA DOS SANTOS OFICIAL DO MP ATIVO BELO HORIZONTE - COMARCA; EXTINTA - PROTOCOLO DA PGJ 17.188,14 13.750,51 0,00 0,00 0,00 0,00 30.938,65 3.351,82 6.484,17 467,54 10.303,53 20.635,12 4.788,82 372,43 30/09/2015
717 192701 DONIZETTI APARECIDO AMORIM ANALISTA DO MP ATIVO PRATÁPOLIS - COMARCA; PRATAPOLIS-PJ-UNPJ 6.032,93 1.809,88 0,00 0,00 0,00 0,00 7.842,81 862,71 998,03 0,00 1.860,74 5.982,07 726,01 0,00 30/09/2015
718 558700 DORCILIA FATIMA DE OLIVEIRA OFICIAL DO MP ATIVO DIVINÓPOLIS - COMARCA; DIVINOPOLIS-PJ-02PJ 3.445,03 0,00 0,00 0,00 0,00 0,00 3.445,03 378,95 76,67 0,00 455,62 2.989,41 726,01 0,00 30/09/2015
719 555300 DOUGLAS CUNHA DE SOUZA ANALISTA DO MP ATIVO VARZEA DA PALMA - COMARCA; VARZEA DA PALMA-PJ-01PJ 5.842,66 0,00 0,00 0,00 0,00 0,00 5.842,66 642,69 560,63 0,00 1.203,32 4.639,34 726,01 0,00 30/09/2015
720 265900 DOUGLAS GOMES MOREIRA ANALISTA DO MP ATIVO BELO HORIZONTE - COMARCA; CENTRAL DE APOIO TECNICO-SETOR DE ENGENHARIA 11.643,70 2.328,74 0,00 0,00 0,00 0,00 13.972,44 1.536,97 2.550,39 0,00 4.087,36 9.885,08 726,01 0,00 30/09/2015
721 241000 DOUGLAS MEIRELLES DE CASTRO OFICIAL DO MP ATIVO CONCEIÇÃO DO RIO VERDE - COMARCA; CONCEICAO DO RIO VERDE-PJ-UNPJ 8.451,80 2.535,54 0,00 0,00 0,00 0,00 10.987,34 1.208,61 1.715,52 0,00 2.924,13 8.063,21 961,01 0,00 30/09/2015
722 534900 DOUGLAS SILVA E SOUZA ANALISTA DO MP ATIVO CAMPOS GERAIS - COMARCA; CAMPOS GERAIS-PJ-SECRETARIA 5.842,66 0,00 0,00 0,00 0,00 0,00 5.842,66 642,69 508,49 0,00 1.151,18 4.691,48 726,01 0,00 30/09/2015
723 630700 DOUGLAS TAVEIRA LEMOS DE OLIVEIRA ANALISTA DO MP ATIVO BELO HORIZONTE - COMARCA; BH-18PJ VIOLENCIA DOMESTICA 5.139,92 0,00 0,00 0,00 0,00 0,00 5.139,92 565,39 393,14 0,00 958,53 4.181,39 726,01 0,00 30/09/2015
724 615600 DOUGLAS URIEL SOARES MOREIRA SILVA ANALISTA DO MP ATIVO IPATINGA - COMARCA; IPATINGA-PJ-01PJ 4.820,91 0,00 0,00 0,00 0,00 0,00 4.820,91 530,30 329,26 0,00 859,56 3.961,35 726,01 0,00 30/09/2015
725 638900 DOUGLAS WALLAS CONCEICAO NEVES OFICIAL DO MP ATIVO RIBEIRÃO DAS NEVES - COMARCA; RIBEIRAO DAS NEVES-PJ-SEC CIVEL 3.030,62 0,00 0,00 0,00 0,00 0,00 3.030,62 333,37 59,49 0,00 392,86 2.637,76 726,01 0,00 30/09/2015
726 146800 DUCINALVA AMARAL LOPES REIS OFICIAL DO MP ATIVO PARAISÓPOLIS - COMARCA; PARAISOPOLIS-PJ-UNPJ 11.276,58 5.638,29 0,00 0,00 0,00 0,00 16.914,87 1.860,64 3.166,28 0,00 5.026,92 11.887,95 726,01 0,00 30/09/2015
727 122500 DUILIO CARLOS FERREIRA UTSCH OFICIAL DO MP ATIVO CONCEIÇÃO DO MATO DENTRO - COMARCA; CONCEICAO DO MATO DENTRO-PJ-UNPJ 9.011,08 6.307,75 0,00 0,00 0,00 0,00 15.318,83 1.685,07 2.879,92 0,00 4.564,99 10.753,84 726,01 0,00 30/09/2015
728 201800 DULCINEIA ANDRE DE SOUZA OFICIAL DO MP ATIVO JEQUITINHONHA - COMARCA; JEQUITINHONHA-PJ-SECRETARIA 9.011,08 2.703,32 0,00 0,00 0,00 0,00 11.714,40 1.288,58 1.789,19 0,00 3.077,77 8.636,63 726,01 0,00 30/09/2015
729 395800 DUVIDIER MEDIRCIO JUNIOR ANALISTA DO MP ATIVO BELO HORIZONTE - COMARCA; CENTRAL DE APOIO TECNICO-SETOR DE ENGENHARIA 9.607,41 960,74 0,00 0,00 0,00 0,00 10.568,15 1.162,50 1.717,19 0,00 2.879,69 7.688,46 726,01 0,00 30/09/2015
730 604800 ECIA RAMILIS ISSA DE ABREU ANALISTA DO MP ATIVO MONTALVÂNIA - COMARCA; MONTALVANIA-PJ-UNPJ 4.820,91 0,00 0,00 0,00 0,00 0,00 4.820,91 530,30 329,26 0,00 859,56 3.961,35 726,01 0,00 30/09/2015
731 273000 EDELFINA APARECIDA GUIMARAES OFICIAL DO MP ATIVO BELO HORIZONTE - COMARCA; PROMOT ESTADUAL DE DEF PATRI CULT E TUR DE MG 6.432,09 3.216,05 0,00 0,00 0,00 0,00 9.648,14 1.061,30 1.439,88 0,00 2.501,18 7.146,96 726,01 0,00 30/09/2015
732 523300 EDER DOS SANTOS PATRICIO ANALISTA DO MP ATIVO NOVA SERRANA - COMARCA; NOVA SERRANA-PJ-03PJ 6.641,51 398,49 0,00 0,00 0,00 0,00 7.040,00 774,40 853,68 0,00 1.628,08 5.411,92 726,01 0,00 30/09/2015
733 356700 EDER JOSE PACHECO OFICIAL DO MP ATIVO CAMPO BELO - COMARCA; CAMPO BELO-PJ-SECRETARIA 6.229,29 622,93 0,00 0,00 0,00 0,00 6.852,22 753,74 807,72 0,00 1.561,46 5.290,76 939,38 0,00 30/09/2015
734 507900 EDERSON SILVA LOPES OFICIAL DO MP ATIVO BELO HORIZONTE - COMARCA; SERVICO MEDICO-DEPTO PERIC MEDICA SAUDE OCUP 3.557,16 213,43 0,00 0,00 0,00 0,00 3.770,59 414,76 91,70 0,00 506,46 3.264,13 961,01 0,00 30/09/2015
735 296200 EDGARD GOULART MATOSINHO DE LAET JUNIOR ANALISTA DO MP ATIVO GOVERNADOR VALADARES - COMARCA; GOVERNADOR VALADARES-PJ-12PJ 10.576,63 2.115,33 0,00 0,00 0,00 0,00 12.691,96 1.396,12 2.080,58 0,00 3.476,70 9.215,26 726,01 0,00 30/09/2015
736 295000 EDILA MARIA DA SILVEIRA OFICIAL DO MP ATIVO FORMIGA - COMARCA; FORMIGA-PJ-SECRETARIA 5.480,05 1.096,01 0,00 0,00 0,00 0,00 6.576,06 723,37 740,13 0,00 1.463,50 5.112,56 726,01 0,00 30/09/2015
737 332300 EDILA MARILAC MIRANDA PRADO OFICIAL DO MP ATIVO DIAMANTINA - COMARCA; COORD REG BACIAS RIOS JEQUITINHONHA E MUCURI 6.032,93 2.413,17 0,00 0,00 0,00 0,00 8.446,10 929,07 1.093,55 0,00 2.022,62 6.423,48 726,01 0,00 30/09/2015
738 376600 EDILANE CONSOLACAO ROSA NAZARETH ANALISTA DO MP ATIVO BETIM - COMARCA; BETIM-PJ-10PJ 8.727,00 872,70 0,00 0,00 0,00 0,00 9.599,70 1.055,97 1.480,17 0,00 2.536,14 7.063,56 726,01 0,00 30/09/2015
739 301500 EDILENE APARECIDA DE CARVALHO ANALISTA DO MP ATIVO BELO HORIZONTE - COMARCA; DIRETORIA DE ADMINISTRACAO FINANCEIRA 10.576,63 2.115,33 0,00 0,00 0,00 0,00 12.691,96 1.396,12 2.184,86 0,00 3.580,98 9.110,98 726,01 0,00 30/09/2015
740 309800 EDILZA DOS REIS OFICIAL DO MP ATIVO UBERLÂNDIA - COMARCA; UBERLANDIA-PJ-03PJ 6.857,79 1.371,56 0,00 0,00 0,00 0,00 8.229,35 905,23 1.092,64 0,00 1.997,87 6.231,48 726,01 0,00 30/09/2015
741 200500 EDINEIA MARIA DE OLIVEIRA ANTUNES OFICIAL DO MP ATIVO MONTES CLAROS - COMARCA; MONTES CLAROS-PJ-10PJ 9.920,24 2.976,07 0,00 0,00 0,00 0,00 12.896,31 1.418,59 2.287,01 0,00 3.705,60 9.190,71 961,01 0,00 30/09/2015
742 427700 EDISANGELA SOARES LOPES OFICIAL DO MP ATIVO PIRAPORA - COMARCA; PIRAPORA-PJ-02PJ 4.820,91 482,09 0,00 0,00 0,00 0,00 5.303,00 583,33 428,55 0,00 1.011,88 4.291,12 726,01 0,00 30/09/2015
743 555400 EDISON MONTEIRO SAMPAIO NETO ANALISTA DO MP ATIVO BELO HORIZONTE - COMARCA; BH-12PJ JUIZO CRIMINAL-GAB 094PJ 5.842,66 0,00 0,00 0,00 0,00 0,00 5.842,66 642,69 560,63 0,00 1.203,32 4.639,34 726,01 0,00 30/09/2015
744 517700 EDMILSON TADEU FERNANDES OFICIAL DO MP ATIVO POUSO ALEGRE - COMARCA; POUSO ALEGRE-PJ-SECRETARIA 4.241,01 254,46 0,00 0,00 0,00 0,00 4.495,47 494,50 264,09 0,00 758,59 3.736,88 726,01 0,00 30/09/2015
745 358400 EDNA APARECIDA SILVA FERREIRA OFICIAL DO MP ATIVO CORONEL FABRICIANO - COMARCA; CORONEL FABRICIANO-PJ-SECRETARIA 6.032,93 603,29 0,00 0,00 0,00 0,00 6.636,22 729,98 754,86 0,00 1.484,84 5.151,38 726,01 0,00 30/09/2015
746 331800 EDNA MARCIA CAMILO DA SILVA OFICIAL DO MP ATIVO SETE LAGOAS - COMARCA; SETE LAGOAS-PJ-07PJ 6.432,09 1.286,42 0,00 0,00 0,00 0,00 7.718,51 849,04 1.019,74 0,00 1.868,78 5.849,73 726,01 0,00 30/09/2015
747 422800 EDNILSON DE SOUZA FERREIRA ASSESSOR ATIVO BELO HORIZONTE - COMARCA; DIRET DE INFORMACAO E EXPEDICAO DE PROCESSOS 0,00 0,00 2.500,62 0,00 0,00 0,00 2.500,62 354,93 44,14 0,00 399,07 2.101,55 726,01 0,00 30/09/2015
748 327900 EDRIEL SANTANA PEREIRA OFICIAL DO MP ATIVO TUPACIGUARA - COMARCA; TUPACIGUARA-PJ-UNPJ 6.432,09 1.286,42 0,00 0,00 0,00 0,00 7.718,51 849,04 1.019,74 0,00 1.868,78 5.849,73 961,01 0,00 30/09/2015
749 482400 EDSON GARCIA OFICIAL DO MP ATIVO MACHADO - COMARCA; MACHADO-PJ-02PJ 3.916,07 234,96 0,00 0,00 0,00 0,00 4.151,03 456,61 142,49 0,00 599,10 3.551,93 726,01 0,00 30/09/2015
750 225601 EDSON LABRE FILHO ANALISTA DO MP ATIVO VARGINHA - COMARCA; VARGINHA-PJ-01PJ 10.576,63 2.115,33 0,00 0,00 0,00 0,00 12.691,96 1.396,12 2.184,86 0,00 3.580,98 9.110,98 726,01 0,00 30/09/2015
751 602700 EDSON NOGUEIRA BUENO OFICIAL DO MP ATIVO PITANGUI - COMARCA; PITANGUI-PJ-02PJ 3.129,28 0,00 0,00 0,00 0,00 0,00 3.129,28 344,22 66,08 0,00 410,30 2.718,98 726,01 0,00 30/09/2015
752 414400 EDUARDO ABRANTES CAMPOS ANALISTA DO MP ATIVO OLIVEIRA - COMARCA; OLIVEIRA-PJ-02PJ 8.727,00 872,70 0,00 0,00 0,00 0,00 9.599,70 1.055,97 1.480,17 0,00 2.536,14 7.063,56 726,01 0,00 30/09/2015
753 476800 EDUARDO ALVES DE MOURA ANALISTA DO MP ATIVO UBERLÂNDIA - COMARCA; UBERLANDIA-PJ-19PJ 7.200,74 432,04 0,00 0,00 0,00 0,00 7.632,78 839,61 894,49 0,00 1.734,10 5.898,68 961,01 0,00 30/09/2015
754 390800 EDUARDO AMORIM PETTERSEN OFICIAL DO MP ATIVO CARANGOLA - COMARCA; CARANGOLA-PJ-03PJ 5.307,28 530,73 0,00 0,00 0,00 0,00 5.838,01 642,18 559,49 0,00 1.201,67 4.636,34 726,01 0,00 30/09/2015
755 633200 EDUARDO ANTONIO CODO SANTOS ASSESSOR ATIVO BELO HORIZONTE - COMARCA; ASSESSORIA ESPECIAL FINANCEIRA DO PGJAA 0,00 10.038,02 20.076,03 0,00 0,00 0,00 30.114,05 1.405,69 7.025,44 0,00 8.431,13 21.682,92 726,01 0,00 30/09/2015
756 461600 EDUARDO ANTONIO DE ASSIS FARIA ASSESSOR ATIVO BELO HORIZONTE - COMARCA; ASSESS EXECUTIVA DO CONSELHO SUPERIOR DO MP 0,00 0,00 4.175,17 0,00 0,00 0,00 4.175,17 513,01 308,55 0,00 821,56 3.353,61 726,01 0,00 30/09/2015
757 248800 EDUARDO DE CASTRO AMORIM ANALISTA DO MP ATIVO BELO HORIZONTE - COMARCA; BH-01PJ FAZENDA PUBLICA EXEC FISCAIS 12.022,83 2.404,57 0,00 0,00 0,00 0,00 14.427,40 1.587,01 2.661,75 0,00 4.248,76 10.178,64 726,01 0,00 30/09/2015
758 209100 EDUARDO DE SOUZA MAIA ANALISTA DO MP ATIVO BELO HORIZONTE - COMARCA; CAO-TS-TERCEIRO SETOR-ASSESSORIA JURIDICA 14.155,19 4.246,56 0,00 0,00 0,00 0,00 18.401,75 2.024,19 3.478,06 0,00 5.502,25 12.899,50 726,01 0,00 30/09/2015
759 633900 EDUARDO GONCALVES PIRES OFICIAL DO MP ATIVO BELO HORIZONTE - COMARCA; BH-19PJ SAUDE-SECRETARIA 150PJ 3.336,37 667,27 0,00 0,00 0,00 0,00 4.003,64 440,40 179,69 0,00 620,09 3.383,55 726,01 0,00 30/09/2015
760 350500 EDUARDO GONCALVES RIBEIRO OFICIAL DO MP ATIVO VESPASIANO - COMARCA; VESPASIANO-PJ-04PJ 4.977,82 497,78 0,00 0,00 0,00 0,00 5.475,60 602,32 470,79 0,00 1.073,11 4.402,49 726,01 0,00 30/09/2015
761 115800 EDUARDO HENRIQUE DE CAMPOS MAIA OFICIAL DO MP ATIVO BELO HORIZONTE - COMARCA; EXTINTA - DIVISAO DE SERVICOS GERAIS 10.243,18 4.097,27 0,00 0,00 0,00 0,00 14.340,45 1.577,45 2.536,19 0,00 4.113,64 10.226,81 726,01 0,00 30/09/2015
762 392600 EDUARDO HENRIQUE DOS SANTOS COSTA ELIAZAR OFICIAL DO MP ATIVO MATOZINHOS - COMARCA; MATOZINHOS-PJ-02PJ 5.307,28 530,73 0,00 0,00 0,00 0,00 5.838,01 642,18 404,96 0,00 1.047,14 4.790,87 1.196,01 0,00 30/09/2015
763 122900 EDUARDO JOSE COSTA SILVA OFICIAL DO MP ATIVO SETE LAGOAS - COMARCA; SETE LAGOAS-PJ-04PJ 13.616,17 9.531,32 0,00 0,00 0,00 0,00 23.147,49 2.546,22 4.795,99 0,00 7.342,21 15.805,28 726,01 0,00 30/09/2015
764 418700 EDUARDO LEMOS SIMOES OFICIAL DO MP ATIVO LAVRAS - COMARCA; COORD REG DO MA DA BACIA DO RIO GRANDE 5.139,92 513,99 0,00 0,00 0,00 0,00 5.653,91 621,93 514,43 0,00 1.136,36 4.517,55 726,01 0,00 30/09/2015
765 407500 EDUARDO MASCARENHAS CURI AZEVEDO ANALISTA DO MP ATIVO BELO HORIZONTE - COMARCA; DIRETORIA DE IMPRENSA 7.435,23 743,52 0,00 0,00 0,00 0,00 8.178,75 899,66 1.132,39 0,00 2.032,05 6.146,70 726,01 0,00 30/09/2015
766 601300 EDUARDO TRAD VIEIRA OFICIAL DO MP ATIVO RIBEIRÃO DAS NEVES - COMARCA; RIBEIRAO DAS NEVES-PJ-01PJ 3.129,28 0,00 0,00 0,00 0,00 0,00 3.129,28 344,22 66,08 0,00 410,30 2.718,98 961,01 0,00 30/09/2015
767 257600 EDUARDO VALADARES CABRAL ANALISTA DO MP ATIVO BELO HORIZONTE - COMARCA; PROCON-MG-GAB DO COORDENADOR DO PROCON-MG 9.607,41 1.921,48 0,00 0,00 0,00 0,00 11.528,89 1.268,18 1.952,34 0,00 3.220,52 8.308,37 726,01 0,00 30/09/2015
768 545700 EDVAIR FERREIRA DE CARVALHO OFICIAL DO MP ATIVO ARAGUARI - COMARCA; ARAGUARI-PJ-06PJ 3.445,03 0,00 0,00 0,00 0,00 0,00 3.445,03 378,95 58,72 0,00 437,67 3.007,36 726,01 0,00 30/09/2015
769 401700 EDWANIA AMORIM DO CARMO OFICIAL DO MP ATIVO RIBEIRÃO DAS NEVES - COMARCA; RIBEIRAO DAS NEVES-PJ-03PJ 5.480,05 548,01 0,00 0,00 0,00 0,00 6.028,06 663,09 606,01 0,00 1.269,10 4.758,96 726,01 0,00 30/09/2015
770 303600 EFIGENIO SARAIVA LOPES ANALISTA DO MP ATIVO BELO HORIZONTE - COMARCA; DIRETORIA DE PAGAMENTO DE PESSOAL-DPAG 11.643,70 2.328,74 0,00 0,00 0,00 0,00 13.972,44 1.536,97 2.446,12 0,00 3.983,09 9.989,35 2.510,02 163,53 30/09/2015
771 312000 ELAINE APARECIDA DE ARAUJO RODRIGUES ASSESSOR/OFICIAL ATIVO DIVINÓPOLIS - COMARCA; DIVINOPOLIS-PJ-02PJ 0,00 4.649,05 6.641,51 0,00 0,00 1.164,88 12.455,44 1.164,88 2.235,54 0,00 3.400,42 9.055,02 726,01 0,00 30/09/2015
772 286000 ELAINE APARECIDA SILVA BERZOINI OFICIAL DO MP ATIVO JUIZ DE FORA - COMARCA; JUIZ DE FORA-PJ-07PJ 6.973,67 1.394,73 0,00 0,00 0,00 0,00 8.368,40 920,52 1.178,81 0,00 2.099,33 6.269,07 726,01 0,00 30/09/2015
773 509000 ELAINE CANDIDA PONTES OFICIAL DO MP ATIVO BELO HORIZONTE - COMARCA; BH-02PJ FAMILIA-SECRETARIA 3.916,07 234,96 0,00 0,00 0,00 0,00 4.151,03 456,61 199,36 0,00 655,97 3.495,06 726,01 0,00 30/09/2015
774 283601 ELAINE CRISTINA MEQUELINO DUARTE ANALISTA DO MP ATIVO ALFENAS - COMARCA; ALFENAS-PJ-04PJ 8.727,00 872,70 0,00 0,00 0,00 0,00 9.599,70 1.055,97 1.375,89 0,00 2.431,86 7.167,84 1.196,01 0,00 30/09/2015
775 535500 ELAINE DE OLIVEIRA CAMPOS REIS OFICIAL DO MP ATIVO RIBEIRÃO DAS NEVES - COMARCA; RIBEIRAO DAS NEVES-PJ-11PJ 3.445,03 0,00 0,00 0,00 0,00 0,00 3.445,03 378,95 105,11 0,00 484,06 2.960,97 726,01 0,00 30/09/2015
776 455700 ELAINE DE OLIVEIRA CASTRO ANALISTA DO MP ATIVO POMPÉU - COMARCA; POMPEU-PJ-UNPJ 6.641,51 398,49 0,00 0,00 2.346,67 0,00 9.386,67 774,40 1.446,88 0,00 2.221,28 7.165,39 937,51 0,00 30/09/2015
777 367200 ELAINE MUNIZ BARBOSA ANALISTA DO MP ATIVO BELO HORIZONTE - COMARCA; DIRETORIA DE SISTEMAS DE INFORMACAO 9.920,24 992,02 0,00 0,00 3.637,42 0,00 14.549,68 1.200,35 2.801,71 0,00 4.002,06 10.547,62 726,01 0,00 30/09/2015
778 176900 ELAINE RIBEIRO TAVEIRA OFICIAL DO MP ATIVO BELO HORIZONTE - COMARCA; DIRETORIA DE PESSOAL ADMINISTRATIVO - DPAD 8.185,27 2.455,58 0,00 0,00 0,00 0,00 10.640,85 1.170,49 1.734,99 0,00 2.905,48 7.735,37 726,01 0,00 30/09/2015
779 496200 ELAINE SABRINA DIAS MOREIRA ANALISTA DO MP ATIVO CORONEL FABRICIANO - COMARCA; CORONEL FABRICIANO-PJ-03PJ 6.641,51 398,49 0,00 0,00 0,00 0,00 7.040,00 774,40 853,68 0,00 1.628,08 5.411,92 726,01 0,00 30/09/2015
780 489200 ELAINE VICENTINO GARCIA ANALISTA DO MP ATIVO BELO HORIZONTE - COMARCA; CENTRAL DE APOIO TECNICO-SETOR CONTABIL 7.200,74 1.440,15 0,00 0,00 0,00 0,00 8.640,89 950,50 1.141,22 0,00 2.091,72 6.549,17 961,01 0,00 30/09/2015
781 244500 ELCI ALVES DE SOUZA ASSESSOR ATIVO BELO HORIZONTE - COMARCA; CAO-CONFLITOS AGRARIOS-SECRETARIA 0,00 835,03 4.175,17 0,00 0,00 0,00 5.010,20 513,01 514,88 0,00 1.027,89 3.982,31 726,01 0,00 30/09/2015
782 472500 ELCI VAZ DE OLIVEIRA FILHO ANALISTA DO MP ATIVO PIUMHI - COMARCA; PIUMHI-PJ-02PJ 7.200,74 2.880,30 0,00 0,00 0,00 0,00 10.081,04 1.108,91 1.597,98 0,00 2.706,89 7.374,15 726,01 0,00 30/09/2015
783 385200 ELCI VIANA REIS OFICIAL DO MP ATIVO RIO PARDO DE MINAS - COMARCA; RIO PARDO DE MINAS-PJ-SECRETARIA 6.032,93 1.809,88 0,00 0,00 0,00 0,00 7.842,81 862,71 1.050,17 0,00 1.912,88 5.929,93 805,37 0,00 30/09/2015
784 289801 ELCIO JOSE DOS SANTOS ASSESSOR/ANALISTA ATIVO BELO HORIZONTE - COMARCA; EXTINTA - DIVISAO DE SERVICOS GERAIS 0,00 930,45 9.304,45 0,00 0,00 0,00 10.234,90 899,66 1.697,83 0,00 2.597,49 7.637,41 726,01 0,00 30/09/2015
785 123000 ELCIO VILHENA DE FARIA OFICIAL DO MP ATIVO BELO HORIZONTE - COMARCA; DIVISAO DE MEMORIA INSTITUCIONAL 13.616,17 10.892,94 0,00 0,00 0,00 2.696,00 27.205,11 2.696,00 5.870,65 0,00 8.566,65 18.638,46 726,01 0,00 30/09/2015
786 319600 ELEN TULER DE ALBERGARIA ANALISTA DO MP ATIVO BELO HORIZONTE - COMARCA; BH-19PJ SAUDE 9.011,08 2.703,32 0,00 0,00 0,00 0,00 11.714,40 1.288,58 1.997,74 0,00 3.286,32 8.428,08 1.196,01 0,00 30/09/2015
787 333100 ELENILDA ROCHA DE MORAES MELO OFICIAL DO MP ATIVO MAR DE ESPANHA - COMARCA; MAR DE ESPANHA-PJ-SECRETARIA 4.977,82 995,56 0,00 0,00 0,00 0,00 5.973,38 657,07 540,49 0,00 1.197,56 4.775,82 726,01 0,00 30/09/2015
788 151000 ELI LOURENCO RIBEIRO AGENTE DO MP ATIVO BELO HORIZONTE - COMARCA; BH-17PJ PATRIMONIO PUBLICO-SECRETARIA 7.677,29 3.070,92 0,00 0,00 0,00 0,00 10.748,21 1.182,30 1.332,01 0,00 2.514,31 8.233,90 726,01 0,00 30/09/2015
789 205500 ELIANA ALVES DE SOUSA OFICIAL DO MP ATIVO GOVERNADOR VALADARES - COMARCA; GOVERNADOR VALADARES-PJ-07PJ 6.432,09 1.929,63 0,00 0,00 0,00 0,00 8.361,72 919,79 1.177,17 0,00 2.096,96 6.264,76 726,01 0,00 30/09/2015
790 628800 ELIANA APARECIDA PEREIRA ANALISTA DO MP ATIVO CAMBUÍ - COMARCA; CAMBUI-PJ-02PJ 4.668,87 0,00 0,00 0,00 0,00 0,00 4.668,87 513,58 298,81 0,00 812,39 3.856,48 726,01 0,00 30/09/2015
791 301700 ELIANA DA SILVEIRA ANALISTA DO MP ATIVO BELO HORIZONTE - COMARCA; ASSESS TECNICO-JUR JUNTO AS PROC. DE JUST 9.920,24 1.984,05 0,00 0,00 0,00 0,00 11.904,29 1.309,47 2.044,22 0,00 3.353,69 8.550,60 726,01 0,00 30/09/2015
792 103400 ELIANA DE FARIA MORAIS JOTTA OFICIAL DO MP ATIVO BELO HORIZONTE - COMARCA; DIRET DE PESSOAL DO MINISTERIO PUBLICO - DPMP 20.076,03 10.038,01 0,00 0,00 0,00 0,00 30.114,04 3.312,54 6.344,64 0,00 9.657,18 20.456,86 1.669,08 86,45 30/09/2015
793 251500 ELIANA DE LIMA MILAGRES FONSECA ANALISTA DO MP ATIVO CONTAGEM - COMARCA; CONTAGEM-PJ-06PJ 9.920,24 1.984,05 0,00 0,00 0,00 0,00 11.904,29 1.309,47 1.939,94 0,00 3.249,41 8.654,88 726,01 0,00 30/09/2015
794 503900 ELIANA DIAS DUTRA FERREIRA OFICIAL DO MP ATIVO GOVERNADOR VALADARES - COMARCA; GOVERNADOR VALADARES-PJ-10PJ 4.241,01 254,46 0,00 0,00 0,00 0,00 4.495,47 494,50 188,47 0,00 682,97 3.812,50 0,00 0,00 30/09/2015
795 413900 ELIANA PINTO DE OLIVEIRA NEVES ANALISTA DO MP ATIVO CAMPO BELO - COMARCA; CAMPO BELO-PJ-03PJ 8.185,27 818,53 0,00 0,00 0,00 0,00 9.003,80 990,42 1.334,32 0,00 2.324,74 6.679,06 1.008,01 0,00 30/09/2015
796 228200 ELIANA RODRIGUES DA CUNHA PINHEIRO DIRETOR/OFICIAL ATIVO BELO HORIZONTE - COMARCA; SUPERINTENDÊNCIA DE ENGENHARIA E ARQUITETURA 0,00 2.831,04 14.155,19 0,00 0,00 1.013,40 17.999,63 1.013,40 3.801,85 0,00 4.815,25 13.184,38 726,01 0,00 30/09/2015
797 386600 ELIANA SABINO CHAVES ANALISTA DO MP ATIVO CARATINGA - COMARCA; CARATINGA-PJ-06PJ 8.727,00 4.363,50 0,00 0,00 0,00 0,00 13.090,50 1.439,96 2.282,40 0,00 3.722,36 9.368,14 726,01 0,00 30/09/2015
798 297400 ELIANE AUGUSTA RIBEIRO COSTA ANALISTA DO MP ATIVO CONSELHEIRO LAFAIETE - COMARCA; CONSELHEIRO LAFAIETE-PJ-05PJ 10.576,63 2.115,33 0,00 0,00 0,00 0,00 12.691,96 1.396,12 2.080,58 0,00 3.476,70 9.215,26 726,01 0,00 30/09/2015
799 510600 ELIANE CAROLINA MAIA ANALISTA DO MP ATIVO IGARAPÉ - COMARCA; IGARAPE-PJ-02PJ 6.032,93 361,98 0,00 0,00 0,00 0,00 6.394,91 703,44 487,25 0,00 1.190,69 5.204,22 1.196,01 0,00 30/09/2015
800 269300 ELIANE EDLAMAR ROCHA OFICIAL DO MP ATIVO PEDRO LEOPOLDO - COMARCA; PEDRO LEOPOLDO-PJ-02PJ 7.200,74 1.440,15 0,00 0,00 0,00 0,00 8.640,89 950,50 1.193,36 0,00 2.143,86 6.497,03 961,01 0,00 30/09/2015
801 359100 ELIANE FARIAS DE OLIVEIRA ASSESSOR ATIVO BELO HORIZONTE - COMARCA; EXTINTA-TUTELA DAS FUNDACOES-21 PJ- GABINETE 0,00 0,00 2.500,62 0,00 0,00 0,00 2.500,62 354,93 75,96 0,00 430,89 2.069,73 726,01 0,00 30/09/2015
802 262600 ELIANE FERREIRA SOARES ASSESSOR ATIVO BELO HORIZONTE - COMARCA; BH-18PJ DIREITOS HUMANOS-SECRETARIA 0,00 1.252,55 4.175,17 0,00 0,00 0,00 5.427,72 513,01 629,70 0,00 1.142,71 4.285,01 726,01 0,00 30/09/2015
803 204400 ELIANE GLAUCE DE QUEIROS MAIA OFICIAL DO MP ATIVO GUANHÃES - COMARCA; GUANHAES-PJ-01PJ 9.011,08 2.703,32 0,00 0,00 0,00 0,00 11.714,40 1.288,58 1.997,74 0,00 3.286,32 8.428,08 961,01 0,00 30/09/2015
804 91800 ELIANE KAPLER COORDENADOR/OFICIAL ATIVO BELO HORIZONTE - COMARCA; DIRET DE CONTROLE E DE MANUTENCAO DE IMOVEIS 12.598,78 7.442,13 0,00 0,00 0,00 0,00 20.040,91 1.940,21 4.004,06 0,00 5.944,27 14.096,64 726,01 0,00 30/09/2015
805 334200 ELIANE MARCIA DE OLIVEIRA BRITO OFICIAL DO MP ATIVO BELO HORIZONTE - COMARCA; BH-08PJ JUIZADO ESPECIAL-SECRETARIA 4.977,82 995,56 0,00 0,00 0,00 0,00 5.973,38 657,07 592,63 0,00 1.249,70 4.723,68 726,01 0,00 30/09/2015
806 365900 ELIANE MARIA DE OLIVEIRA FERREIRA OFICIAL DO MP ATIVO SETE LAGOAS - COMARCA; SETE LAGOAS-PJ-11PJ 6.229,29 2.491,72 0,00 0,00 0,00 0,00 8.721,01 959,31 1.265,11 0,00 2.224,42 6.496,59 726,01 0,00 30/09/2015
807 320600 ELIANE STADLER DE SOUZA OFICIAL DO MP ATIVO FRANCISCO SÁ - COMARCA; FRANCISCO SA-PJ-SECRETARIA 6.229,29 1.245,86 0,00 0,00 0,00 0,00 7.475,15 822,27 908,04 0,00 1.730,31 5.744,84 726,01 0,00 30/09/2015
808 448900 ELIAS PEREIRA OTONI ASSESSOR ATIVO BELO HORIZONTE - COMARCA; EXTINTA - DIVISAO DE TRANSPORTES 0,00 0,00 4.175,17 0,00 0,00 0,00 4.175,17 513,01 265,89 0,00 778,90 3.396,27 726,01 0,00 30/09/2015
809 495400 ELICA SOUZA GASPARONI MATTOS OFICIAL DO MP ATIVO UBÁ - COMARCA; UBA-PJ-SECRETARIA 4.668,87 280,13 0,00 0,00 0,00 0,00 4.949,00 544,39 354,91 0,00 899,30 4.049,70 961,01 0,00 30/09/2015
810 86600 ELIENE FERREIRA DA SILVA OFICIAL DO MP ATIVO BELO HORIZONTE - COMARCA; BH-22PJ PES COM DEF E IDOSOS 17.188,14 8.594,07 0,00 0,00 0,00 0,00 25.782,21 2.836,04 5.284,43 0,00 8.120,47 17.661,74 1.196,01 0,00 30/09/2015
811 183800 ELIENE MARIA CUNHA OFICIAL DO MP ATIVO BELO HORIZONTE - COMARCA; DIRETORIA DE PESSOAL ADMINISTRATIVO - DPAD 9.920,24 2.976,07 0,00 0,00 0,00 0,00 12.896,31 1.418,59 2.234,88 0,00 3.653,47 9.242,84 726,01 0,00 30/09/2015
812 172300 ELINA APARECIDA SILVA ASSESSOR ATIVO BELO HORIZONTE - COMARCA; BH-19PJ SAUDE-SECRETARIA 130PJ 0,00 750,19 2.500,62 0,00 0,00 0,00 3.250,81 437,45 119,23 0,00 556,68 2.694,13 726,01 0,00 30/09/2015
813 492501 ELINE CAMPOS DA FONSECA CUNHA ANALISTA DO MP ATIVO JEQUERI - COMARCA; JEQUERI-PJ-UNPJ 4.820,91 289,25 0,00 0,00 0,00 0,00 5.110,16 562,12 387,18 0,00 949,30 4.160,86 961,01 0,00 30/09/2015
814 618900 ELISA MOURA VIEIRA MARCATTI OFICIAL DO MP ATIVO BELO HORIZONTE - COMARCA; BH-23PJ CIVEL-SEC EXP CIVEIS 3.445,03 0,00 0,00 0,00 0,00 0,00 3.445,03 378,95 105,11 0,00 484,06 2.960,97 726,01 0,00 30/09/2015
815 256500 ELISABETE NOGUEIRA ANALISTA DO MP ATIVO RIBEIRÃO DAS NEVES - COMARCA; RIBEIRAO DAS NEVES-PJ-10PJ 9.607,41 3.842,96 0,00 0,00 0,00 0,00 13.450,37 1.479,54 2.266,21 0,00 3.745,75 9.704,62 961,01 0,00 30/09/2015
816 355000 ELISANGELA DARLANTONI RIBEIRO OFICIAL DO MP ATIVO ARAXÁ - COMARCA; ARAXA-PJ-05PJ 5.658,41 565,84 0,00 0,00 0,00 0,00 6.224,25 684,67 601,89 0,00 1.286,56 4.937,69 961,01 0,00 30/09/2015
817 604400 ELISANGELA DEMASI FERREIRA MOREIRA ANALISTA DO MP ATIVO CAXAMBU - COMARCA; CAXAMBU-PJ-UNPJ 5.307,28 0,00 0,00 0,00 0,00 0,00 5.307,28 583,80 429,60 0,00 1.013,40 4.293,88 961,01 0,00 30/09/2015
818 323800 ELISANGELA GONCALVES DE JESUS OFICIAL DO MP ATIVO BELO HORIZONTE - COMARCA; BH-09PJ AUDITORIA MILITAR-SECRETARIA 5.139,92 1.027,98 0,00 0,00 0,00 0,00 6.167,90 678,47 588,10 0,00 1.266,57 4.901,33 961,01 0,00 30/09/2015
819 261400 ELISANGELA MENDES OFICIAL DO MP ATIVO POUSO ALEGRE - COMARCA; POUSO ALEGRE-PJ-05PJ 6.641,51 1.328,30 0,00 0,00 0,00 0,00 7.969,81 876,68 1.081,25 0,00 1.957,93 6.011,88 726,01 0,00 30/09/2015
820 507400 ELISANGELA MIGUEL DA ROCHA SILVA ASSESSOR ATIVO BELO HORIZONTE - COMARCA; CGMP-DIVIS DE APOIO FISC ORIENTACAO FUNCIONAL 0,00 0,00 2.500,62 0,00 0,00 0,00 2.500,62 354,93 75,96 0,00 430,89 2.069,73 726,01 0,00 30/09/2015
821 534100 ELISANGELA ROSINE SILVA OFICIAL DO MP ATIVO UBERABA - COMARCA; UBERABA-PJ-06PJ 3.445,03 0,00 0,00 0,00 0,00 0,00 3.445,03 378,95 105,11 0,00 484,06 2.960,97 726,01 0,00 30/09/2015
822 634300 ELIUDE GRACA DAMASIO ROSARIO FRANCELINO OFICIAL DO MP ATIVO BELO HORIZONTE - COMARCA; EXTINTA-DEF DIREIT HUM-COMB A VIOL DOMEST-18 3.030,62 0,00 0,00 0,00 0,00 0,00 3.030,62 333,37 59,49 0,00 392,86 2.637,76 726,01 0,00 30/09/2015
823 461700 ELIZABETH ALEIXO DA PAZ ANALISTA DO MP ATIVO JUIZ DE FORA - COMARCA; JUIZ DE FORA-PJ-24PJ 7.200,74 432,04 0,00 0,00 0,00 0,00 7.632,78 839,61 998,76 0,00 1.838,37 5.794,41 726,01 0,00 30/09/2015
824 227300 ELIZABETH COIMBRA FELIX COORDENADOR/OFICIAL ATIVO BELO HORIZONTE - COMARCA; DIRETORIA DE PAGAMENTO DE PESSOAL-DPAG 8.727,00 4.539,58 0,00 0,00 0,00 0,00 13.266,58 1.247,96 2.279,35 0,00 3.527,31 9.739,27 726,01 0,00 30/09/2015
825 354800 ELIZABETH DOS REIS OFICIAL DO MP ATIVO BELO HORIZONTE - COMARCA; EXTINTA - DIVISÃO DE MATERIAL PERMANENTE 6.229,29 622,93 0,00 0,00 0,00 0,00 6.852,22 753,74 1.164,34 0,00 1.918,08 4.934,14 726,01 1.486,37 30/09/2015
826 612000 ELIZABETH MARIA DE QUEIROZ TANIGUCHI OFICIAL DO MP ATIVO BELO HORIZONTE - COMARCA; DIRET DE DESENV DE RECURSOS HUMANOS-DDRH 3.129,28 0,00 0,00 0,00 0,00 0,00 3.129,28 344,22 66,08 0,00 410,30 2.718,98 726,01 0,00 30/09/2015
827 452800 ELIZANGELA MARIA DAVI OFICIAL DO MP ATIVO ARCOS - COMARCA; ARCOS-PJ-01PJ 4.043,58 404,36 0,00 0,00 0,00 0,00 4.447,94 489,27 211,91 0,00 701,18 3.746,76 961,01 0,00 30/09/2015
828 496300 ELIZANGELA MARQUES PINTO COELHO OFICIAL DO MP ATIVO BELO HORIZONTE - COMARCA; DIRETORIA DE PESSOAL ADMINISTRATIVO - DPAD 4.241,01 254,46 0,00 0,00 0,00 0,00 4.495,47 494,50 264,09 0,00 758,59 3.736,88 961,01 0,00 30/09/2015
829 422500 ELIZETE FORTES DA CUNHA ANALISTA DO MP ATIVO RIBEIRÃO DAS NEVES - COMARCA; RIBEIRAO DAS NEVES-PJ-07PJ 8.451,80 845,18 0,00 0,00 0,00 0,00 9.296,98 1.022,67 1.353,94 0,00 2.376,61 6.920,37 961,01 0,00 30/09/2015
830 506100 ELLEM CRISTINA ROCHA FONSECA BOWEN ANALISTA DO MP ATIVO GOVERNADOR VALADARES - COMARCA; COORD REG PJ DEF EDU DIR CRIANCA ADOL RIODOCE 6.641,51 398,49 0,00 0,00 0,00 0,00 7.040,00 774,40 853,68 0,00 1.628,08 5.411,92 961,01 0,00 30/09/2015
831 468200 ELLEN CRISTINA BERNARDES DARE ANALISTA DO MP ATIVO TRÊS PONTAS - COMARCA; TRES PONTAS-PJ-02PJ 7.200,74 432,04 0,00 0,00 0,00 0,00 7.632,78 839,61 946,62 0,00 1.786,23 5.846,55 961,01 0,00 30/09/2015
832 418800 ELLEN CRISTINA DE QUEIROZ FERREIRA ANALISTA DO MP ATIVO BELO HORIZONTE - COMARCA; CENTRAL DE APOIO TECNICO-SETOR CONTABIL 8.451,80 845,18 0,00 0,00 0,00 0,00 9.296,98 1.022,67 1.406,08 0,00 2.428,75 6.868,23 1.047,18 0,00 30/09/2015
833 328401 ELLEN CRISTINA FERREIRA MORAIS MONTEIRO ANALISTA DO MP ATIVO CAMANDUCAIA - COMARCA; CAMANDUCAIA-PJ-UNPJ 8.451,80 845,18 0,00 0,00 0,00 0,00 9.296,98 1.022,67 1.301,80 0,00 2.324,47 6.972,51 961,01 0,00 30/09/2015
834 556100 ELLEN CRISTINE BIANCHIN DA SILVA OFICIAL DO MP ATIVO SÃO GONÇALO DO SAPUCAÍ - COMARCA; SAO GONCALO DO SAPUCAI-PJ-02PJ 3.445,03 0,00 0,00 0,00 0,00 0,00 3.445,03 378,95 44,50 0,00 423,45 3.021,58 726,01 0,00 30/09/2015
835 447100 ELLEN ROSANA DE MACEDO BORGES OFICIAL DO MP ATIVO UBERLÂNDIA - COMARCA; UBERLANDIA-PJ-17PJ 5.307,28 530,73 0,00 0,00 0,00 0,00 5.838,01 642,18 559,49 0,00 1.201,67 4.636,34 726,01 0,00 30/09/2015
836 477700 ELMA JACOB OFICIAL DO MP ATIVO BELO HORIZONTE - COMARCA; COORD DE GABINETE DO PGJ 5.139,92 2.569,96 0,00 0,00 0,00 0,00 7.709,88 848,09 1.017,63 0,00 1.865,72 5.844,16 726,01 0,00 30/09/2015
837 123300 ELMA PAULA DOS SANTOS COELHO OFICIAL DO MP ATIVO BELO HORIZONTE - COMARCA; BH-19PJ SAUDE-SECRETARIA 130PJ 11.643,70 9.314,96 0,00 0,00 0,00 2.305,45 23.264,11 2.305,45 4.894,27 0,00 7.199,72 16.064,39 726,01 0,00 30/09/2015
838 356500 ELOISA CARDOSO SILVA FRANCA OFICIAL DO MP ATIVO PEÇANHA - COMARCA; PECANHA-PJ-SECRETARIA 4.977,82 497,78 0,00 0,00 0,00 0,00 5.475,60 602,32 332,38 0,00 934,70 4.540,90 726,01 0,00 30/09/2015
839 251901 ELOISA COSTA E SILVA ANALISTA DO MP ATIVO SANTOS DUMONT - COMARCA; SANTOS DUMONT-PJ-02PJ 6.641,51 1.328,30 0,00 0,00 0,00 0,00 7.969,81 876,68 1.081,25 0,00 1.957,93 6.011,88 726,01 0,00 30/09/2015
840 400400 ELOIZA MARIA FERRI PIRES DA SILVA OFICIAL DO MP ATIVO BELO HORIZONTE - COMARCA; FEPDC-SECRETARIA EXECUTIVA 5.139,92 513,99 0,00 0,00 0,00 0,00 5.653,91 621,93 462,30 0,00 1.084,23 4.569,68 726,01 0,00 30/09/2015
841 258000 ELSO CECIANO PALMEIRA ASSESSOR/OFICIAL ATIVO BELO HORIZONTE - COMARCA; DIRET DE PESSOAL DO MINISTERIO PUBLICO - DPMP 0,00 4.225,90 8.451,80 0,00 0,00 0,00 12.677,70 1.188,12 2.186,00 0,00 3.374,12 9.303,58 726,01 0,00 30/09/2015
842 206900 ELVIRA RITA DOS SANTOS ANALISTA DO MP ATIVO BELO HORIZONTE - COMARCA; CENTRAL DE APOIO TECNICO-SETOR CONTABIL 14.715,61 4.414,68 0,00 0,00 0,00 2.104,33 21.234,62 2.104,33 4.391,47 0,00 6.495,80 14.738,82 726,01 0,00 30/09/2015
843 506800 ELVIS FERREIRA DA SILVA ANALISTA DO MP ATIVO BELO HORIZONTE - COMARCA; DIRETORIA DE SISTEMAS DE INFORMACAO 6.641,51 398,49 0,00 0,00 0,00 0,00 7.040,00 774,40 801,54 0,00 1.575,94 5.464,06 726,01 0,00 30/09/2015
844 602400 ELZA MARIA MOREIRA MUNIZ ANALISTA DO MP ATIVO CARMO DO PARANAÍBA - COMARCA; CARMO DO PARANAIBA-PJ-02PJ 5.307,28 0,00 0,00 0,00 0,00 0,00 5.307,28 583,80 429,60 0,00 1.013,40 4.293,88 726,01 0,00 30/09/2015
845 368401 ELZIRA SIMOES DOS SANTOS ASSESSOR ATIVO BELO HORIZONTE - COMARCA; DIRETORIA DE RELACOES PUBLICAS E CERIMONIAL 0,00 1.860,89 9.304,45 0,00 0,00 0,00 11.165,34 513,01 2.259,68 0,00 2.772,69 8.392,65 726,01 0,00 30/09/2015
846 437400 EMANOELLE DA SILVA RODRIGUES OFICIAL DO MP ATIVO UNAÍ - COMARCA; UNAI-PJ-03PJ 5.307,28 530,73 0,00 0,00 0,00 0,00 5.838,01 642,18 507,36 0,00 1.149,54 4.688,47 726,01 0,00 30/09/2015
847 458900 EMANUELLE CONRAD SILVA FREDERICO ANALISTA DO MP ATIVO DIVINÓPOLIS - COMARCA; DIVINOPOLIS-PJ-08PJ 7.200,74 432,04 0,00 0,00 0,00 0,00 7.632,78 839,61 998,76 0,00 1.838,37 5.794,41 726,01 0,00 30/09/2015
848 284100 EMERSON MAGNO ALMEIDA PEDROSA DA FONSECA ANALISTA DO MP ATIVO BELO HORIZONTE - COMARCA; CENTRAL DE APOIO TECNICO-SETOR CONTABIL 10.576,63 2.115,33 0,00 0,00 0,00 0,00 12.691,96 1.396,12 1.376,76 0,00 2.772,88 9.919,08 726,01 0,00 30/09/2015
849 179900 EMERSON MORAIS DIAS OFICIAL DO MP ATIVO BELO HORIZONTE - COMARCA; EXTINTA - DIVISÃO DE APOIO À LICITAÇÃO 10.243,18 3.072,95 0,00 0,00 0,00 0,00 13.316,13 1.464,77 2.389,76 0,00 3.854,53 9.461,60 726,01 0,00 30/09/2015
850 488700 EMERSON SIQUEIRA DE SOUSA TEIXEIRA ANALISTA DO MP ATIVO TARUMIRIM - COMARCA; TARUMIRIM-PJ-UNPJ 7.200,74 432,04 0,00 0,00 0,00 0,00 7.632,78 839,61 842,35 0,00 1.681,96 5.950,82 1.196,01 0,00 30/09/2015
851 194200 EMILIA ALVES FERREIRA RAMOS OFICIAL DO MP ATIVO UBERLÂNDIA - COMARCA; UBERLANDIA-PJ-02PJ 5.139,92 1.541,98 0,00 0,00 0,00 0,00 6.681,90 735,01 661,76 0,00 1.396,77 5.285,13 726,01 0,00 30/09/2015
852 123400 EMILIO CARLOS MARTINS OFICIAL DO MP ATIVO AREADO - COMARCA; AREADO-PJ-UNPJ 11.643,70 9.314,96 0,00 0,00 0,00 0,00 20.958,66 2.305,45 4.208,14 0,00 6.513,59 14.445,07 726,01 0,00 30/09/2015
853 549300 EMILIO VIEIRA SILVA ASSESSOR ATIVO BELO HORIZONTE - COMARCA; EXTINTA - DIVISAO DE TRANSPORTES 0,00 0,00 2.500,62 0,00 0,00 0,00 2.500,62 354,93 75,96 0,00 430,89 2.069,73 726,01 0,00 30/09/2015
854 620700 EMILY FONTANA DE SIQUEIRA ANALISTA DO MP ATIVO BELO HORIZONTE - COMARCA; BH-18PJ VIOLENCIA DOMESTICA 5.139,92 0,00 0,00 0,00 0,00 0,00 5.139,92 565,39 393,14 0,00 958,53 4.181,39 726,01 0,00 30/09/2015
855 297000 ENEIDA SOARES COSTA MELO ANALISTA DO MP ATIVO PIUMHI - COMARCA; PIUMHI-PJ-01PJ 10.576,63 2.115,33 0,00 0,00 0,00 0,00 12.691,96 1.396,12 2.237,00 0,00 3.633,12 9.058,84 726,01 0,00 30/09/2015
856 276000 ENEZIO RODRIGUES DE SOUZA FILHO OFICIAL DO MP ATIVO UBERLÂNDIA - COMARCA; UBERLANDIA-PJ-SEC FAMILIA 6.641,51 1.328,30 0,00 0,00 0,00 0,00 7.969,81 876,68 1.081,25 0,00 1.957,93 6.011,88 726,01 0,00 30/09/2015
857 387700 ENI MARIA DOS REIS OFICIAL DO MP ATIVO POUSO ALEGRE - COMARCA; POUSO ALEGRE-PJ-04PJ 5.480,05 1.722,83 0,00 0,00 0,00 0,00 7.202,88 663,09 876,95 0,00 1.540,04 5.662,84 726,01 0,00 30/09/2015
858 605100 ENIA MAIA OFICIAL DO MP ATIVO BELO HORIZONTE - COMARCA; DIRETORIA DE ORCAMENTO-DIOR/SPC 3.445,03 0,00 0,00 0,00 0,00 0,00 3.445,03 378,95 105,11 0,00 484,06 2.960,97 726,01 0,00 30/09/2015
859 612200 ENILDO GOMES MEIRA FILHO ANALISTA DO MP ATIVO BUENÓPOLIS - COMARCA; BUENOPOLIS-PJ-UNPJ 4.820,91 0,00 0,00 0,00 0,00 0,00 4.820,91 530,30 243,94 0,00 774,24 4.046,67 961,01 0,00 30/09/2015
860 553700 ENIVALDO NOVATO PUBLIO ANALISTA DO MP ATIVO DIVINÓPOLIS - COMARCA; DIVINOPOLIS-PJ-09PJ 5.842,66 0,00 0,00 0,00 0,00 0,00 5.842,66 642,69 508,49 0,00 1.151,18 4.691,48 726,01 0,00 30/09/2015
861 417300 ERIC BARATTI DA SILVA ANALISTA DO MP ATIVO PRATA - COMARCA; PRATA-PJ-UNPJ 7.435,23 743,52 0,00 0,00 0,00 0,00 8.178,75 899,66 1.132,39 0,00 2.032,05 6.146,70 726,01 0,00 30/09/2015
862 637600 ERIC DA ROCHA CHEHUEN ANALISTA DO MP ATIVO LIMA DUARTE - COMARCA; LIMA DUARTE-PJ-UNPJ 4.668,87 0,00 0,00 0,00 0,00 0,00 4.668,87 513,58 298,81 0,00 812,39 3.856,48 726,01 0,00 30/09/2015
863 398900 ERIC TEIXEIRA SILVA OFICIAL DO MP ATIVO UBERLÂNDIA - COMARCA; UBERLANDIA-PJ-08PJ 5.658,41 565,84 0,00 0,00 0,00 0,00 6.224,25 684,67 654,02 0,00 1.338,69 4.885,56 726,01 0,00 30/09/2015
864 274200 ERICA DE SOUZA ANDRADE OFICIAL DO MP ATIVO CURVELO - COMARCA; CURVELO-PJ-05PJ 6.973,67 1.394,73 0,00 0,00 0,00 0,00 8.368,40 920,52 1.126,67 0,00 2.047,19 6.321,21 726,01 0,00 30/09/2015
865 225700 ERICA GOMES DO COUTO OFICIAL DO MP ATIVO BELO HORIZONTE - COMARCA; CAO-TS-TERCEIRO SETOR-SECRETARIA 8.727,00 1.745,40 0,00 0,00 0,00 0,00 10.472,40 1.151,96 1.693,76 0,00 2.845,72 7.626,68 726,01 0,00 30/09/2015
866 632600 ERICA LEONOR MARTINS OFICIAL DO MP ATIVO RESENDE COSTA - COMARCA; RESENDE COSTA-PJ-UNPJ 3.030,62 0,00 0,00 0,00 0,00 0,00 3.030,62 333,37 59,49 0,00 392,86 2.637,76 726,01 0,00 30/09/2015
867 524800 ERICA MACHADO DA COSTA E SOUZA ANALISTA DO MP ATIVO BELO HORIZONTE - COMARCA; PROC JUST RECURSOS ESP E EXTRAORD CRIMINAIS 6.641,51 398,49 0,00 0,00 0,00 0,00 7.040,00 774,40 853,68 0,00 1.628,08 5.411,92 726,01 0,00 30/09/2015
868 249500 ERICA RODRIGUES ANDRADE OFICIAL DO MP ATIVO SÃO FRANCISCO - COMARCA; SAO FRANCISCO-PJ-02PJ 5.658,41 1.131,68 0,00 0,00 0,00 0,00 6.790,09 746,91 740,38 0,00 1.487,29 5.302,80 961,01 0,00 30/09/2015
869 260800 ERICA VIANA GIARDINI DE OLIVEIRA OFICIAL DO MP ATIVO BELO HORIZONTE - COMARCA; EXTINTA - DIVISÃO DE COMPRAS 6.973,67 1.394,73 0,00 0,00 0,00 0,00 8.368,40 920,52 1.178,81 0,00 2.099,33 6.269,07 726,01 0,00 30/09/2015
870 299800 ERICH DOUGLAS RIBEIRO GARCIA ANALISTA DO MP ATIVO BELO HORIZONTE - COMARCA; CENTRAL DE APOIO TECNICO-SETOR CONTABIL 10.576,63 2.115,33 0,00 0,00 0,00 0,00 12.691,96 1.396,12 2.237,00 0,00 3.633,12 9.058,84 726,01 0,00 30/09/2015
871 365000 ERICK EDUARDO JOSE DA SILVA OFICIAL DO MP ATIVO SANTOS DUMONT - COMARCA; SANTOS DUMONT-PJ-02PJ 4.977,82 497,78 0,00 0,00 0,00 0,00 5.475,60 602,32 470,79 0,00 1.073,11 4.402,49 726,01 0,00 30/09/2015
872 123500 ERICO SEGISMUNDO LIMA VILASBOAS ANALISTA DO MP ATIVO MONTES CLAROS - COMARCA; COORD REG PJ DEF EDUC DIR CRIANCA ADOL NORTE 15.298,25 12.238,61 0,00 0,00 0,00 3.029,05 30.565,91 3.029,05 6.494,73 0,00 9.523,78 21.042,13 726,01 0,00 30/09/2015
873 227400 ERIKA DE LAET GOULART BOECHAT ASSESSOR/OFICIAL ATIVO BELO HORIZONTE - COMARCA; ASSESSORIA ESPECIAL DO PGJ 8.727,00 3.794,04 0,00 0,00 0,00 0,00 12.521,04 1.151,96 2.205,00 0,00 3.356,96 9.164,08 961,01 0,00 30/09/2015
874 451800 ERIKA DELLARETTI GUIMARAES OFICIAL DO MP ATIVO LAVRAS - COMARCA; LAVRAS-PJ-SECRETARIA 4.241,01 424,10 0,00 0,00 0,00 0,00 4.665,11 513,16 255,40 0,00 768,56 3.896,55 726,01 0,00 30/09/2015
875 285100 ERIKA FERREIRA DA SILVA OFICIAL DO MP ATIVO JUIZ DE FORA - COMARCA; JUIZ DE FORA-PJ-14PJ 6.973,67 1.394,73 0,00 0,00 0,00 0,00 8.368,40 920,52 1.178,81 0,00 2.099,33 6.269,07 726,01 0,00 30/09/2015
876 420100 ERIKA JEANINE VERSIANI DE CASTRO ANALISTA DO MP ATIVO MONTES CLAROS - COMARCA; COORD REG PJ DEF EDUC DIR CRIANCA ADOL NORTE 8.727,00 872,70 0,00 0,00 0,00 0,00 9.599,70 1.055,97 1.428,03 0,00 2.484,00 7.115,70 726,01 0,00 30/09/2015
877 606900 ERIKA MARIA BARBOSA ANALISTA DO MP ATIVO BELO HORIZONTE - COMARCA; CAO-SAUDE 4.820,91 0,00 0,00 0,00 0,00 0,00 4.820,91 530,30 286,60 0,00 816,90 4.004,01 961,01 0,00 30/09/2015
878 491000 ERIKA ROCHA BARRETO ANALISTA DO MP ATIVO BELO HORIZONTE - COMARCA; DIRETORIA DE SISTEMAS DE INFORMACAO 7.200,74 432,04 0,00 0,00 0,00 0,00 7.632,78 839,61 998,76 0,00 1.838,37 5.794,41 726,01 0,00 30/09/2015
879 283201 ERIKA STEHLING ASSESSOR/ANALISTA ATIVO BELO HORIZONTE - COMARCA; CENTRAL DE APOIO TECNICO-SETOR DE ENGENHARIA 0,00 507,11 8.451,80 0,00 0,00 0,00 8.958,91 839,61 1.259,17 0,00 2.098,78 6.860,13 726,01 0,00 30/09/2015
880 383500 ERIKO RODRIGUES VELOSO ANALISTA DO MP ATIVO BOCAIÚVA - COMARCA; BOCAIUVA-PJ-01PJ 7.200,74 720,07 0,00 0,00 0,00 0,00 7.920,81 871,29 1.069,26 0,00 1.940,55 5.980,26 726,01 0,00 30/09/2015
881 254000 ERLANDIA DA SILVA MENDES OFICIAL DO MP ATIVO IPATINGA - COMARCA; IPATINGA-PJ-03PJ 7.200,74 2.160,22 0,00 0,00 0,00 0,00 9.360,96 1.029,71 1.265,32 0,00 2.295,03 7.065,93 726,01 0,00 30/09/2015
882 208600 ERNANE JOSE DA COSTA ANALISTA DO MP ATIVO BELO HORIZONTE - COMARCA; CENTRAL DE APOIO TECNICO-SETOR MEDICO 14.715,61 10.300,92 0,00 0,00 0,00 0,00 25.016,53 2.751,82 5.253,44 0,00 8.005,26 17.011,27 726,01 0,00 30/09/2015
883 260600 ERNANI CALDEIRA DE ANDRADE ANALISTA DO MP ATIVO BELO HORIZONTE - COMARCA; CENTRAL DE APOIO TECNICO-SETOR CONTABIL 11.643,70 2.328,74 0,00 0,00 0,00 0,00 13.972,44 1.536,97 2.550,39 0,00 4.087,36 9.885,08 726,01 0,00 30/09/2015
884 348500 ERNILANDIA OLIVEIRA DIAS OFICIAL DO MP ATIVO BELO HORIZONTE - COMARCA; EXTINTA - JUIZO DE FAMILIA-02 PJ-02 VARA 5.480,05 548,01 0,00 0,00 0,00 0,00 6.028,06 663,09 606,01 0,00 1.269,10 4.758,96 726,01 0,00 30/09/2015
885 199300 ERTON PORTINARI DE ANDRADE OFICIAL DO MP ATIVO SETE LAGOAS - COMARCA; SETE LAGOAS-PJ-01PJ 9.011,08 2.703,32 0,00 0,00 0,00 0,00 11.714,40 1.288,58 1.893,47 0,00 3.182,05 8.532,35 726,01 0,00 30/09/2015
886 430400 ESDRAS SOARES VILAS BOAS RIBEIRO OFICIAL DO MP ATIVO BELO HORIZONTE - COMARCA; BH-17PJ PATRIMONIO PUBLICO-SECRETARIA 5.307,28 530,73 0,00 0,00 0,00 0,00 5.838,01 642,18 559,49 0,00 1.201,67 4.636,34 726,01 0,00 30/09/2015
887 618800 ESLY DE CARLA AYALLA BARBOSA MENDES OFICIAL DO MP ATIVO ITABIRITO - COMARCA; ITABIRITO-PJ-01PJ 3.129,28 0,00 0,00 0,00 0,00 0,00 3.129,28 344,22 66,08 0,00 410,30 2.718,98 726,01 0,00 30/09/2015
888 537000 ESTANISLAU CORREIA ALMEIDA JUNIOR OFICIAL DO MP ATIVO UBERLÂNDIA - COMARCA; UBERLANDIA-PJ-25PJ 3.445,03 0,00 0,00 0,00 0,00 0,00 3.445,03 378,95 105,11 0,00 484,06 2.960,97 726,01 0,00 30/09/2015
889 326900 ESTER ALICE PIMENTA OFICIAL DO MP ATIVO BELO HORIZONTE - COMARCA; COORD DE INCLUSAO E MOBILIZACAO SOCIAIS 6.432,09 1.286,42 0,00 0,00 0,00 0,00 7.718,51 892,71 1.064,78 0,00 1.957,49 5.761,02 726,01 397,02 30/09/2015
890 503700 ESTHER GONCALVES FONSECA ANALISTA DO MP ATIVO BELO HORIZONTE - COMARCA; DIRETORIA DE PUBLICIDADE INSTITUCIONAL 5.480,05 328,80 0,00 0,00 0,00 0,00 5.808,85 638,97 552,36 0,00 1.191,33 4.617,52 726,01 0,00 30/09/2015
891 475600 ETIENE DE FATIMA OLIVEIRA PEREIRA ANALISTA DO MP ATIVO PATROCÍNIO - COMARCA; PATROCINIO-PJ-04PJ 7.200,74 432,04 0,00 0,00 0,00 0,00 7.632,78 839,61 894,49 0,00 1.734,10 5.898,68 961,01 0,00 30/09/2015
892 428800 EUGENIA RODRIGUES TRAJANO BORGES ANALISTA DO MP ATIVO UBERABA - COMARCA; UBERABA-PJ-08PJ 8.451,80 845,18 0,00 0,00 0,00 0,00 9.296,98 1.022,67 1.406,08 0,00 2.428,75 6.868,23 726,01 0,00 30/09/2015
893 272700 EUGENIO DE BARCELOS FILHO OFICIAL DO MP ATIVO FRUTAL - COMARCA; FRUTAL-PJ-02PJ 5.480,05 1.096,01 0,00 0,00 0,00 0,00 6.576,06 723,37 687,99 0,00 1.411,36 5.164,70 726,01 0,00 30/09/2015
894 254100 EULALIA ALVES MIRANDA LUCAS OFICIAL DO MP ATIVO ALMENARA - COMARCA; ALMENARA-PJ-SECRETARIA 6.973,67 2.569,55 0,00 0,00 0,00 0,00 9.543,22 920,52 1.397,61 0,00 2.318,13 7.225,09 726,01 0,00 30/09/2015
895 615500 EUNICE BARBOSA PINTO OFICIAL DO MP ATIVO CARLOS CHAGAS - COMARCA; CARLOS CHAGAS-PJ-UNPJ 3.445,03 0,00 0,00 0,00 0,00 0,00 3.445,03 378,95 105,11 0,00 484,06 2.960,97 726,01 0,00 30/09/2015
896 641200 EUNICE ELVIRA DA SILVA MATOS OFICIAL DO MP ATIVO BELO HORIZONTE - COMARCA; BH-14PJ DEFESA CONSUMIDOR-SECRETARIA 3.030,62 0,00 0,00 0,00 0,00 0,00 3.030,62 333,37 59,49 0,00 392,86 2.637,76 726,01 0,00 30/09/2015
897 557900 EURIPEDES JUSUE PERES OFICIAL DO MP ATIVO IBIÁ - COMARCA; IBIA-PJ-UNPJ 3.129,28 0,00 0,00 0,00 0,00 0,00 3.129,28 344,22 66,08 0,00 410,30 2.718,98 726,01 0,00 30/09/2015
898 225800 EURO CESAR VIEIRA BARBOSA ANALISTA DO MP ATIVO BELO HORIZONTE - COMARCA; BH-17PJ PATRIMONIO PUBLICO 13.097,56 3.929,27 0,00 0,00 0,00 0,00 17.026,83 1.872,95 3.193,68 0,00 5.066,63 11.960,20 726,01 0,00 30/09/2015
899 199400 EUSTAQUIO ADAILTON LIMA E SILVA OFICIAL DO MP ATIVO MANGA - COMARCA; MANGA-PJ-01PJ 9.920,24 4.960,12 0,00 0,00 0,00 0,00 14.880,36 1.636,84 2.564,06 0,00 4.200,90 10.679,46 726,01 0,00 30/09/2015
900 249000 EUSTAQUIO GOMES DE OLIVEIRA OFICIAL DO MP ATIVO BELO HORIZONTE - COMARCA; CAO-TS-CONTROLADORIA E APOIO AS ENTIDADES  6.973,67 2.789,47 0,00 0,00 0,00 0,00 9.763,14 1.073,95 1.520,17 0,00 2.594,12 7.169,02 726,01 0,00 30/09/2015
901 67100 EVA DAS DORES BARROS VALGAS ANALISTA DO MP ATIVO FERROS - COMARCA; FERROS-PJ-SECRETARIA 15.298,25 10.708,79 0,00 0,00 0,00 0,00 26.007,04 2.860,77 5.391,59 0,00 8.252,36 17.754,68 726,01 0,00 30/09/2015
902 548000 EVA VILMA LEAO DOS REIS JULIO OFICIAL DO MP ATIVO BELO HORIZONTE - COMARCA; BH-15PJ M AMB 16PJ HAB URB-SECRETARIA 3.792,57 758,51 0,00 0,00 0,00 0,00 4.551,08 500,62 275,22 0,00 775,84 3.775,24 726,01 0,00 30/09/2015
903 517000 EVALDO SENA COSTA FILHO ANALISTA DO MP ATIVO CONTAGEM - COMARCA; CONTAGEM-PJ-15PJ 6.641,51 1.328,30 0,00 0,00 0,00 0,00 7.969,81 876,68 924,84 0,00 1.801,52 6.168,29 726,01 0,00 30/09/2015
904 217500 EVELANGE LEAO RABELO ASSESSOR ATIVO BELO HORIZONTE - COMARCA; COORD EST DEF DIR FAMILIA PESSOA DEFICI IDOSO 0,00 750,19 2.500,62 0,00 0,00 0,00 3.250,81 437,45 176,11 0,00 613,56 2.637,25 726,01 0,00 30/09/2015
905 540400 EVIE SARAMELLA DE RESENDE OFICIAL DO MP ATIVO BARBACENA - COMARCA; BARBACENA-PJ-05PJ 3.445,03 0,00 0,00 0,00 0,00 0,00 3.445,03 378,95 105,11 0,00 484,06 2.960,97 726,01 0,00 30/09/2015
906 469000 EWERTON CARDOSO DE SA RODRIGUES ANALISTA DO MP ATIVO CAMPO BELO - COMARCA; CAMPO BELO-PJ-01PJ 7.200,74 432,04 0,00 0,00 0,00 0,00 7.632,78 839,61 946,62 0,00 1.786,23 5.846,55 726,01 0,00 30/09/2015
907 368900 FABIANA BARBOSA SIQUEIRA OFICIAL DO MP ATIVO BELO HORIZONTE - COMARCA; CAO-ORDEM ECONOMICA E TRIBUTARIA-SECRETARIA 6.229,29 622,93 0,00 0,00 0,00 0,00 6.852,22 792,51 841,84 0,00 1.634,35 5.217,87 961,01 352,44 30/09/2015
908 273800 FABIANA CARNEIRO AMORIM COORDENADOR/OFICIAL ATIVO BELO HORIZONTE - COMARCA; BH-23PJ INFRACIONAL-COORD ADM INFRACIONAL 0,00 1.921,48 9.607,41 0,00 0,00 0,00 11.528,89 876,68 1.955,72 0,00 2.832,40 8.696,49 726,01 0,00 30/09/2015
909 519300 FABIANA DE OLIVEIRA LOUREIRO ANALISTA DO MP ATIVO BELO HORIZONTE - COMARCA; BH-09PJ AUDITORIA MILITAR 6.641,51 398,49 0,00 0,00 0,00 0,00 7.040,00 774,40 853,68 0,00 1.628,08 5.411,92 961,01 0,00 30/09/2015
910 363400 FABIANA DOURADO DUPIN VIEGAS ANALISTA DO MP ATIVO BELO HORIZONTE - COMARCA; GABINETE DE PROCURADOR DE JUSTIÇA - SALA 705 9.920,24 992,02 0,00 0,00 0,00 0,00 10.912,26 1.200,35 1.749,28 0,00 2.949,63 7.962,63 1.196,01 0,00 30/09/2015
911 410800 FABIANA DUARTE QUITITE ANALISTA DO MP ATIVO BELO HORIZONTE - COMARCA; EXTINTA-MEIO AMB PATRIM HIST CULTURAL-15PJGAB 8.727,00 872,70 0,00 0,00 0,00 0,00 9.599,70 1.110,28 1.601,01 0,00 2.711,29 6.888,41 726,01 493,74 30/09/2015
912 419500 FABIANA EULALIA DOS SANTOS ANALISTA DO MP ATIVO SÃO JOÃO DEL REI - COMARCA; SAO JOAO DEL REI-PJ-01PJ 8.451,80 845,18 0,00 0,00 0,00 0,00 9.296,98 1.022,67 1.406,08 0,00 2.428,75 6.868,23 726,01 0,00 30/09/2015
913 376300 FABIANA MATTOSO LEMOS ANALISTA DO MP ATIVO BELO HORIZONTE - COMARCA; COORD-GERAL DAS PJS POR BACIA HIDRO. DE MG 9.011,08 901,11 0,00 0,00 0,00 0,00 9.912,19 1.090,34 1.556,65 0,00 2.646,99 7.265,20 726,01 0,00 30/09/2015
914 331500 FABIANA PACHECO OFICIAL DO MP ATIVO GUAXUPÉ - COMARCA; GUAXUPE-PJ-01PJ 6.229,29 1.245,86 0,00 0,00 0,00 0,00 7.475,15 822,27 855,91 0,00 1.678,18 5.796,97 726,01 0,00 30/09/2015
915 510700 FABIANA PEREIRA SANTOS BORGES ANALISTA DO MP ATIVO BELO HORIZONTE - COMARCA; DIRETORIA DE SISTEMAS DE INFORMACAO 6.641,51 398,49 0,00 0,00 0,00 0,00 7.040,00 774,40 801,54 0,00 1.575,94 5.464,06 726,01 0,00 30/09/2015
916 181700 FABIANA SOUZA FERREIRA OFICIAL DO MP ATIVO BELO HORIZONTE - COMARCA; BH-19PJ SAUDE-SECRETARIA 150PJ 4.820,91 1.446,27 0,00 0,00 0,00 0,00 6.267,18 689,39 560,26 0,00 1.249,65 5.017,53 961,01 0,00 30/09/2015
917 272900 FABIANA STOCKLER LEITE OFICIAL DO MP ATIVO LAJINHA - COMARCA; LAJINHA-PJ-SECRETARIA 6.857,79 2.743,12 0,00 0,00 0,00 0,00 9.600,91 1.056,10 1.376,19 0,00 2.432,29 7.168,62 961,01 0,00 30/09/2015
918 225500 FABIANE DE FATIMA PORTELLA ANALISTA DO MP ATIVO BELO HORIZONTE - COMARCA; SERVICO MEDICO-DEPTO PERIC MEDICA SAUDE OCUP 12.598,78 2.519,76 0,00 0,00 0,00 0,00 15.118,54 1.663,04 2.830,90 0,00 4.493,94 10.624,60 726,01 0,00 30/09/2015
919 433800 FABIANE DINIZ MATTOS ANALISTA DO MP ATIVO BELO HORIZONTE - COMARCA; BH-23PJ INFRACIONAL-ASS JURIDICA 8.451,80 845,18 0,00 0,00 0,00 0,00 9.296,98 1.075,27 1.523,12 0,00 2.598,39 6.698,59 726,01 478,20 30/09/2015
920 455000 FABIANO CARVALHO DA SILVA ANALISTA DO MP ATIVO LAVRAS - COMARCA; COORD REG DO MA DA BACIA DO RIO GRANDE 7.435,23 743,52 0,00 0,00 0,00 0,00 8.178,75 899,66 1.132,39 0,00 2.032,05 6.146,70 726,01 0,00 30/09/2015
921 498800 FABIANO FURTADO PESSOA COELHO ANALISTA DO MP ATIVO BELO HORIZONTE - COMARCA; DIRETORIA DE REDES E BANCOS DE DADOS 6.641,51 398,49 0,00 0,00 0,00 0,00 7.040,00 774,40 801,54 0,00 1.575,94 5.464,06 961,01 0,00 30/09/2015
922 394600 FABIANO PALHARES SILVA ANALISTA DO MP ATIVO BELO HORIZONTE - COMARCA; CENTRAL DE APOIO TECN-SETOR DE MEIO AMBIENTE 8.727,00 872,70 0,00 0,00 0,00 0,00 9.599,70 1.055,97 1.428,03 0,00 2.484,00 7.115,70 961,01 0,00 30/09/2015
923 444400 FABIANO SARAIVA MEDEIROS ANALISTA DO MP ATIVO BETIM - COMARCA; BETIM-PJ-11PJ 7.435,23 743,52 0,00 0,00 0,00 0,00 8.178,75 899,66 1.028,12 0,00 1.927,78 6.250,97 1.196,01 0,00 30/09/2015
924 408700 FABIANO SOARES PORTILHO ANALISTA DO MP ATIVO VIÇOSA - COMARCA; VICOSA-PJ-02PJ 8.451,80 845,18 0,00 0,00 0,00 0,00 9.296,98 1.022,67 1.406,08 0,00 2.428,75 6.868,23 726,01 0,00 30/09/2015
925 442600 FABIO CARVALHO VIEIRA ANALISTA DO MP ATIVO MONTES CLAROS - COMARCA; MONTES CLAROS-PJ-06PJ 6.229,29 622,93 0,00 0,00 0,00 0,00 6.852,22 753,74 807,72 0,00 1.561,46 5.290,76 726,01 0,00 30/09/2015
926 123700 FABIO JOSE ANDRADE NOGUEIRA OFICIAL DO MP ATIVO FORMIGA - COMARCA; FORMIGA-PJ-SECRETARIA 8.185,27 6.548,22 0,00 0,00 0,00 0,00 14.733,49 1.620,68 1.595,29 0,00 3.215,97 11.517,52 726,01 0,00 30/09/2015
927 240101 FABIO JUNQUEIRA DE ASSIS FONSECA OFICIAL DO MP ATIVO BELO HORIZONTE - COMARCA; DIRET DE DESENV DE RECURSOS HUMANOS-DDRH 4.977,82 497,78 0,00 0,00 0,00 0,00 5.475,60 602,32 470,79 0,00 1.073,11 4.402,49 726,01 0,00 30/09/2015
928 271500 FABIO LUIZ VIEIRA OFICIAL DO MP ATIVO SANTA VITÓRIA - COMARCA; SANTA VITORIA-PJ-UNPJ 7.200,74 1.440,15 0,00 0,00 0,00 0,00 8.640,89 950,50 1.141,22 0,00 2.091,72 6.549,17 968,41 0,00 30/09/2015
929 213100 FABIO PRATES GONCALVES ASSESSOR ATIVO BELO HORIZONTE - COMARCA; DIRETORIA DE RELACOES PUBLICAS E CERIMONIAL 0,00 1.992,45 6.641,51 0,00 0,00 0,00 8.633,96 513,01 1.407,14 0,00 1.920,15 6.713,81 961,01 0,00 30/09/2015
930 436700 FABIO SANTIAGO DE CARVALHO OFICIAL DO MP ATIVO POÇO FUNDO - COMARCA; POCO FUNDO-PJ-UNPJ 5.307,28 530,73 0,00 0,00 0,00 0,00 5.838,01 642,18 559,49 0,00 1.201,67 4.636,34 726,01 0,00 30/09/2015
931 208400 FABIOLA DE SOUSA CARDOSO ASSESSOR/ANALISTA ATIVO BELO HORIZONTE - COMARCA; ASSESS TECNICA DA CORREGEDORIA-GERAL DO MP 14.715,61 6.463,32 0,00 0,00 0,00 0,00 21.178,93 2.104,33 4.376,16 0,00 6.480,49 14.698,44 726,01 0,00 30/09/2015
932 392200 FABIOLA LEROY COSTA ANALISTA DO MP ATIVO ESMERALDAS - COMARCA; ESMERALDAS-PJ-01PJ 7.677,29 767,73 0,00 0,00 0,00 0,00 8.445,02 928,95 1.197,56 0,00 2.126,51 6.318,51 726,01 0,00 30/09/2015
933 409000 FABIOLA MONTEIRO DE CARVALHO CASTRO ANALISTA DO MP ATIVO BOM SUCESSO - COMARCA; BOM SUCESSO-PJ-UNPJ 8.185,27 818,53 0,00 0,00 0,00 0,00 9.003,80 990,42 1.334,32 0,00 2.324,74 6.679,06 726,01 0,00 30/09/2015
934 227900 FABIOLA PIMENTA DE CARVALHO OFICIAL DO MP ATIVO MONTES CLAROS - COMARCA; COORD REG BACIA RIOS VERDE GRANDE E PARDO 6.229,29 1.245,86 0,00 0,00 0,00 0,00 7.475,15 822,27 908,04 0,00 1.730,31 5.744,84 726,01 0,00 30/09/2015
935 525800 FABRICIA ALVES DANTAS OFICIAL DO MP ATIVO MONTES CLAROS - COMARCA; MONTES CLAROS-PJ-01PJ 4.241,01 254,46 0,00 0,00 0,00 0,00 4.495,47 494,50 188,47 0,00 682,97 3.812,50 726,01 0,00 30/09/2015
936 263400 FABRICIA PINTO TEIXEIRA SANTIAGO OFICIAL DO MP ATIVO BELO HORIZONTE - COMARCA; CAO-TS-TERCEIRO SETOR-SECRETARIA 6.973,67 1.394,73 0,00 0,00 0,00 0,00 8.368,40 920,52 1.074,53 0,00 1.995,05 6.373,35 961,01 0,00 30/09/2015
937 420800 FABRICIO BERNARDES DE OLIVEIRA OFICIAL DO MP ATIVO ITURAMA - COMARCA; ITURAMA-PJ-02PJ 5.307,28 530,73 0,00 0,00 0,00 0,00 5.838,01 642,18 507,36 0,00 1.149,54 4.688,47 775,69 0,00 30/09/2015
938 474000 FABRICIO DE FREITAS SALES ANALISTA DO MP ATIVO MONTES CLAROS - COMARCA; COORD REG PATRI PUB ORD TRIB-NORTE MINAS 7.200,74 432,04 0,00 0,00 0,00 0,00 7.632,78 839,61 998,76 0,00 1.838,37 5.794,41 961,01 0,00 30/09/2015
939 510100 FABRICIO FURTADO ASSIS DO CARMO ANALISTA DO MP ATIVO BELO HORIZONTE - COMARCA; SERVICO MEDICO-DEPTO PERIC MEDICA SAUDE OCUP 6.032,93 1.145,19 0,00 0,00 0,00 0,00 7.178,12 703,44 911,18 0,00 1.614,62 5.563,50 726,01 0,00 30/09/2015
940 519600 FABRICIO GONTIJO SALVATI ANALISTA DO MP ATIVO JUIZ DE FORA - COMARCA; JUIZ DE FORA-PJ-13PJ 6.641,51 398,49 0,00 0,00 0,00 0,00 7.040,00 774,40 853,68 0,00 1.628,08 5.411,92 726,01 0,00 30/09/2015
941 637400 FABRICIO HENRIQUE DA SILVA PASSOS ANALISTA DO MP ATIVO BELO HORIZONTE - COMARCA; DIRETORIA DE PUBLICIDADE INSTITUCIONAL 5.139,92 0,00 0,00 0,00 0,00 0,00 5.139,92 565,39 393,14 0,00 958,53 4.181,39 726,01 0,00 30/09/2015
942 428200 FABRICIO ORZIL VIANA ANALISTA DO MP ATIVO SANTA LUZIA - COMARCA; SANTA LUZIA-PJ-04PJ 7.435,23 743,52 0,00 0,00 0,00 0,00 8.178,75 899,66 1.132,39 0,00 2.032,05 6.146,70 726,01 0,00 30/09/2015
943 455600 FABRICIO PAIVA DA ROCHA ANALISTA DO MP ATIVO SÃO JOÃO DEL REI - COMARCA; SAO JOAO DEL REI-PJ-06PJ 7.200,74 432,04 0,00 0,00 0,00 0,00 7.632,78 839,61 946,62 0,00 1.786,23 5.846,55 726,01 0,00 30/09/2015
944 511500 FABRICIO RENE CARDOSO DE PADUA ANALISTA DO MP ATIVO SÃO SEBASTIÃO DO PARAÍSO - COMARCA; SAO SEBASTIAO DO PARAISO-PJ-03PJ 6.641,51 398,49 0,00 0,00 0,00 0,00 7.040,00 774,40 853,68 0,00 1.628,08 5.411,92 726,01 0,00 30/09/2015
945 496100 FABRICIO RESENDE GONCALVES OFICIAL DO MP ATIVO ENTRE-RIOS DE MINAS - COMARCA; ENTRE RIOS DE MINAS-PJ-UNPJ 4.241,01 1.429,28 0,00 0,00 0,00 0,00 5.670,29 494,50 553,98 0,00 1.048,48 4.621,81 726,01 0,00 30/09/2015
946 514900 FADUA MARIA DRUMOND CHEQUER FIGUEIREDO ANALISTA DO MP ATIVO ALMENARA - COMARCA; COORD REG INCLUSAO MOBILIZ VALE JEQUITINHONHA 6.641,51 398,49 0,00 0,00 0,00 0,00 7.040,00 774,40 749,41 0,00 1.523,81 5.516,19 1.587,67 0,00 30/09/2015
947 282500 FANNY FERREIRA MELO FAVERO DE FRAVET OFICIAL DO MP ATIVO ARAXÁ - COMARCA; ARAXA-PJ-03PJ 5.842,66 1.168,53 0,00 0,00 0,00 0,00 7.011,19 771,23 846,63 0,00 1.617,86 5.393,33 961,01 0,00 30/09/2015
948 540100 FATIMA CRISTINA POVOA DA COSTA OFICIAL DO MP ATIVO BELO HORIZONTE - COMARCA; BH-18PJ VIOLENCIA DOMESTICA-SECRETARIA 3.792,57 758,51 0,00 0,00 0,00 0,00 4.551,08 500,62 275,22 0,00 775,84 3.775,24 726,01 0,00 30/09/2015
949 382800 FATIMA DE OLIVEIRA COELHO E SILVA OFICIAL DO MP ATIVO BELO HORIZONTE - COMARCA; DIRETORIA DE ADMINISTRACAO FINANCEIRA 4.521,68 904,34 0,00 0,00 0,00 0,00 5.426,02 596,86 407,77 0,00 1.004,63 4.421,39 961,01 0,00 30/09/2015
950 398601 FELIPE ANTONIO HORTA DE PAULA ANALISTA DO MP ATIVO BELO HORIZONTE - COMARCA; PROC. JUSTICA DIR. DIFUSOS E COLETIVOS-SEC 5.842,66 0,00 0,00 0,00 0,00 0,00 5.842,66 642,69 560,63 0,00 1.203,32 4.639,34 726,01 0,00 30/09/2015
951 430900 FELIPE BOY VIEIRA ANALISTA DO MP ATIVO BELO HORIZONTE - COMARCA; CAO-DH APOIO COMUNITARIO-SEC ADM 8.185,27 818,53 0,00 0,00 0,00 0,00 9.003,80 990,42 1.334,32 0,00 2.324,74 6.679,06 726,01 0,00 30/09/2015
952 631700 FELIPE DE MORAIS SIMOES COELHO ANALISTA DO MP ATIVO BELO HORIZONTE - COMARCA; BH-18PJ VIOLENCIA DOMESTICA 4.668,87 0,00 0,00 0,00 0,00 0,00 4.668,87 513,58 298,81 0,00 812,39 3.856,48 726,01 0,00 30/09/2015
953 549100 FELIPE FERNANDES ALVIM ANALISTA DO MP ATIVO LAJINHA - COMARCA; LAJINHA-PJ-UNPJ 5.842,66 0,00 0,00 0,00 0,00 0,00 5.842,66 642,69 560,63 0,00 1.203,32 4.639,34 726,01 0,00 30/09/2015
954 487300 FELIPE FERNANDES SILVEIRA ASSESSOR ATIVO BELO HORIZONTE - COMARCA; DIVISAO DE MANUTENCAO PREDIAL 0,00 0,00 2.500,62 0,00 0,00 0,00 2.500,62 354,93 75,96 0,00 430,89 2.069,73 726,01 0,00 30/09/2015
955 620100 FELIPE GOMES DE AZEVEDO OFICIAL DO MP ATIVO BELO HORIZONTE - COMARCA; BH-18PJ VIOLENCIA DOMESTICA-SECRETARIA 3.129,28 0,00 0,00 0,00 0,00 0,00 3.129,28 344,22 66,08 0,00 410,30 2.718,98 726,01 0,00 30/09/2015
956 601600 FELIPE RODRIGUES DE SIQUEIRA ANALISTA DO MP ATIVO BELO HORIZONTE - COMARCA; BH-02PJ FAMILIA-SECRETARIA 5.307,28 0,00 0,00 0,00 0,00 0,00 5.307,28 583,80 429,60 0,00 1.013,40 4.293,88 726,01 0,00 30/09/2015
957 628900 FELIX FERNANDO JUNIO VIEIRA ANALISTA DO MP ATIVO CAETÉ - COMARCA; CAETE-PJ-02PJ 4.668,87 0,00 0,00 0,00 1.556,29 0,00 6.225,16 513,58 649,19 0,00 1.162,77 5.062,39 726,01 0,00 30/09/2015
958 544500 FELLIPE LEMOS MARCONDES BUENO ANALISTA DO MP ATIVO SÃO SEBASTIÃO DO PARAÍSO - COMARCA; SAO SEBASTIAO DO PARAISO-PJ-04PJ 5.842,66 0,00 0,00 0,00 0,00 0,00 5.842,66 642,69 560,63 0,00 1.203,32 4.639,34 726,01 0,00 30/09/2015
959 612600 FERNANDA ADRIANA DE PAULA GUIDO ANALISTA DO MP ATIVO PARACATU - COMARCA; PARACATU-PJ-03PJ 5.307,28 0,00 0,00 0,00 0,00 0,00 5.307,28 583,80 429,60 0,00 1.013,40 4.293,88 726,01 0,00 30/09/2015
960 508400 FERNANDA AGANETTI MATTOS DE OLIVEIRA ANALISTA DO MP ATIVO BELO HORIZONTE - COMARCA; BH-19PJ SAUDE 6.641,51 398,49 0,00 0,00 0,00 0,00 7.040,00 774,40 853,68 0,00 1.628,08 5.411,92 726,01 0,00 30/09/2015
961 453600 FERNANDA ALBERNAZ RABELO ANALISTA DO MP ATIVO BELO HORIZONTE - COMARCA; GABINETE DE PROCURADOR DE JUSTIÇA - SALA 616 7.435,23 743,52 0,00 0,00 0,00 0,00 8.178,75 899,66 1.132,39 0,00 2.032,05 6.146,70 726,01 0,00 30/09/2015
962 255600 FERNANDA ALINA DE ALMEIDA ANDRADE OFICIAL DO MP ATIVO BELO HORIZONTE - COMARCA; SUPRIN DE PLANEJAMENTO E COORDENACAO 6.432,09 1.286,42 0,00 0,00 0,00 0,00 7.718,51 849,04 1.019,74 0,00 1.868,78 5.849,73 726,01 0,00 30/09/2015
963 443200 FERNANDA ALMEIDA LOPES ANALISTA DO MP ATIVO CONTAGEM - COMARCA; CONTAGEM-PJ-23PJ 8.451,80 845,18 0,00 0,00 0,00 0,00 9.296,98 1.022,67 1.406,08 0,00 2.428,75 6.868,23 726,01 0,00 30/09/2015
964 281100 FERNANDA ANANIAS MEIRA ANALISTA DO MP ATIVO BELO HORIZONTE - COMARCA; BH-23PJ INFRACIONAL-ASS JURIDICA 10.576,63 2.115,33 0,00 0,00 0,00 0,00 12.691,96 1.396,12 2.237,00 0,00 3.633,12 9.058,84 726,01 0,00 30/09/2015
965 539000 FERNANDA BARBOSA ALVES ANALISTA DO MP ATIVO CANÁPOLIS - COMARCA; CANAPOLIS-PJ-SECRETARIA 5.842,66 0,00 0,00 0,00 0,00 0,00 5.842,66 642,69 560,63 0,00 1.203,32 4.639,34 726,01 0,00 30/09/2015
966 451200 FERNANDA BLOISE PRADO OFICIAL DO MP ATIVO BELO HORIZONTE - COMARCA; NUCLEO DE NEGOCIACAO DE CONFLITOS AMBIENTAIS 4.379,06 437,91 0,00 0,00 0,00 0,00 4.816,97 529,87 328,47 0,00 858,34 3.958,63 726,01 0,00 30/09/2015
967 427900 FERNANDA BRAGA CARNEIRO BICALHO ANALISTA DO MP ATIVO PEÇANHA - COMARCA; PECANHA-PJ-SECRETARIA 8.185,27 818,53 0,00 0,00 0,00 0,00 9.003,80 990,42 1.282,18 0,00 2.272,60 6.731,20 726,01 0,00 30/09/2015
968 507100 FERNANDA CABRINI VAZ MOTA ANALISTA DO MP ATIVO BELO HORIZONTE - COMARCA; ASSESSORIA JURIDICO-ADMINISTRATIVA 6.641,51 398,49 0,00 0,00 0,00 0,00 7.040,00 774,40 853,68 0,00 1.628,08 5.411,92 726,01 0,00 30/09/2015
969 259800 FERNANDA CALZAVARA DE SOUSA COORDENADOR/OFICIAL ATIVO BELO HORIZONTE - COMARCA; DIRET DE FORMACAO, APERFEIC. E POS-GRADUACAO 0,00 2.184,20 10.921,00 0,00 0,00 0,00 13.105,20 950,50 2.473,18 0,00 3.423,68 9.681,52 726,01 0,00 30/09/2015
970 550300 FERNANDA CAMARGOS CALDEIRA BRANT ANALISTA DO MP ATIVO CONTAGEM - COMARCA; CONTAGEM-PJ-10PJ 5.842,66 0,00 0,00 0,00 0,00 0,00 5.842,66 642,69 560,63 0,00 1.203,32 4.639,34 726,01 0,00 30/09/2015
971 494400 FERNANDA CAMPOS BARATA OFICIAL DO MP ATIVO JUIZ DE FORA - COMARCA; JUIZ DE FORA-PJ-08PJ 3.916,07 234,96 0,00 0,00 0,00 0,00 4.151,03 456,61 199,36 0,00 655,97 3.495,06 961,01 0,00 30/09/2015
972 555600 FERNANDA CAROLINE RIBEIRO ANALISTA DO MP ATIVO BELO HORIZONTE - COMARCA; EXTINTA - DIRETORIA DE CONTRATOS E CONVÊNIOS 5.842,66 0,00 0,00 0,00 0,00 0,00 5.842,66 642,69 560,63 0,00 1.203,32 4.639,34 726,01 0,00 30/09/2015
973 294500 FERNANDA COSTA FLORES OFICIAL DO MP ATIVO PARÁ DE MINAS - COMARCA; PARA DE MINAS-PJ-04PJ 6.973,67 1.394,73 0,00 0,00 0,00 0,00 8.368,40 920,52 1.126,67 0,00 2.047,19 6.321,21 726,01 0,00 30/09/2015
974 344500 FERNANDA CRISTINA DE SOUZA PAZ ASSESSOR ATIVO BELO HORIZONTE - COMARCA; CENTRAL DE APOIO TECN-SETOR DE MEIO AMBIENTE 0,00 0,00 4.175,17 0,00 0,00 0,00 4.175,17 513,01 265,89 0,00 778,90 3.396,27 961,01 0,00 30/09/2015
975 538100 FERNANDA CRISTINA DOS SANTOS ROSA MOREIRA OFICIAL DO MP ATIVO RIBEIRÃO DAS NEVES - COMARCA; RIBEIRAO DAS NEVES-PJ-09PJ 3.792,57 758,51 0,00 0,00 0,00 0,00 4.551,08 500,62 275,22 0,00 775,84 3.775,24 726,01 0,00 30/09/2015
976 337800 FERNANDA CRISTINA REIS ROLAND CLIMACO DA SILVA ASSESSOR/OFICIAL ATIVO BELO HORIZONTE - COMARCA; DIRETORIA-GERAL 0,00 1.860,89 9.304,45 0,00 0,00 0,00 11.165,34 876,68 1.960,02 0,00 2.836,70 8.328,64 726,01 0,00 30/09/2015
977 545400 FERNANDA CUNHA GUIMARAES ANALISTA DO MP ATIVO BELO HORIZONTE - COMARCA; EXTINTA - COORD DEFESA DO DIREITO DE FAMILIA 5.307,28 0,00 0,00 0,00 0,00 0,00 5.307,28 583,80 429,60 0,00 1.013,40 4.293,88 726,01 0,00 30/09/2015
978 429801 FERNANDA CUNHA PINHEIRO DA SILVA ANALISTA DO MP ATIVO BELO HORIZONTE - COMARCA; SUPERINTENDENCIA DE COMUNICACAO INTEGRADA 6.032,93 361,98 0,00 0,00 0,00 0,00 6.394,91 703,44 695,79 0,00 1.399,23 4.995,68 726,01 0,00 30/09/2015
979 408000 FERNANDA DAS NEVES RAMOS ANALISTA DO MP ATIVO BELO HORIZONTE - COMARCA; CENTRAL DE APOIO TECNICO-SETOR CONTABIL 8.451,80 845,18 0,00 0,00 0,00 0,00 9.296,98 1.022,67 1.406,08 0,00 2.428,75 6.868,23 726,01 0,00 30/09/2015
980 496000 FERNANDA DE ALMEIDA VIANA ASSESSOR/ANALISTA ATIVO BELO HORIZONTE - COMARCA; PROC JUST RECURSOS ESP E EXTRAORD CRIMINAIS 0,00 507,11 8.451,80 0,00 0,00 0,00 8.958,91 774,40 1.381,38 0,00 2.155,78 6.803,13 726,01 0,00 30/09/2015
981 266700 FERNANDA DE CASTRO LUCAS ASSESSOR/OFICIAL ATIVO BELO HORIZONTE - COMARCA; DIRET DE DESENV DE RECURSOS HUMANOS-DDRH 0,00 1.860,89 9.304,45 0,00 0,00 0,00 11.165,34 920,52 2.143,57 0,00 3.064,09 8.101,25 726,01 711,28 30/09/2015
982 433200 FERNANDA DE FIGUEIREDO NORTE ANALISTA DO MP ATIVO BELO HORIZONTE - COMARCA; ASSESS JUR DO CONS SUPERIOR DO MINISTERIO PUB 8.451,80 845,18 0,00 0,00 0,00 0,00 9.296,98 1.022,67 1.301,80 0,00 2.324,47 6.972,51 1.196,01 0,00 30/09/2015
983 419200 FERNANDA DE MIRANDA MARTINS SIMOES ANALISTA DO MP ATIVO UBERLÂNDIA - COMARCA; UBERLANDIA-PJ-19PJ 8.727,00 872,70 0,00 0,00 0,00 0,00 9.599,70 1.055,97 1.480,17 0,00 2.536,14 7.063,56 726,01 0,00 30/09/2015
984 441400 FERNANDA DE MORAIS PINTO ANALISTA DO MP ATIVO BELO HORIZONTE - COMARCA; PROC. JUSTICA DIR. DIFUSOS E COLETIVOS-SEC 7.435,23 743,52 0,00 0,00 0,00 0,00 8.178,75 899,66 1.132,39 0,00 2.032,05 6.146,70 726,01 0,00 30/09/2015
985 432200 FERNANDA DE MOURA GUIMARAES ANALISTA DO MP ATIVO BELO HORIZONTE - COMARCA; ASSESS TECNICO-JUR JUNTO AS PROC. DE JUST 8.451,80 845,18 0,00 0,00 0,00 0,00 9.296,98 1.022,67 1.406,08 0,00 2.428,75 6.868,23 961,01 0,00 30/09/2015
986 461800 FERNANDA DE OLIVEIRA SANTOS ANALISTA DO MP ATIVO JUIZ DE FORA - COMARCA; JUIZ DE FORA-PJ-21PJ 7.200,74 432,04 0,00 0,00 0,00 0,00 7.632,78 839,61 998,76 0,00 1.838,37 5.794,41 961,01 0,00 30/09/2015
987 432500 FERNANDA DE PAULA ABRANTES ANALISTA DO MP ATIVO BELO HORIZONTE - COMARCA; PROC JUST RECURSOS ESP E EXTRAORD CRIMINAIS 8.185,27 818,53 0,00 0,00 0,00 0,00 9.003,80 990,42 1.334,32 0,00 2.324,74 6.679,06 726,01 0,00 30/09/2015
988 431600 FERNANDA DIAS BARBOSA MENEZES ANALISTA DO MP ATIVO OURO BRANCO - COMARCA; OURO BRANCO-PJ-UNPJ 8.451,80 845,18 0,00 0,00 0,00 0,00 9.296,98 1.022,67 1.301,80 0,00 2.324,47 6.972,51 961,01 0,00 30/09/2015
989 162200 FERNANDA FERNANDES MONTEIRO ASSESSOR ATIVO BELO HORIZONTE - COMARCA; CAO-DH APOIO COMUNITARIO-SEC ADM 0,00 1.252,55 4.175,17 0,00 0,00 0,00 5.427,72 513,01 629,70 0,00 1.142,71 4.285,01 961,01 0,00 30/09/2015
990 512800 FERNANDA FERREIRA BARBOSA MOREIRA ANALISTA DO MP ATIVO IPATINGA - COMARCA; IPATINGA-PJ-05PJ 6.032,93 361,98 0,00 0,00 0,00 0,00 6.394,91 703,44 695,79 0,00 1.399,23 4.995,68 961,01 0,00 30/09/2015
991 329200 FERNANDA GABRIEL GUZELLA OFICIAL DO MP ATIVO BELO HORIZONTE - COMARCA; DIRET DE PLANOS PROJETOS E PROGRAMAS INST 6.641,51 1.328,30 0,00 0,00 0,00 0,00 7.969,81 876,68 1.081,25 0,00 1.957,93 6.011,88 726,01 0,00 30/09/2015
992 324200 FERNANDA GEORGIA NEVES ZAHAN OFICIAL DO MP ATIVO IPANEMA - COMARCA; IPANEMA-PJ-SECRETARIA 5.307,28 2.653,64 0,00 0,00 0,00 0,00 7.960,92 875,70 1.079,08 0,00 1.954,78 6.006,14 726,01 0,00 30/09/2015
993 548200 FERNANDA GONCALVES DE CARVALHO ZUZA OFICIAL DO MP ATIVO TUPACIGUARA - COMARCA; TUPACIGUARA-PJ-UNPJ 3.445,03 0,00 0,00 0,00 0,00 0,00 3.445,03 378,95 105,11 0,00 484,06 2.960,97 726,01 0,00 30/09/2015
994 355400 FERNANDA HELENA BASQUES OFICIAL DO MP ATIVO SABARÁ - COMARCA; SABARA-PJ-01PJ 6.229,29 622,93 0,00 0,00 0,00 0,00 6.852,22 753,74 807,72 0,00 1.561,46 5.290,76 726,01 0,00 30/09/2015
995 454800 FERNANDA IATAROLA BARBOSA DIAS ANALISTA DO MP ATIVO BARBACENA - COMARCA; BARBACENA-PJ-05PJ 7.435,23 743,52 0,00 0,00 0,00 0,00 8.178,75 899,66 1.080,25 0,00 1.979,91 6.198,84 726,01 0,00 30/09/2015
996 515500 FERNANDA LILIANE MARUGEIRO ANALISTA DO MP ATIVO VESPASIANO - COMARCA; VESPASIANO-PJ-04PJ 6.641,51 398,49 0,00 0,00 0,00 0,00 7.040,00 774,40 853,68 0,00 1.628,08 5.411,92 726,01 0,00 30/09/2015
997 392900 FERNANDA MAGALHAES SILVA COORDENADOR/ANALISTA ATIVO BELO HORIZONTE - COMARCA; DIRETORIA DE IMPRENSA 9.011,08 3.085,31 0,00 0,00 0,00 0,00 12.096,39 1.090,34 2.221,00 0,00 3.311,34 8.785,05 726,01 231,62 30/09/2015
998 409200 FERNANDA MAIA SANTIAGO ANALISTA DO MP ATIVO PIRAPORA - COMARCA; PIRAPORA-PJ-02PJ 6.857,79 685,78 0,00 0,00 0,00 0,00 7.543,57 829,79 976,93 0,00 1.806,72 5.736,85 726,01 0,00 30/09/2015
999 556500 FERNANDA OTERO COSTA ANALISTA DO MP ATIVO BELO HORIZONTE - COMARCA; ASSESS TECNICO-JUR JUNTO AS PROC. DE JUST 5.842,66 0,00 0,00 0,00 0,00 0,00 5.842,66 642,69 560,63 0,00 1.203,32 4.639,34 726,01 0,00 30/09/2015
1000 615300 FERNANDA PATRICIA RIBEIRO MOTA OFICIAL DO MP ATIVO UBERABA - COMARCA; UBERABA-PJ-05PJ 3.129,28 0,00 0,00 0,00 0,00 0,00 3.129,28 344,22 66,08 0,00 410,30 2.718,98 726,01 0,00 30/09/2015
1001 619800 FERNANDA PINTO PEREIRA ANALISTA DO MP ATIVO UBERLÂNDIA - COMARCA; UBERLANDIA-PJ-20PJ 5.139,92 0,00 0,00 0,00 0,00 0,00 5.139,92 565,39 393,14 0,00 958,53 4.181,39 726,01 0,00 30/09/2015
1002 412900 FERNANDA PORTELA ROSA ANALISTA DO MP ATIVO BELO HORIZONTE - COMARCA; BH-08PJ JUIZADO ESPECIAL-SECRETARIA 8.727,00 872,70 0,00 0,00 0,00 0,00 9.599,70 1.110,28 1.601,01 0,00 2.711,29 6.888,41 726,01 493,74 30/09/2015
1003 274301 FERNANDA QUEIROZ PARREIRA ANALISTA DO MP ATIVO PATOS DE MINAS - COMARCA; COORD REG PJ DEF EDU DIR CRI ADO AL PAR NOROE 6.641,51 398,49 0,00 0,00 0,00 0,00 7.040,00 774,40 853,68 0,00 1.628,08 5.411,92 726,01 0,00 30/09/2015
1004 467900 FERNANDA QUEIROZ SIMOES GANNAM ANALISTA DO MP ATIVO SÃO LOURENÇO - COMARCA; SAO LOURENCO-PJ-02PJ 7.200,74 432,04 0,00 0,00 0,00 0,00 7.632,78 839,61 998,76 0,00 1.838,37 5.794,41 961,01 0,00 30/09/2015
1005 255500 FERNANDA SIMOES LOPES MENDES ANALISTA DO MP ATIVO BELO HORIZONTE - COMARCA; BH-17PJ PATRIMONIO PUBLICO-SECRETARIA 11.643,70 2.328,74 0,00 0,00 0,00 0,00 13.972,44 1.536,97 2.446,12 0,00 3.983,09 9.989,35 1.196,01 0,00 30/09/2015
1006 481700 FERNANDA VIANA FROES DA SILVA OFICIAL DO MP ATIVO GOVERNADOR VALADARES - COMARCA; GOVERNADOR VALADARES-PJ-09PJ 5.139,92 308,40 0,00 0,00 0,00 0,00 5.448,32 599,32 464,12 0,00 1.063,44 4.384,88 961,01 0,00 30/09/2015
1007 123900 FERNANDO ANTONIO FARIA ABREU ASSESSOR/ANALISTA ATIVO BELO HORIZONTE - COMARCA; PROCURADORIA-GERAL ADJUNTA ADMINISTRATIVA 21.517,63 22.835,39 0,00 0,00 0,00 3.351,82 47.704,84 3.351,82 7.510,20 13.881,91 24.743,93 22.960,91 726,01 0,00 30/09/2015
1008 416900 FERNANDO APARECIDO DA SILVA ANALISTA DO MP ATIVO BOM DESPACHO - COMARCA; BOM DESPACHO-PJ-01PJ 8.451,80 4.225,90 0,00 0,00 0,00 0,00 12.677,70 1.394,55 2.129,23 0,00 3.523,78 9.153,92 815,49 8,20 30/09/2015
1009 395900 FERNANDO AUGUSTO ETO LAGES ANALISTA DO MP ATIVO BELO HORIZONTE - COMARCA; CENTRAL DE APOIO TECN-SETOR DE MEIO AMBIENTE 8.727,00 872,70 0,00 0,00 0,00 0,00 9.599,70 1.055,97 1.480,17 0,00 2.536,14 7.063,56 726,01 0,00 30/09/2015
1010 380500 FERNANDO BONES COSTA OFICIAL DO MP ATIVO BELO HORIZONTE - COMARCA; EXTINTA - DIVISÃO DE MATERIAL PERMANENTE 4.521,68 452,17 0,00 0,00 0,00 0,00 4.973,85 547,12 359,88 0,00 907,00 4.066,85 726,01 0,00 30/09/2015
1011 500100 FERNANDO CEZAR PINTO ASSESSOR/OFICIAL ATIVO BELO HORIZONTE - COMARCA; EXTINTA - DIVISÃO DE MATERIAL PERMANENTE 0,00 507,11 8.451,80 0,00 0,00 0,00 8.958,91 494,50 1.406,22 0,00 1.900,72 7.058,19 961,01 0,00 30/09/2015
1012 346100 FERNANDO EUSTAQUIO CAMPOS UTSCH MOREIRA ANALISTA DO MP ATIVO BELO HORIZONTE - COMARCA; DIRETORIA DE REDES E BANCOS DE DADOS 10.243,18 1.024,32 0,00 0,00 0,00 0,00 11.267,50 1.239,43 1.731,95 0,00 2.971,38 8.296,12 726,01 0,00 30/09/2015
1013 103500 FERNANDO LUIZ DA SILVA JUNIOR COORDENADOR/OFICIAL ATIVO BELO HORIZONTE - COMARCA; DIVISAO DE ATENDIMENTO E CONSULTA JURIDICA 13.616,17 7.560,10 0,00 0,00 0,00 0,00 21.176,27 2.096,89 4.377,47 0,00 6.474,36 14.701,91 726,01 0,00 30/09/2015
1014 287300 FERNANDO MARCIO ALVES MARTINS OFICIAL DO MP ATIVO LEOPOLDINA - COMARCA; LEOPOLDINA-PJ-01PJ 5.307,28 1.061,46 0,00 0,00 0,00 0,00 6.368,74 700,56 532,98 0,00 1.233,54 5.135,20 726,01 0,00 30/09/2015
1015 262200 FERNANDO MARCIO RESENDE PEREIRA COORDENADOR/OFICIAL ATIVO BELO HORIZONTE - COMARCA; BH-12PJ JUIZO CRIMINAL-SECRETARIA 0,00 1.921,48 9.607,41 0,00 0,00 0,00 11.528,89 876,68 2.060,00 0,00 2.936,68 8.592,21 726,01 0,00 30/09/2015
1016 472900 FERNANDO RODRIGUES DE FREITAS ANALISTA DO MP ATIVO BELO HORIZONTE - COMARCA; BH-15PJ M AMB PAT HIST CULT-ASS TECNICA 7.200,74 432,04 0,00 0,00 0,00 0,00 7.632,78 839,61 946,62 0,00 1.786,23 5.846,55 726,01 0,00 30/09/2015
1017 421400 FERNANDO TEODORO MACIEL ANALISTA DO MP ATIVO SANTA VITÓRIA - COMARCA; SANTA VITORIA-PJ-UNPJ 8.185,27 818,53 0,00 0,00 0,00 0,00 9.003,80 990,42 1.282,18 0,00 2.272,60 6.731,20 961,01 0,00 30/09/2015
1018 446300 FERNANDO VITOR DE OLIVEIRA ANALISTA DO MP ATIVO MONTES CLAROS - COMARCA; COORD REG BACIA RIOS VERDE GRANDE E PARDO 8.451,80 845,18 0,00 0,00 0,00 0,00 9.296,98 1.022,67 1.406,08 0,00 2.428,75 6.868,23 726,01 0,00 30/09/2015
1019 639300 FILIPE ALMEIDA RODRIGUES ANALISTA DO MP ATIVO TIMÓTEO - COMARCA; TIMOTEO-04 PJ 4.668,87 0,00 0,00 0,00 0,00 0,00 4.668,87 513,58 298,81 0,00 812,39 3.856,48 726,01 0,00 30/09/2015
1020 617100 FILLIPE DA SILVA BRAGA ANALISTA DO MP ATIVO DIVINO - COMARCA; DIVINO-PJ-UNPJ 4.668,87 0,00 0,00 0,00 0,00 0,00 4.668,87 513,58 298,81 0,00 812,39 3.856,48 726,01 0,00 30/09/2015
1021 398400 FLAVIA ALVARES GUIMARAES OFICIAL DO MP ATIVO BELO HORIZONTE - COMARCA; CGMP-SECRETARIA DA CORREGEDORIA-GERAL DO MP 5.658,41 565,84 0,00 0,00 0,00 0,00 6.224,25 684,67 601,89 0,00 1.286,56 4.937,69 726,01 0,00 30/09/2015
1022 398200 FLAVIA ALVES DE ASSUNCAO RODRIGUES ANALISTA DO MP ATIVO DIVINÓPOLIS - COMARCA; COORD REG DO MA DA BACIA DO ALTO SAO FRANC 8.451,80 845,18 0,00 0,00 0,00 0,00 9.296,98 1.022,67 1.406,08 0,00 2.428,75 6.868,23 726,01 0,00 30/09/2015
1023 318500 FLAVIA BEATRIZ NUNES CRUZ VIEIRA ANALISTA DO MP ATIVO BARBACENA - COMARCA; BARBACENA-PJ-SECRETARIA 10.243,18 2.048,64 0,00 0,00 0,00 0,00 12.291,82 1.352,10 2.034,79 0,00 3.386,89 8.904,93 1.196,01 0,00 30/09/2015
1024 496500 FLAVIA CARAM BORLIDO ANALISTA DO MP ATIVO BELO HORIZONTE - COMARCA; EXTINTA - DIVISAO DE SERVICOS GERAIS 6.641,51 398,49 0,00 0,00 0,00 0,00 7.040,00 774,40 853,68 0,00 1.628,08 5.411,92 726,01 0,00 30/09/2015
1025 534800 FLAVIA CONDE SOARES ANALISTA DO MP ATIVO BELO HORIZONTE - COMARCA; BH-13PJ JUÍZO DE TÓXICOS-ASSESSORIA JURIDICA 5.842,66 0,00 0,00 0,00 0,00 0,00 5.842,66 642,69 560,63 0,00 1.203,32 4.639,34 726,01 0,00 30/09/2015
1026 219500 FLAVIA CRISTINA ANCELMO OFICIAL DO MP ATIVO BELO HORIZONTE - COMARCA; BH-17PJ PATRIMONIO PUBLICO-SECRETARIA 6.641,51 1.328,30 0,00 0,00 0,00 0,00 7.969,81 876,68 1.081,25 0,00 1.957,93 6.011,88 726,01 0,00 30/09/2015
1027 329600 FLAVIA CRISTINA DE MATOS XAVIER ANALISTA DO MP ATIVO UBERABA - COMARCA; UBERABA-PJ-15PJ 10.243,18 2.048,64 0,00 0,00 0,00 0,00 12.291,82 1.352,10 2.034,79 0,00 3.386,89 8.904,93 726,01 0,00 30/09/2015
1028 207600 FLAVIA DE ANDRADE MANCINI ANALISTA DO MP ATIVO BELO HORIZONTE - COMARCA; ASSESSORIA JURIDICO-ADMINISTRATIVA 13.097,56 3.929,27 0,00 0,00 0,00 0,00 17.026,83 1.872,95 3.141,55 0,00 5.014,50 12.012,33 961,01 0,00 30/09/2015
1029 402801 FLAVIA MARIA DE RESENDE NASCIMENTO ANALISTA DO MP ATIVO SÃO JOÃO DEL REI - COMARCA; SAO JOAO DEL REI-PJ-04PJ 6.641,51 398,49 0,00 0,00 0,00 0,00 7.040,00 774,40 853,68 0,00 1.628,08 5.411,92 961,01 0,00 30/09/2015
1030 437500 FLAVIA MARIA TORRES MARCHETTI COORDENADOR/ANALISTA ATIVO BELO HORIZONTE - COMARCA; BH-13ª PJ JUÍXO DE TÓXICOS 0,00 960,74 9.607,41 0,00 0,00 0,00 10.568,15 899,66 1.685,20 0,00 2.584,86 7.983,29 1.196,01 0,00 30/09/2015
1031 386000 FLAVIA NEVES BRIGIDO OFICIAL DO MP ATIVO BELO HORIZONTE - COMARCA; PROMOT ESTADUAL DE DEF PATRI CULT E TUR DE MG 5.139,92 513,99 0,00 0,00 0,00 0,00 5.653,91 621,93 514,43 0,00 1.136,36 4.517,55 726,01 0,00 30/09/2015
1032 488600 FLAVIA PEREIRA COSTA ANALISTA DO MP ATIVO BELO HORIZONTE - COMARCA; CENTRAL DE APOIO TECNICO 7.200,74 432,04 0,00 0,00 0,00 0,00 7.632,78 839,61 998,76 0,00 1.838,37 5.794,41 726,01 0,00 30/09/2015
1033 365400 FLAVIA PEREIRA DA SILVA OFICIAL DO MP ATIVO BELO HORIZONTE - COMARCA; BH-15PJ M AMB 16PJ HAB URB-SECRETARIA 6.032,93 603,29 0,00 0,00 0,00 0,00 6.636,22 729,98 754,86 0,00 1.484,84 5.151,38 726,01 0,00 30/09/2015
1034 515400 FLAVIA RODRIGUES DE OLIVEIRA E SILVA PAIVA ANALISTA DO MP ATIVO CARATINGA - COMARCA; CARATINGA-PJ-05PJ 6.641,51 398,49 0,00 0,00 0,00 0,00 7.040,00 774,40 645,13 0,00 1.419,53 5.620,47 726,01 0,00 30/09/2015
1035 621600 FLAVIA SARMENTO RODRIGUES ANALISTA DO MP ATIVO BELO HORIZONTE - COMARCA; AUDITORIA INTERNA 4.668,87 0,00 0,00 0,00 0,00 0,00 4.668,87 513,58 298,81 0,00 812,39 3.856,48 961,01 0,00 30/09/2015
1036 535800 FLAVIA SILVA VALADAO OFICIAL DO MP ATIVO TRÊS CORACOES - COMARCA; TRES CORACOES-PJ-04PJ 3.445,03 0,00 0,00 0,00 0,00 0,00 3.445,03 378,95 76,67 0,00 455,62 2.989,41 961,01 0,00 30/09/2015
1037 515300 FLAVIA VIEIRA OLIVEIRA GOMES ANALISTA DO MP ATIVO BELO HORIZONTE - COMARCA; CAO-CRIMINAL-SECRETARIA 6.641,51 398,49 0,00 0,00 0,00 0,00 7.040,00 774,40 853,68 0,00 1.628,08 5.411,92 726,01 0,00 30/09/2015
1038 377500 FLAVIANA GONCALVES DE OLIVEIRA ANALISTA DO MP ATIVO IPATINGA - COMARCA; IPATINGA-PJ-02PJ 8.727,00 872,70 0,00 0,00 0,00 0,00 9.599,70 1.055,97 1.480,17 0,00 2.536,14 7.063,56 726,01 0,00 30/09/2015
1039 273100 FLAVIANE DOS SANTOS CASTRO OFICIAL DO MP ATIVO CAXAMBU - COMARCA; CAXAMBU-PJ-SECRETARIA 7.200,74 1.440,15 0,00 0,00 0,00 0,00 8.640,89 950,50 1.141,22 0,00 2.091,72 6.549,17 726,01 0,00 30/09/2015
1040 310600 FLAVIANE NAVES ALCANTARA ASSESSOR/OFICIAL ATIVO BELO HORIZONTE - COMARCA; COMB CRIMES PRAT POR AG POL MUN-SECRETARIA 0,00 1.690,36 8.451,80 0,00 0,00 0,00 10.142,16 905,23 1.670,80 0,00 2.576,03 7.566,13 726,01 0,00 30/09/2015
1041 455800 FLAVIO ANTONIO RIBEIRO OFICIAL DO MP ATIVO BELO HORIZONTE - COMARCA; GRUPO ESP PROM PROC JUST DEF PROB ADM PAT PUB 3.916,07 234,96 0,00 0,00 0,00 0,00 4.151,03 456,61 199,36 0,00 655,97 3.495,06 726,01 0,00 30/09/2015
1042 458200 FLAVIO AUGUSTO BRAGA SOARES ANALISTA DO MP ATIVO BELO HORIZONTE - COMARCA; DIVISAO DE MANUTENCAO PREDIAL 7.200,74 432,04 0,00 0,00 0,00 0,00 7.632,78 839,61 998,76 0,00 1.838,37 5.794,41 726,01 0,00 30/09/2015
1043 516500 FLAVIO AUGUSTO RODRIGUES CORREA ANALISTA DO MP ATIVO BELO HORIZONTE - COMARCA; COORD REG BACIAS RIO VELHAS E PARAOPEBA 6.032,93 361,98 0,00 0,00 0,00 0,00 6.394,91 703,44 695,79 0,00 1.399,23 4.995,68 726,01 0,00 30/09/2015
1044 84300 FLAVIO DE FARIA BELTRAO OFICIAL DO MP ATIVO BELO HORIZONTE - COMARCA; DIRETORIA DE ADMINISTRACAO FINANCEIRA 19.311,46 13.518,02 0,00 0,00 0,00 0,00 32.829,48 3.351,82 6.536,31 2.358,37 12.246,50 20.582,98 726,01 0,00 30/09/2015
1045 266600 FLAVIO GUIMARAES LANA ANALISTA DO MP ATIVO BELO HORIZONTE - COMARCA; CENTRAL DE APOIO TECN-SETOR DE MEIO AMBIENTE 9.607,41 1.921,48 0,00 0,00 0,00 0,00 11.528,89 1.268,18 1.952,34 0,00 3.220,52 8.308,37 726,01 0,00 30/09/2015
1046 552600 FLAVIO HENRIQUE EVARISTO GOMES ASSESSOR/ANALISTA ATIVO BELO HORIZONTE - COMARCA; DIRETORIA DE SUPORTE E MANUTENCAO 0,00 0,00 8.451,80 0,00 0,00 0,00 8.451,80 642,69 1.278,15 0,00 1.920,84 6.530,96 726,01 0,00 30/09/2015
1047 640000 FLAVIO HENRIQUE PEREIRA VELOSO OFICIAL DO MP ATIVO BELO HORIZONTE - COMARCA; PROCON-MG-SECRETARIA DE FISCALIZACOES 3.030,62 0,00 0,00 0,00 0,00 0,00 3.030,62 333,37 59,49 0,00 392,86 2.637,76 726,01 0,00 30/09/2015
1048 241500 FLAVIO HENRIQUE SILVA MARTINS LAGE OFICIAL DO MP ATIVO BELO HORIZONTE - COMARCA; CAO-CRIANCAS E ADOLESCENTES-SECRETARIA 6.973,67 2.092,10 0,00 0,00 0,00 0,00 9.065,77 997,23 1.349,49 0,00 2.346,72 6.719,05 726,01 0,00 30/09/2015
1049 86700 FLAVIO LUCAS TOMAZ AGENTE DO MP ATIVO BELO HORIZONTE - COMARCA; BH-06PJ JUIZO CIVEL-SECRETARIA 5.658,41 2.829,20 0,00 0,00 0,00 0,00 8.487,61 933,64 783,56 0,00 1.717,20 6.770,41 726,01 0,00 30/09/2015
1050 407200 FLAVIO LUCIO MONTEIRO PENA ANALISTA DO MP ATIVO BELO HORIZONTE - COMARCA; DIRETORIA DE IMPRENSA 7.435,23 743,52 0,00 0,00 0,00 0,00 8.178,75 899,66 1.132,39 0,00 2.032,05 6.146,70 726,01 0,00 30/09/2015
1051 451700 FLAVIO MAGALHAES PEREIRA ANALISTA DO MP ATIVO BELO HORIZONTE - COMARCA; BH-12PJ JUIZO CRIMINAL-GAB 098PJ 7.435,23 743,52 0,00 0,00 0,00 0,00 8.178,75 899,66 1.132,39 0,00 2.032,05 6.146,70 726,01 0,00 30/09/2015
1052 481500 FLAVIO NEVES GUELBER DE MACEDO OFICIAL DO MP ATIVO SÃO JOÃO NEPOMUCENO - COMARCA; SAO JOAO NEPOMUCENO-PJ-02PJ 4.241,01 254,46 0,00 0,00 0,00 0,00 4.495,47 494,50 264,09 0,00 758,59 3.736,88 726,01 0,00 30/09/2015
1053 547500 FRANCELINO MOREIRA DA SILVA ANALISTA DO MP ATIVO BELO HORIZONTE - COMARCA; BH-10PJ EXECUÇÃO PENAL-SECRETARIA 5.307,28 0,00 0,00 0,00 0,00 0,00 5.307,28 583,80 429,60 0,00 1.013,40 4.293,88 961,01 0,00 30/09/2015
1054 278100 FRANCIANE MARY DE SOUZA DOMENICI DE BRITO E CASTRO ANALISTA DO MP ATIVO BELO HORIZONTE - COMARCA; BH-12PJ JUIZO CRIMINAL-GAB 083PJ 11.276,58 2.255,32 0,00 0,00 0,00 0,00 13.531,90 1.488,51 2.390,44 0,00 3.878,95 9.652,95 726,01 0,00 30/09/2015
1055 192501 FRANCIELLE REIS DE OLIVEIRA ANALISTA DO MP ATIVO PASSOS - COMARCA; PASSOS-PJ-04PJ 10.576,63 2.115,33 0,00 0,00 0,00 0,00 12.691,96 1.396,12 2.080,58 0,00 3.476,70 9.215,26 726,01 0,00 30/09/2015
1056 523600 FRANCINE MOURA LIMIRIO OFICIAL DO MP ATIVO UBERABA - COMARCA; UBERABA-PJ-02PJ 4.241,01 254,46 0,00 0,00 0,00 0,00 4.495,47 494,50 264,09 0,00 758,59 3.736,88 726,01 0,00 30/09/2015
1057 467200 FRANCINI RENNO ANALISTA DO MP ATIVO CASSIA - COMARCA; CASSIA-PJ-02PJ 7.200,74 432,04 0,00 0,00 0,00 0,00 7.632,78 839,61 998,76 0,00 1.838,37 5.794,41 726,01 0,00 30/09/2015
1058 189300 FRANCIS BERNARDO DO NASCIMENTO OFICIAL DO MP ATIVO VARGINHA - COMARCA; VARGINHA-PJ-05PJ 9.920,24 2.976,07 0,00 0,00 0,00 0,00 12.896,31 1.418,59 2.182,74 0,00 3.601,33 9.294,98 1.196,01 0,00 30/09/2015
1059 207800 FRANCISCO CAMPOS PIRES DE MORAIS ANALISTA DO MP ATIVO BELO HORIZONTE - COMARCA; CENTRAL DE APOIO TECN-SETOR DE MEIO AMBIENTE 14.715,61 4.414,68 0,00 0,00 0,00 0,00 19.130,29 2.104,33 3.708,50 0,00 5.812,83 13.317,46 726,01 0,00 30/09/2015
1060 424200 FRANCISCO DE FREITAS JUNIOR ANALISTA DO MP ATIVO MONTE AZUL - COMARCA; MONTE AZUL-PJ-UNPJ 8.185,27 818,53 0,00 0,00 0,00 0,00 9.003,80 990,42 1.334,32 0,00 2.324,74 6.679,06 726,01 0,00 30/09/2015
1061 607700 FRANCISCO EDUARDO DE CASTRO ANALISTA DO MP ATIVO BELO HORIZONTE - COMARCA; DIR ANALISES TECNOLOGIA INTELIGENCIA 4.820,91 0,00 0,00 0,00 0,00 0,00 4.820,91 530,30 329,26 0,00 859,56 3.961,35 726,01 0,00 30/09/2015
1062 204600 FRANCISCO FERREIRA NOVAIS OFICIAL DO MP ATIVO IPATINGA - COMARCA; IPATINGA-PJ-08PJ 8.451,80 2.535,54 0,00 0,00 0,00 0,00 10.987,34 1.208,61 1.715,52 0,00 2.924,13 8.063,21 726,01 0,00 30/09/2015
1063 60500 FRANCISCO OLIMPIO TEIXEIRA AGENTE DO MP ATIVO BELO HORIZONTE - COMARCA; EXTINTA - DIVISAO DE TRANSPORTES 4.977,82 3.982,26 0,00 0,00 0,00 1.408,01 10.368,09 1.408,01 2.494,25 0,00 3.902,26 6.465,83 726,01 3.840,00 30/09/2015
1064 411600 FRANCISCO PAIVA BRITO ANALISTA DO MP ATIVO BELO HORIZONTE - COMARCA; TRIBUNAL DO JURI-07 PJ-02 TRIBUNAL 7.435,23 743,52 0,00 0,00 0,00 0,00 8.178,75 899,66 1.132,39 0,00 2.032,05 6.146,70 726,01 0,00 30/09/2015
1065 515800 FRANCISCO RAFAEL DA SILVA NETO ANALISTA DO MP ATIVO SACRAMENTO - COMARCA; SACRAMENTO-PJ-01PJ 5.480,05 328,80 0,00 0,00 0,00 0,00 5.808,85 638,97 399,12 0,00 1.038,09 4.770,76 726,01 0,00 30/09/2015
1066 515200 FRANCISLEI ELIAS GONCALVES OFICIAL DO MP ATIVO PASSOS - COMARCA; PASSOS-PJ-07PJ 3.557,16 711,43 0,00 0,00 0,00 0,00 4.268,59 469,54 129,74 0,00 599,28 3.669,31 961,01 0,00 30/09/2015
1067 443600 FRANCISLEI MARTINS DE SOUSA ANALISTA DO MP ATIVO TIMÓTEO - COMARCA; TIMOTEO-PJ-01PJ 7.435,23 743,52 0,00 0,00 0,00 0,00 8.178,75 899,66 1.132,39 0,00 2.032,05 6.146,70 961,01 0,00 30/09/2015
1068 424500 FREDERICO AUGUSTO COBRA MULLER ANALISTA DO MP ATIVO POUSO ALEGRE - COMARCA; POUSO ALEGRE-PJ-02PJ 8.185,27 818,53 0,00 0,00 0,00 0,00 9.003,80 990,42 1.334,32 0,00 2.324,74 6.679,06 726,01 0,00 30/09/2015
1069 473100 FREDERICO AUGUSTO LIMA FELICIO ANALISTA DO MP ATIVO CONCEIÇÃO DO MATO DENTRO - COMARCA; CONCEICAO DO MATO DENTRO-PJ-UNPJ 7.200,74 432,04 0,00 0,00 0,00 0,00 7.632,78 839,61 998,76 0,00 1.838,37 5.794,41 726,01 0,00 30/09/2015
1070 318100 FREDERICO BIANCHINI JOVIANO DOS SANTOS ASSESSOR/OFICIAL ATIVO BELO HORIZONTE - COMARCA; PROMOT ESTADUAL DE DEF PATRI CULT E TUR DE MG 0,00 1.690,36 8.451,80 0,00 0,00 0,00 10.142,16 657,07 1.739,04 0,00 2.396,11 7.746,05 726,01 0,00 30/09/2015
1071 124200 FREDERICO DE SOUZA ROCHA OFICIAL DO MP ATIVO ESPINOSA - COMARCA; ESPINOSA-PJ-SECRETARIA 10.921,00 8.736,80 0,00 0,00 0,00 0,00 19.657,80 2.162,36 3.837,61 0,00 5.999,97 13.657,83 951,29 0,00 30/09/2015
1072 177100 FREDERICO FERNANDES DE ANDRADE OFICIAL DO MP ATIVO BELO HORIZONTE - COMARCA; SUPERINTENDENCIA DE TECNOLOGIA DA INFORMACAO 8.727,00 2.618,10 0,00 0,00 0,00 0,00 11.345,10 1.247,96 1.907,35 0,00 3.155,31 8.189,79 726,01 0,00 30/09/2015
1073 456200 FREDERICO FERNANDES PASSOS ANALISTA DO MP ATIVO BELO HORIZONTE - COMARCA; DIRETORIA DE REDES E BANCOS DE DADOS 7.200,74 432,04 0,00 0,00 0,00 0,00 7.632,78 839,61 998,76 0,00 1.838,37 5.794,41 726,01 0,00 30/09/2015
1074 400900 FREDERICO LUCIANO BORGES REIS ANALISTA DO MP ATIVO BELO HORIZONTE - COMARCA; DIRETORIA DE SISTEMAS DE INFORMACAO 8.727,00 872,70 0,00 0,00 0,00 0,00 9.599,70 1.055,97 1.480,17 0,00 2.536,14 7.063,56 726,01 0,00 30/09/2015
1075 466200 FREDERICO LUIS FERNANDES ANALISTA DO MP ATIVO BELO HORIZONTE - COMARCA; BH-12PJ JUIZO CRIMINAL-GAB 106PJ 7.200,74 432,04 0,00 0,00 0,00 0,00 7.632,78 839,61 946,62 0,00 1.786,23 5.846,55 726,01 0,00 30/09/2015
1076 419700 FREDERICO MECKLER SANTOS ANALISTA DO MP ATIVO CLÁUDIO - COMARCA; CLAUDIO-PJ-UNPJ 8.451,80 845,18 0,00 0,00 0,00 0,00 9.296,98 1.022,67 1.406,08 0,00 2.428,75 6.868,23 726,01 0,00 30/09/2015
1077 257100 FULVIA HERONVILLE DA SILVA OFICIAL DO MP ATIVO BELO HORIZONTE - COMARCA; COORD DE CONTROLE DA CONSTITUCIONALIDADE 7.200,74 1.440,15 0,00 0,00 0,00 0,00 8.640,89 950,50 1.193,36 0,00 2.143,86 6.497,03 726,01 0,00 30/09/2015
1078 621700 GABRIEL ANDRADE SOUZA GROSSI RIBEIRO OFICIAL DO MP ATIVO BETIM - COMARCA; BETIM-PJ-SECRETARIA 3.030,62 0,00 0,00 0,00 0,00 0,00 3.030,62 333,37 59,49 0,00 392,86 2.637,76 726,01 0,00 30/09/2015
1079 613600 GABRIEL BASTOS MEIRELES ANALISTA DO MP ATIVO BELO HORIZONTE - COMARCA; BH-16PJ HABITACAO E URBANISMO 4.820,91 0,00 0,00 0,00 0,00 0,00 4.820,91 530,30 329,26 0,00 859,56 3.961,35 726,01 0,00 30/09/2015
1080 629500 GABRIEL TEIXEIRA DE OLIVEIRA ANALISTA DO MP ATIVO UBERLÂNDIA - COMARCA; UBERLANDIA-PJ-02PJ 4.668,87 0,00 0,00 0,00 0,00 0,00 4.668,87 513,58 298,81 0,00 812,39 3.856,48 726,01 0,00 30/09/2015
1081 617900 GABRIELA CIRILA ROQUE ANALISTA DO MP ATIVO ITABIRA - COMARCA; ITABIRA-PJ-04PJ 5.307,28 0,00 0,00 0,00 0,00 0,00 5.307,28 583,80 429,60 0,00 1.013,40 4.293,88 726,01 0,00 30/09/2015
1082 386800 GABRIELA SIMOES CHAVES ANALISTA DO MP ATIVO BELO HORIZONTE - COMARCA; EXTINTA - DIVISÃO DE COMPRAS 8.727,00 872,70 0,00 0,00 0,00 0,00 9.599,70 1.055,97 1.480,17 0,00 2.536,14 7.063,56 961,01 0,00 30/09/2015
1083 449700 GABRIELE COSTA FERREIRA OFICIAL DO MP ATIVO BELO HO